<?xml version="1.0" encoding="UTF-8" standalone="no" ?>
<gpx xmlns="http://www.topografix.com/GPX/1/1" xmlns:xsi="http://www.w3.org/2001/XMLSchema-instance" xsi:schemaLocation="http://www.topografix.com/GPX/1/1 http://www.topografix.com/GPX/1/1/gpx.xsd" version="1.1" creator="VisuGPX - https://www.visugpx.com">
  <metadata>
    <name>Eddimo Norvège à vélo 2019 Bodo à Tromso</name>
    <desc><![CDATA[

]]></desc>
  </metadata>
  <wpt lat="67.90076" lon="13.05325">
    <ele>13.4</ele>
    <name><![CDATA[Moskenes Juillet 2019]]></name>
    <type><![CDATA[bivouacls3]]></type>
  </wpt>
  <wpt lat="68.20359" lon="13.88429">
    <ele>3.9</ele>
    <name><![CDATA[Valberg Juillet 2019]]></name>
    <type><![CDATA[bivouacls3]]></type>
  </wpt>
  <wpt lat="68.2484" lon="14.54887">
    <ele>18.2</ele>
    <name><![CDATA[Svolvaer Juillet 2019]]></name>
    <type><![CDATA[bivouacls3]]></type>
  </wpt>
  <wpt lat="68.55235" lon="14.92382">
    <ele>27.5</ele>
    <name><![CDATA[Stokmarknes Juillet 2019]]></name>
    <type><![CDATA[bivouacls3]]></type>
  </wpt>
  <wpt lat="69.00834" lon="15.55982">
    <ele>45.6</ele>
    <name><![CDATA[Bjornskinn Juillet 2019]]></name>
    <type><![CDATA[bivouacls3]]></type>
  </wpt>
  <wpt lat="69.41156" lon="17.14811">
    <ele>13.3</ele>
    <name><![CDATA[Hamn Juillet 2019]]></name>
    <desc><![CDATA[Bivouac sur un \"perchoir\" avec le soleil de minuit en point de vue]]></desc>
    <cmt><![CDATA[{\"rate\":4.5}]]></cmt>
    <type><![CDATA[bivouacls0]]></type>
  </wpt>
  <wpt lat="69.44943" lon="17.88417">
    <ele>8</ele>
    <name><![CDATA[Fjordbotn Juillet 2019]]></name>
    <type><![CDATA[bivouacls3]]></type>
  </wpt>
  <wpt lat="69.64791" lon="19.01774">
    <ele>6.5</ele>
    <name><![CDATA[Tromso Juillet 2019]]></name>
    <type><![CDATA[bivouacls3]]></type>
  </wpt>
  <trk>
    <name><![CDATA[Eddimo Norvège à vélo 2019 Bodo à Tromso]]></name>
    <extensions>
      <line xmlns="http://www.topografix.com/GPX/gpx_style/0/2">
        <color>FF00FF</color>
        <width>4</width>
      </line>
    </extensions>
    <trkseg>
      <trkpt lat="67.90088" lon="13.05287">
        <ele>17</ele>
        <time>2019-07-04T07:24:58Z</time>
      </trkpt>
      <trkpt lat="67.90054" lon="13.05191">
        <ele>17</ele>
        <time>2019-07-04T07:25:04Z</time>
      </trkpt>
      <trkpt lat="67.9003" lon="13.05407">
        <ele>16</ele>
        <time>2019-07-04T07:25:07Z</time>
      </trkpt>
      <trkpt lat="67.90042" lon="13.04829">
        <ele>16</ele>
        <time>2019-07-04T07:25:19Z</time>
      </trkpt>
      <trkpt lat="67.90023" lon="13.04663">
        <ele>16</ele>
        <time>2019-07-04T07:25:33Z</time>
      </trkpt>
      <trkpt lat="67.90133" lon="13.04636">
        <ele>16</ele>
        <time>2019-07-04T07:25:55Z</time>
      </trkpt>
      <trkpt lat="67.90151" lon="13.04602">
        <ele>15</ele>
        <time>2019-07-04T07:26:05Z</time>
      </trkpt>
      <trkpt lat="67.90236" lon="13.04173">
        <ele>14</ele>
        <time>2019-07-04T07:26:09Z</time>
      </trkpt>
      <trkpt lat="67.90578" lon="13.04753">
        <ele>13</ele>
        <time>2019-07-04T07:26:32Z</time>
      </trkpt>
      <trkpt lat="67.90665" lon="13.04856">
        <ele>12</ele>
        <time>2019-07-04T07:26:38Z</time>
      </trkpt>
      <trkpt lat="67.91049" lon="13.07068">
        <ele>11</ele>
        <time>2019-07-04T07:27:02Z</time>
      </trkpt>
      <trkpt lat="67.9145" lon="13.07994">
        <ele>10</ele>
        <time>2019-07-04T07:27:15Z</time>
      </trkpt>
      <trkpt lat="67.91506" lon="13.08058">
        <ele>9</ele>
        <time>2019-07-04T07:27:29Z</time>
      </trkpt>
      <trkpt lat="67.91631" lon="13.081">
        <ele>14</ele>
        <time>2019-07-04T07:27:34Z</time>
      </trkpt>
      <trkpt lat="67.91739" lon="13.08184">
        <ele>18</ele>
        <time>2019-07-04T07:27:39Z</time>
      </trkpt>
      <trkpt lat="67.91797" lon="13.08182">
        <ele>23</ele>
        <time>2019-07-04T07:27:45Z</time>
      </trkpt>
      <trkpt lat="67.92088" lon="13.0784">
        <ele>27</ele>
        <time>2019-07-04T07:27:50Z</time>
      </trkpt>
      <trkpt lat="67.92192" lon="13.07862">
        <ele>32</ele>
        <time>2019-07-04T07:27:53Z</time>
      </trkpt>
      <trkpt lat="67.9223" lon="13.07846">
        <ele>34</ele>
        <time>2019-07-04T07:27:56Z</time>
      </trkpt>
      <trkpt lat="67.92293" lon="13.07895">
        <ele>30</ele>
        <time>2019-07-04T07:28:04Z</time>
      </trkpt>
      <trkpt lat="67.92448" lon="13.08211">
        <ele>26</ele>
        <time>2019-07-04T07:28:24Z</time>
      </trkpt>
      <trkpt lat="67.92563" lon="13.08318">
        <ele>22</ele>
        <time>2019-07-04T07:28:29Z</time>
      </trkpt>
      <trkpt lat="67.92746" lon="13.08374">
        <ele>19</ele>
        <time>2019-07-04T07:28:34Z</time>
      </trkpt>
      <trkpt lat="67.92806" lon="13.08369">
        <ele>15</ele>
        <time>2019-07-04T07:28:56Z</time>
      </trkpt>
      <trkpt lat="67.93006" lon="13.08157">
        <ele>14</ele>
        <time>2019-07-04T07:29:03Z</time>
      </trkpt>
      <trkpt lat="67.93155" lon="13.07575">
        <ele>11</ele>
        <time>2019-07-04T07:29:15Z</time>
      </trkpt>
      <trkpt lat="67.93219" lon="13.07467">
        <ele>9</ele>
        <time>2019-07-04T07:29:20Z</time>
      </trkpt>
      <trkpt lat="67.93253" lon="13.07448">
        <ele>7</ele>
        <time>2019-07-04T07:29:27Z</time>
      </trkpt>
      <trkpt lat="67.93357" lon="13.07467">
        <ele>4</ele>
        <time>2019-07-04T07:29:34Z</time>
      </trkpt>
      <trkpt lat="67.93452" lon="13.07389">
        <ele>2</ele>
        <time>2019-07-04T07:29:47Z</time>
      </trkpt>
      <trkpt lat="67.93557" lon="13.07436">
        <ele>2</ele>
        <time>2019-07-04T07:30:00Z</time>
      </trkpt>
      <trkpt lat="67.93692" lon="13.07216">
        <ele>4</ele>
        <time>2019-07-04T07:30:13Z</time>
      </trkpt>
      <trkpt lat="67.93734" lon="13.07217">
        <ele>6</ele>
        <time>2019-07-04T07:30:22Z</time>
      </trkpt>
      <trkpt lat="67.93851" lon="13.07359">
        <ele>9</ele>
        <time>2019-07-04T07:30:31Z</time>
      </trkpt>
      <trkpt lat="67.93964" lon="13.07667">
        <ele>11</ele>
        <time>2019-07-04T07:30:40Z</time>
      </trkpt>
      <trkpt lat="67.93885" lon="13.08294">
        <ele>13</ele>
        <time>2019-07-04T07:31:14Z</time>
      </trkpt>
      <trkpt lat="67.93938" lon="13.08531">
        <ele>13</ele>
        <time>2019-07-04T07:31:22Z</time>
      </trkpt>
      <trkpt lat="67.93903" lon="13.08866">
        <ele>13</ele>
        <time>2019-07-04T07:31:38Z</time>
      </trkpt>
      <trkpt lat="67.93914" lon="13.0912">
        <ele>12</ele>
        <time>2019-07-04T07:31:53Z</time>
      </trkpt>
      <trkpt lat="67.93965" lon="13.09315">
        <ele>12</ele>
        <time>2019-07-04T07:32:01Z</time>
      </trkpt>
      <trkpt lat="67.94088" lon="13.09546">
        <ele>12</ele>
        <time>2019-07-04T07:35:13Z</time>
      </trkpt>
      <trkpt lat="67.94147" lon="13.09867">
        <ele>12</ele>
        <time>2019-07-04T07:35:23Z</time>
      </trkpt>
      <trkpt lat="67.94247" lon="13.1001">
        <ele>10</ele>
        <time>2019-07-04T07:35:35Z</time>
      </trkpt>
      <trkpt lat="67.94264" lon="13.10164">
        <ele>7</ele>
        <time>2019-07-04T07:35:40Z</time>
      </trkpt>
      <trkpt lat="67.94201" lon="13.10549">
        <ele>5</ele>
        <time>2019-07-04T07:35:50Z</time>
      </trkpt>
      <trkpt lat="67.9412" lon="13.11784">
        <ele>3</ele>
        <time>2019-07-04T07:36:05Z</time>
      </trkpt>
      <trkpt lat="67.94223" lon="13.1198">
        <ele>1</ele>
        <time>2019-07-04T07:36:11Z</time>
      </trkpt>
      <trkpt lat="67.9443" lon="13.12193">
        <ele>5.4</ele>
        <time>2019-07-04T07:36:15Z</time>
      </trkpt>
      <trkpt lat="67.94487" lon="13.12328">
        <ele>6.9</ele>
        <time>2019-07-04T07:36:35Z</time>
      </trkpt>
      <trkpt lat="67.9453" lon="13.12645">
        <ele>15</ele>
        <time>2019-07-04T07:36:45Z</time>
      </trkpt>
      <trkpt lat="67.94523" lon="13.13322">
        <ele>12.8</ele>
        <time>2019-07-04T07:37:00Z</time>
      </trkpt>
      <trkpt lat="67.94548" lon="13.13573">
        <ele>10.7</ele>
        <time>2019-07-04T07:37:04Z</time>
      </trkpt>
      <trkpt lat="67.94582" lon="13.13674">
        <ele>5.5</ele>
        <time>2019-07-04T07:37:10Z</time>
      </trkpt>
      <trkpt lat="67.94645" lon="13.13755">
        <ele>4</ele>
        <time>2019-07-04T07:37:17Z</time>
      </trkpt>
      <trkpt lat="67.94714" lon="13.13766">
        <ele>2</ele>
        <time>2019-07-04T07:37:36Z</time>
      </trkpt>
      <trkpt lat="67.94814" lon="13.13714">
        <ele>4</ele>
        <time>2019-07-04T07:37:59Z</time>
      </trkpt>
      <trkpt lat="67.94826" lon="13.13618">
        <ele>6</ele>
        <time>2019-07-04T07:38:08Z</time>
      </trkpt>
      <trkpt lat="67.94851" lon="13.13708">
        <ele>8</ele>
        <time>2019-07-04T07:38:16Z</time>
      </trkpt>
      <trkpt lat="67.94972" lon="13.13766">
        <ele>10</ele>
        <time>2019-07-04T07:38:26Z</time>
      </trkpt>
      <trkpt lat="67.95055" lon="13.13742">
        <ele>10</ele>
        <time>2019-07-04T07:38:43Z</time>
      </trkpt>
      <trkpt lat="67.96214" lon="13.14802">
        <ele>12</ele>
        <time>2019-07-04T07:39:24Z</time>
      </trkpt>
      <trkpt lat="67.96216" lon="13.1508">
        <ele>14</ele>
        <time>2019-07-04T07:39:31Z</time>
      </trkpt>
      <trkpt lat="67.96261" lon="13.15438">
        <ele>16</ele>
        <time>2019-07-04T07:39:42Z</time>
      </trkpt>
      <trkpt lat="67.96466" lon="13.16442">
        <ele>17</ele>
        <time>2019-07-04T07:39:46Z</time>
      </trkpt>
      <trkpt lat="67.96494" lon="13.16762">
        <ele>19</ele>
        <time>2019-07-04T07:39:49Z</time>
      </trkpt>
      <trkpt lat="67.96546" lon="13.16893">
        <ele>19</ele>
        <time>2019-07-04T07:39:53Z</time>
      </trkpt>
      <trkpt lat="67.96745" lon="13.17094">
        <ele>24</ele>
        <time>2019-07-04T07:39:56Z</time>
      </trkpt>
      <trkpt lat="67.96901" lon="13.17388">
        <ele>29</ele>
        <time>2019-07-04T07:40:00Z</time>
      </trkpt>
      <trkpt lat="67.9696" lon="13.1745">
        <ele>34</ele>
        <time>2019-07-04T07:40:03Z</time>
      </trkpt>
      <trkpt lat="67.97055" lon="13.17482">
        <ele>39</ele>
        <time>2019-07-04T07:40:18Z</time>
      </trkpt>
      <trkpt lat="67.97152" lon="13.17611">
        <ele>44</ele>
        <time>2019-07-04T07:40:30Z</time>
      </trkpt>
      <trkpt lat="67.97292" lon="13.17924">
        <ele>37</ele>
        <time>2019-07-04T07:40:43Z</time>
      </trkpt>
      <trkpt lat="67.97422" lon="13.18144">
        <ele>31</ele>
        <time>2019-07-04T07:40:48Z</time>
      </trkpt>
      <trkpt lat="67.975" lon="13.18387">
        <ele>25</ele>
        <time>2019-07-04T07:41:01Z</time>
      </trkpt>
      <trkpt lat="67.97592" lon="13.18566">
        <ele>18</ele>
        <time>2019-07-04T07:41:09Z</time>
      </trkpt>
      <trkpt lat="67.97665" lon="13.18536">
        <ele>12</ele>
        <time>2019-07-04T07:41:19Z</time>
      </trkpt>
      <trkpt lat="67.97794" lon="13.18332">
        <ele>7</ele>
        <time>2019-07-04T07:41:27Z</time>
      </trkpt>
      <trkpt lat="67.97913" lon="13.183">
        <ele>12</ele>
        <time>2019-07-04T07:41:34Z</time>
      </trkpt>
      <trkpt lat="67.97974" lon="13.18224">
        <ele>16</ele>
        <time>2019-07-04T07:43:03Z</time>
      </trkpt>
      <trkpt lat="67.98148" lon="13.18093">
        <ele>21</ele>
        <time>2019-07-04T07:43:12Z</time>
      </trkpt>
      <trkpt lat="67.98312" lon="13.17789">
        <ele>26</ele>
        <time>2019-07-04T07:43:42Z</time>
      </trkpt>
      <trkpt lat="67.98432" lon="13.17754">
        <ele>31</ele>
        <time>2019-07-04T07:43:50Z</time>
      </trkpt>
      <trkpt lat="67.9879" lon="13.16951">
        <ele>33</ele>
        <time>2019-07-04T07:43:58Z</time>
      </trkpt>
      <trkpt lat="67.99022" lon="13.16773">
        <ele>29</ele>
        <time>2019-07-04T07:44:07Z</time>
      </trkpt>
      <trkpt lat="67.99059" lon="13.16769">
        <ele>24</ele>
        <time>2019-07-04T07:44:19Z</time>
      </trkpt>
      <trkpt lat="67.99169" lon="13.16659">
        <ele>19</ele>
        <time>2019-07-04T07:44:35Z</time>
      </trkpt>
      <trkpt lat="67.99574" lon="13.16989">
        <ele>14</ele>
        <time>2019-07-04T07:44:52Z</time>
      </trkpt>
      <trkpt lat="67.99759" lon="13.17208">
        <ele>10</ele>
        <time>2019-07-04T07:44:59Z</time>
      </trkpt>
      <trkpt lat="67.99909" lon="13.17475">
        <ele>8</ele>
        <time>2019-07-04T07:45:17Z</time>
      </trkpt>
      <trkpt lat="67.99975" lon="13.17526">
        <ele>12</ele>
        <time>2019-07-04T07:45:26Z</time>
      </trkpt>
      <trkpt lat="68.00053" lon="13.17559">
        <ele>15</ele>
        <time>2019-07-04T07:46:34Z</time>
      </trkpt>
      <trkpt lat="68.00488" lon="13.17629">
        <ele>19</ele>
        <time>2019-07-04T07:46:44Z</time>
      </trkpt>
      <trkpt lat="68.00569" lon="13.17552">
        <ele>23</ele>
        <time>2019-07-04T07:46:59Z</time>
      </trkpt>
      <trkpt lat="68.00625" lon="13.17332">
        <ele>27</ele>
        <time>2019-07-04T07:47:07Z</time>
      </trkpt>
      <trkpt lat="68.00622" lon="13.17065">
        <ele>27</ele>
        <time>2019-07-04T07:47:17Z</time>
      </trkpt>
      <trkpt lat="68.00663" lon="13.16975">
        <ele>25</ele>
        <time>2019-07-04T07:47:29Z</time>
      </trkpt>
      <trkpt lat="68.00781" lon="13.16842">
        <ele>23</ele>
        <time>2019-07-04T07:47:33Z</time>
      </trkpt>
      <trkpt lat="68.00893" lon="13.16786">
        <ele>21</ele>
        <time>2019-07-04T07:47:38Z</time>
      </trkpt>
      <trkpt lat="68.00988" lon="13.16692">
        <ele>18</ele>
        <time>2019-07-04T07:47:43Z</time>
      </trkpt>
      <trkpt lat="68.01027" lon="13.1669">
        <ele>16</ele>
        <time>2019-07-04T07:48:02Z</time>
      </trkpt>
      <trkpt lat="68.0116" lon="13.16794">
        <ele>16</ele>
        <time>2019-07-04T07:48:14Z</time>
      </trkpt>
      <trkpt lat="68.01291" lon="13.16983">
        <ele>16</ele>
        <time>2019-07-04T07:48:21Z</time>
      </trkpt>
      <trkpt lat="68.0137" lon="13.17038">
        <ele>16</ele>
        <time>2019-07-04T07:48:33Z</time>
      </trkpt>
      <trkpt lat="68.01426" lon="13.17127">
        <ele>16</ele>
        <time>2019-07-04T07:48:41Z</time>
      </trkpt>
      <trkpt lat="68.01723" lon="13.17627">
        <ele>16</ele>
        <time>2019-07-04T07:48:47Z</time>
      </trkpt>
      <trkpt lat="68.01966" lon="13.18392">
        <ele>17</ele>
        <time>2019-07-04T07:49:04Z</time>
      </trkpt>
      <trkpt lat="68.0204" lon="13.18481">
        <ele>16</ele>
        <time>2019-07-04T07:49:06Z</time>
      </trkpt>
      <trkpt lat="68.02157" lon="13.18501">
        <ele>15</ele>
        <time>2019-07-04T07:49:09Z</time>
      </trkpt>
      <trkpt lat="68.02269" lon="13.18464">
        <ele>14</ele>
        <time>2019-07-04T07:49:15Z</time>
      </trkpt>
      <trkpt lat="68.02356" lon="13.18235">
        <ele>13</ele>
        <time>2019-07-04T07:49:26Z</time>
      </trkpt>
      <trkpt lat="68.02398" lon="13.18204">
        <ele>11</ele>
        <time>2019-07-04T07:49:53Z</time>
      </trkpt>
      <trkpt lat="68.02508" lon="13.18275">
        <ele>11</ele>
        <time>2019-07-04T07:50:08Z</time>
      </trkpt>
      <trkpt lat="68.02572" lon="13.18155">
        <ele>11</ele>
        <time>2019-07-04T07:50:14Z</time>
      </trkpt>
      <trkpt lat="68.02662" lon="13.17859">
        <ele>11</ele>
        <time>2019-07-04T07:50:17Z</time>
      </trkpt>
      <trkpt lat="68.02738" lon="13.1785">
        <ele>12</ele>
        <time>2019-07-04T07:50:26Z</time>
      </trkpt>
      <trkpt lat="68.02861" lon="13.17723">
        <ele>12</ele>
        <time>2019-07-04T07:50:44Z</time>
      </trkpt>
      <trkpt lat="68.02961" lon="13.17741">
        <ele>12</ele>
        <time>2019-07-04T07:50:55Z</time>
      </trkpt>
      <trkpt lat="68.03131" lon="13.17953">
        <ele>12</ele>
        <time>2019-07-04T07:51:01Z</time>
      </trkpt>
      <trkpt lat="68.0318" lon="13.17972">
        <ele>12</ele>
        <time>2019-07-04T07:51:09Z</time>
      </trkpt>
      <trkpt lat="68.03224" lon="13.17944">
        <ele>13</ele>
        <time>2019-07-04T07:51:15Z</time>
      </trkpt>
      <trkpt lat="68.03357" lon="13.17755">
        <ele>13</ele>
        <time>2019-07-04T07:51:26Z</time>
      </trkpt>
      <trkpt lat="68.03491" lon="13.17614">
        <ele>13</ele>
        <time>2019-07-04T07:51:33Z</time>
      </trkpt>
      <trkpt lat="68.03646" lon="13.17342">
        <ele>13</ele>
        <time>2019-07-04T07:51:44Z</time>
      </trkpt>
      <trkpt lat="68.03854" lon="13.17137">
        <ele>13</ele>
        <time>2019-07-04T07:51:52Z</time>
      </trkpt>
      <trkpt lat="68.0407" lon="13.17066">
        <ele>12</ele>
        <time>2019-07-04T07:51:59Z</time>
      </trkpt>
      <trkpt lat="68.04514" lon="13.17114">
        <ele>10</ele>
        <time>2019-07-04T07:52:16Z</time>
      </trkpt>
      <trkpt lat="68.04742" lon="13.17449">
        <ele>9</ele>
        <time>2019-07-04T07:52:22Z</time>
      </trkpt>
      <trkpt lat="68.05263" lon="13.18031">
        <ele>8</ele>
        <time>2019-07-04T07:52:26Z</time>
      </trkpt>
      <trkpt lat="68.05412" lon="13.18271">
        <ele>6</ele>
        <time>2019-07-04T07:52:30Z</time>
      </trkpt>
      <trkpt lat="68.05503" lon="13.18365">
        <ele>6</ele>
        <time>2019-07-04T07:52:34Z</time>
      </trkpt>
      <trkpt lat="68.05645" lon="13.18414">
        <ele>8</ele>
        <time>2019-07-04T08:03:22Z</time>
      </trkpt>
      <trkpt lat="68.05746" lon="13.18556">
        <ele>10</ele>
        <time>2019-07-04T08:03:28Z</time>
      </trkpt>
      <trkpt lat="68.05863" lon="13.18653">
        <ele>13</ele>
        <time>2019-07-04T08:04:08Z</time>
      </trkpt>
      <trkpt lat="68.06067" lon="13.19099">
        <ele>15</ele>
        <time>2019-07-04T08:04:13Z</time>
      </trkpt>
      <trkpt lat="68.0623" lon="13.19162">
        <ele>17</ele>
        <time>2019-07-04T08:04:18Z</time>
      </trkpt>
      <trkpt lat="68.06477" lon="13.19537">
        <ele>17</ele>
        <time>2019-07-04T08:04:29Z</time>
      </trkpt>
      <trkpt lat="68.06686" lon="13.19596">
        <ele>17</ele>
        <time>2019-07-04T08:04:37Z</time>
      </trkpt>
      <trkpt lat="68.07013" lon="13.19836">
        <ele>17</ele>
        <time>2019-07-04T08:04:50Z</time>
      </trkpt>
      <trkpt lat="68.07322" lon="13.19936">
        <ele>17</ele>
        <time>2019-07-04T08:04:57Z</time>
      </trkpt>
      <trkpt lat="68.07356" lon="13.19988">
        <ele>17</ele>
        <time>2019-07-04T08:05:05Z</time>
      </trkpt>
      <trkpt lat="68.07432" lon="13.20285">
        <ele>18</ele>
        <time>2019-07-04T08:05:21Z</time>
      </trkpt>
      <trkpt lat="68.07467" lon="13.21132">
        <ele>16</ele>
        <time>2019-07-04T08:05:36Z</time>
      </trkpt>
      <trkpt lat="68.07308" lon="13.23594">
        <ele>14</ele>
        <time>2019-07-04T08:05:52Z</time>
      </trkpt>
      <trkpt lat="68.07317" lon="13.23734">
        <ele>12</ele>
        <time>2019-07-04T08:06:08Z</time>
      </trkpt>
      <trkpt lat="68.07366" lon="13.23909">
        <ele>10</ele>
        <time>2019-07-04T08:06:13Z</time>
      </trkpt>
      <trkpt lat="68.0741" lon="13.23968">
        <ele>8</ele>
        <time>2019-07-04T08:06:27Z</time>
      </trkpt>
      <trkpt lat="68.07553" lon="13.23975">
        <ele>6</ele>
        <time>2019-07-04T08:06:35Z</time>
      </trkpt>
      <trkpt lat="68.07622" lon="13.23964">
        <ele>8</ele>
        <time>2019-07-04T08:06:44Z</time>
      </trkpt>
      <trkpt lat="68.07738" lon="13.23896">
        <ele>9</ele>
        <time>2019-07-04T08:06:49Z</time>
      </trkpt>
      <trkpt lat="68.07945" lon="13.23709">
        <ele>10</ele>
        <time>2019-07-04T08:06:53Z</time>
      </trkpt>
      <trkpt lat="68.0813" lon="13.23383">
        <ele>11</ele>
        <time>2019-07-04T08:07:02Z</time>
      </trkpt>
      <trkpt lat="68.08213" lon="13.23308">
        <ele>13</ele>
        <time>2019-07-04T08:07:06Z</time>
      </trkpt>
      <trkpt lat="68.08408" lon="13.23212">
        <ele>14</ele>
        <time>2019-07-04T08:07:15Z</time>
      </trkpt>
      <trkpt lat="68.08595" lon="13.22979">
        <ele>11</ele>
        <time>2019-07-04T08:07:22Z</time>
      </trkpt>
      <trkpt lat="68.08739" lon="13.22873">
        <ele>9</ele>
        <time>2019-07-04T08:07:27Z</time>
      </trkpt>
      <trkpt lat="68.08891" lon="13.2291">
        <ele>7</ele>
        <time>2019-07-04T08:07:37Z</time>
      </trkpt>
      <trkpt lat="68.08938" lon="13.22946">
        <ele>5</ele>
        <time>2019-07-04T08:07:50Z</time>
      </trkpt>
      <trkpt lat="68.08942" lon="13.2289">
        <ele>3</ele>
        <time>2019-07-04T08:07:58Z</time>
      </trkpt>
      <trkpt lat="68.08911" lon="13.22866">
        <ele>2</ele>
        <time>2019-07-04T08:08:02Z</time>
      </trkpt>
      <trkpt lat="68.08886" lon="13.22876">
        <ele>4</ele>
        <time>2019-07-04T08:08:27Z</time>
      </trkpt>
      <trkpt lat="68.08911" lon="13.22867">
        <ele>6</ele>
        <time>2019-07-04T08:08:53Z</time>
      </trkpt>
      <trkpt lat="68.08957" lon="13.22914">
        <ele>8</ele>
        <time>2019-07-04T08:09:02Z</time>
      </trkpt>
      <trkpt lat="68.08956" lon="13.22969">
        <ele>10</ele>
        <time>2019-07-04T08:09:16Z</time>
      </trkpt>
      <trkpt lat="68.09092" lon="13.23145">
        <ele>12</ele>
        <time>2019-07-04T08:09:22Z</time>
      </trkpt>
      <trkpt lat="68.09278" lon="13.23851">
        <ele>12</ele>
        <time>2019-07-04T08:09:36Z</time>
      </trkpt>
      <trkpt lat="68.09529" lon="13.24364">
        <ele>12</ele>
        <time>2019-07-04T08:09:45Z</time>
      </trkpt>
      <trkpt lat="68.09636" lon="13.24503">
        <ele>12</ele>
        <time>2019-07-04T08:09:49Z</time>
      </trkpt>
      <trkpt lat="68.09774" lon="13.24616">
        <ele>12</ele>
        <time>2019-07-04T08:09:52Z</time>
      </trkpt>
      <trkpt lat="68.09823" lon="13.24631">
        <ele>12</ele>
        <time>2019-07-04T08:10:01Z</time>
      </trkpt>
      <trkpt lat="68.09841" lon="13.24528">
        <ele>12</ele>
        <time>2019-07-04T08:10:11Z</time>
      </trkpt>
      <trkpt lat="68.09838" lon="13.24619">
        <ele>12</ele>
        <time>2019-07-04T08:10:32Z</time>
      </trkpt>
      <trkpt lat="68.0999" lon="13.24681">
        <ele>12</ele>
        <time>2019-07-04T08:10:42Z</time>
      </trkpt>
      <trkpt lat="68.10085" lon="13.24795">
        <ele>11</ele>
        <time>2019-07-04T08:10:52Z</time>
      </trkpt>
      <trkpt lat="68.10305" lon="13.2555">
        <ele>11</ele>
        <time>2019-07-04T08:11:12Z</time>
      </trkpt>
      <trkpt lat="68.10371" lon="13.26212">
        <ele>11</ele>
        <time>2019-07-04T08:11:18Z</time>
      </trkpt>
      <trkpt lat="68.10356" lon="13.26737">
        <ele>11</ele>
        <time>2019-07-04T08:11:46Z</time>
      </trkpt>
      <trkpt lat="68.10421" lon="13.27602">
        <ele>11</ele>
        <time>2019-07-04T08:12:03Z</time>
      </trkpt>
      <trkpt lat="68.10259" lon="13.29003">
        <ele>12</ele>
        <time>2019-07-04T08:12:16Z</time>
      </trkpt>
      <trkpt lat="68.10274" lon="13.30336">
        <ele>13</ele>
        <time>2019-07-04T08:12:21Z</time>
      </trkpt>
      <trkpt lat="68.10111" lon="13.32187">
        <ele>13</ele>
        <time>2019-07-04T08:12:30Z</time>
      </trkpt>
      <trkpt lat="68.10059" lon="13.32269">
        <ele>14</ele>
        <time>2019-07-04T08:13:21Z</time>
      </trkpt>
      <trkpt lat="68.09861" lon="13.32118">
        <ele>14</ele>
        <time>2019-07-04T08:13:43Z</time>
      </trkpt>
      <trkpt lat="68.09775" lon="13.31997">
        <ele>14</ele>
        <time>2019-07-04T08:13:58Z</time>
      </trkpt>
      <trkpt lat="68.09444" lon="13.31668">
        <ele>14</ele>
        <time>2019-07-04T08:14:02Z</time>
      </trkpt>
      <trkpt lat="68.09169" lon="13.31306">
        <ele>14</ele>
        <time>2019-07-04T08:14:08Z</time>
      </trkpt>
      <trkpt lat="68.08952" lon="13.31111">
        <ele>14</ele>
        <time>2019-07-04T08:14:27Z</time>
      </trkpt>
      <trkpt lat="68.08851" lon="13.30951">
        <ele>14</ele>
        <time>2019-07-04T08:14:29Z</time>
      </trkpt>
      <trkpt lat="68.08684" lon="13.3076">
        <ele>14</ele>
        <time>2019-07-04T08:16:12Z</time>
      </trkpt>
      <trkpt lat="68.08605" lon="13.30476">
        <ele>13</ele>
        <time>2019-07-04T08:16:23Z</time>
      </trkpt>
      <trkpt lat="68.08525" lon="13.29979">
        <ele>12</ele>
        <time>2019-07-04T08:16:31Z</time>
      </trkpt>
      <trkpt lat="68.08493" lon="13.29492">
        <ele>12</ele>
        <time>2019-07-04T08:16:52Z</time>
      </trkpt>
      <trkpt lat="68.0839" lon="13.2927">
        <ele>11</ele>
        <time>2019-07-04T08:16:59Z</time>
      </trkpt>
      <trkpt lat="68.08322" lon="13.29211">
        <ele>10</ele>
        <time>2019-07-04T08:17:06Z</time>
      </trkpt>
      <trkpt lat="68.08265" lon="13.29229">
        <ele>10</ele>
        <time>2019-07-04T08:17:13Z</time>
      </trkpt>
      <trkpt lat="68.07971" lon="13.29403">
        <ele>12</ele>
        <time>2019-07-04T08:17:30Z</time>
      </trkpt>
      <trkpt lat="68.07896" lon="13.29545">
        <ele>13</ele>
        <time>2019-07-04T08:17:58Z</time>
      </trkpt>
      <trkpt lat="68.07813" lon="13.29882">
        <ele>15</ele>
        <time>2019-07-04T08:18:02Z</time>
      </trkpt>
      <trkpt lat="68.07756" lon="13.30567">
        <ele>17</ele>
        <time>2019-07-04T08:18:10Z</time>
      </trkpt>
      <trkpt lat="68.07773" lon="13.30838">
        <ele>18</ele>
        <time>2019-07-04T08:18:17Z</time>
      </trkpt>
      <trkpt lat="68.07753" lon="13.31035">
        <ele>18</ele>
        <time>2019-07-04T08:18:22Z</time>
      </trkpt>
      <trkpt lat="68.07266" lon="13.33244">
        <ele>15</ele>
        <time>2019-07-04T08:18:46Z</time>
      </trkpt>
      <trkpt lat="68.07217" lon="13.33699">
        <ele>12</ele>
        <time>2019-07-04T08:18:49Z</time>
      </trkpt>
      <trkpt lat="68.07221" lon="13.342">
        <ele>9</ele>
        <time>2019-07-04T08:18:51Z</time>
      </trkpt>
      <trkpt lat="68.07276" lon="13.34444">
        <ele>6</ele>
        <time>2019-07-04T08:18:54Z</time>
      </trkpt>
      <trkpt lat="68.07412" lon="13.34669">
        <ele>3</ele>
        <time>2019-07-04T08:18:59Z</time>
      </trkpt>
      <trkpt lat="68.07509" lon="13.34697">
        <ele>4</ele>
        <time>2019-07-04T08:19:06Z</time>
      </trkpt>
      <trkpt lat="68.07645" lon="13.34686">
        <ele>5</ele>
        <time>2019-07-04T08:19:12Z</time>
      </trkpt>
      <trkpt lat="68.08943" lon="13.33822">
        <ele>5</ele>
        <time>2019-07-04T08:19:14Z</time>
      </trkpt>
      <trkpt lat="68.09171" lon="13.33719">
        <ele>6</ele>
        <time>2019-07-04T08:19:20Z</time>
      </trkpt>
      <trkpt lat="68.09328" lon="13.33689">
        <ele>7</ele>
        <time>2019-07-04T08:19:24Z</time>
      </trkpt>
      <trkpt lat="68.09553" lon="13.33752">
        <ele>8</ele>
        <time>2019-07-04T08:19:31Z</time>
      </trkpt>
      <trkpt lat="68.09785" lon="13.33877">
        <ele>8</ele>
        <time>2019-07-04T08:19:38Z</time>
      </trkpt>
      <trkpt lat="68.09897" lon="13.34033">
        <ele>7</ele>
        <time>2019-07-04T08:19:43Z</time>
      </trkpt>
      <trkpt lat="68.10262" lon="13.34423">
        <ele>7</ele>
        <time>2019-07-04T08:20:07Z</time>
      </trkpt>
      <trkpt lat="68.10362" lon="13.34424">
        <ele>7</ele>
        <time>2019-07-04T08:20:12Z</time>
      </trkpt>
      <trkpt lat="68.10552" lon="13.34356">
        <ele>7</ele>
        <time>2019-07-04T08:20:20Z</time>
      </trkpt>
      <trkpt lat="68.10995" lon="13.34143">
        <ele>7</ele>
        <time>2019-07-04T08:20:33Z</time>
      </trkpt>
      <trkpt lat="68.11066" lon="13.3418">
        <ele>11</ele>
        <time>2019-07-04T08:20:39Z</time>
      </trkpt>
      <trkpt lat="68.11297" lon="13.34397">
        <ele>16</ele>
        <time>2019-07-04T08:20:55Z</time>
      </trkpt>
      <trkpt lat="68.11839" lon="13.34703">
        <ele>20</ele>
        <time>2019-07-04T08:21:01Z</time>
      </trkpt>
      <trkpt lat="68.11971" lon="13.35337">
        <ele>25</ele>
        <time>2019-07-04T08:21:48Z</time>
      </trkpt>
      <trkpt lat="68.12051" lon="13.36225">
        <ele>30</ele>
        <time>2019-07-04T08:21:52Z</time>
      </trkpt>
      <trkpt lat="68.12238" lon="13.36787">
        <ele>32</ele>
        <time>2019-07-04T08:21:57Z</time>
      </trkpt>
      <trkpt lat="68.12438" lon="13.37763">
        <ele>35</ele>
        <time>2019-07-04T08:22:03Z</time>
      </trkpt>
      <trkpt lat="68.12516" lon="13.38006">
        <ele>38</ele>
        <time>2019-07-04T08:22:09Z</time>
      </trkpt>
      <trkpt lat="68.12667" lon="13.38284">
        <ele>42</ele>
        <time>2019-07-04T08:22:31Z</time>
      </trkpt>
      <trkpt lat="68.12841" lon="13.38494">
        <ele>45</ele>
        <time>2019-07-04T08:22:41Z</time>
      </trkpt>
      <trkpt lat="68.12924" lon="13.38728">
        <ele>49</ele>
        <time>2019-07-04T08:22:50Z</time>
      </trkpt>
      <trkpt lat="68.12916" lon="13.40236">
        <ele>50</ele>
        <time>2019-07-04T08:23:00Z</time>
      </trkpt>
      <trkpt lat="68.12984" lon="13.40749">
        <ele>42</ele>
        <time>2019-07-04T08:23:12Z</time>
      </trkpt>
      <trkpt lat="68.13086" lon="13.41231">
        <ele>34</ele>
        <time>2019-07-04T08:29:39Z</time>
      </trkpt>
      <trkpt lat="68.13185" lon="13.42554">
        <ele>26</ele>
        <time>2019-07-04T08:29:46Z</time>
      </trkpt>
      <trkpt lat="68.13323" lon="13.43251">
        <ele>18</ele>
        <time>2019-07-04T08:29:59Z</time>
      </trkpt>
      <trkpt lat="68.13345" lon="13.43911">
        <ele>10</ele>
        <time>2019-07-04T08:30:13Z</time>
      </trkpt>
      <trkpt lat="68.13445" lon="13.44297">
        <ele>10</ele>
        <time>2019-07-04T08:30:24Z</time>
      </trkpt>
      <trkpt lat="68.13532" lon="13.44778">
        <ele>11</ele>
        <time>2019-07-04T08:30:50Z</time>
      </trkpt>
      <trkpt lat="68.13631" lon="13.45142">
        <ele>12</ele>
        <time>2019-07-04T08:31:03Z</time>
      </trkpt>
      <trkpt lat="68.13774" lon="13.45386">
        <ele>14</ele>
        <time>2019-07-04T08:32:05Z</time>
      </trkpt>
      <trkpt lat="68.13962" lon="13.45543">
        <ele>15</ele>
        <time>2019-07-04T08:32:17Z</time>
      </trkpt>
      <trkpt lat="68.13997" lon="13.45558">
        <ele>16</ele>
        <time>2019-07-04T08:32:39Z</time>
      </trkpt>
      <trkpt lat="68.14091" lon="13.45542">
        <ele>21</ele>
        <time>2019-07-04T08:32:50Z</time>
      </trkpt>
      <trkpt lat="68.14894" lon="13.48306">
        <ele>26</ele>
        <time>2019-07-04T08:32:53Z</time>
      </trkpt>
      <trkpt lat="68.14785" lon="13.48552">
        <ele>30</ele>
        <time>2019-07-04T08:32:58Z</time>
      </trkpt>
      <trkpt lat="68.14746" lon="13.48932">
        <ele>35</ele>
        <time>2019-07-04T08:33:01Z</time>
      </trkpt>
      <trkpt lat="68.14803" lon="13.50007">
        <ele>40</ele>
        <time>2019-07-04T08:33:12Z</time>
      </trkpt>
      <trkpt lat="68.14922" lon="13.50508">
        <ele>44</ele>
        <time>2019-07-04T08:33:22Z</time>
      </trkpt>
      <trkpt lat="68.14918" lon="13.50667">
        <ele>40</ele>
        <time>2019-07-04T08:33:28Z</time>
      </trkpt>
      <trkpt lat="68.14957" lon="13.50747">
        <ele>36</ele>
        <time>2019-07-04T08:33:35Z</time>
      </trkpt>
      <trkpt lat="68.14984" lon="13.50715">
        <ele>32</ele>
        <time>2019-07-04T08:33:50Z</time>
      </trkpt>
      <trkpt lat="68.15116" lon="13.50981">
        <ele>28</ele>
        <time>2019-07-04T08:34:02Z</time>
      </trkpt>
      <trkpt lat="68.15368" lon="13.51232">
        <ele>24</ele>
        <time>2019-07-04T08:34:28Z</time>
      </trkpt>
      <trkpt lat="68.15644" lon="13.52093">
        <ele>22</ele>
        <time>2019-07-04T08:34:33Z</time>
      </trkpt>
      <trkpt lat="68.15676" lon="13.52368">
        <ele>20</ele>
        <time>2019-07-04T08:34:38Z</time>
      </trkpt>
      <trkpt lat="68.15671" lon="13.52618">
        <ele>18</ele>
        <time>2019-07-04T08:34:40Z</time>
      </trkpt>
      <trkpt lat="68.15603" lon="13.53">
        <ele>16</ele>
        <time>2019-07-04T08:34:45Z</time>
      </trkpt>
      <trkpt lat="68.15049" lon="13.54284">
        <ele>14</ele>
        <time>2019-07-04T08:35:04Z</time>
      </trkpt>
      <trkpt lat="68.14943" lon="13.54452">
        <ele>12</ele>
        <time>2019-07-04T08:35:17Z</time>
      </trkpt>
      <trkpt lat="68.1485" lon="13.54534">
        <ele>12</ele>
        <time>2019-07-04T08:35:26Z</time>
      </trkpt>
      <trkpt lat="68.14491" lon="13.54647">
        <ele>11</ele>
        <time>2019-07-04T08:35:30Z</time>
      </trkpt>
      <trkpt lat="68.14417" lon="13.54682">
        <ele>10</ele>
        <time>2019-07-04T08:35:37Z</time>
      </trkpt>
      <trkpt lat="68.14299" lon="13.54794">
        <ele>9</ele>
        <time>2019-07-04T08:35:55Z</time>
      </trkpt>
      <trkpt lat="68.13837" lon="13.55479">
        <ele>8</ele>
        <time>2019-07-04T08:36:00Z</time>
      </trkpt>
      <trkpt lat="68.13721" lon="13.55707">
        <ele>7</ele>
        <time>2019-07-04T08:36:05Z</time>
      </trkpt>
      <trkpt lat="68.13634" lon="13.56066">
        <ele>7</ele>
        <time>2019-07-04T08:36:09Z</time>
      </trkpt>
      <trkpt lat="68.13749" lon="13.5724">
        <ele>7</ele>
        <time>2019-07-04T08:36:18Z</time>
      </trkpt>
      <trkpt lat="68.14204" lon="13.58513">
        <ele>8</ele>
        <time>2019-07-04T08:36:33Z</time>
      </trkpt>
      <trkpt lat="68.14354" lon="13.59551">
        <ele>8</ele>
        <time>2019-07-04T08:36:47Z</time>
      </trkpt>
      <trkpt lat="68.14737" lon="13.61127">
        <ele>9</ele>
        <time>2019-07-04T08:36:58Z</time>
      </trkpt>
      <trkpt lat="68.14407" lon="13.62604">
        <ele>10</ele>
        <time>2019-07-04T08:37:02Z</time>
      </trkpt>
      <trkpt lat="68.14387" lon="13.62867">
        <ele>10</ele>
        <time>2019-07-04T08:37:13Z</time>
      </trkpt>
      <trkpt lat="68.14409" lon="13.6311">
        <ele>10</ele>
        <time>2019-07-04T08:37:46Z</time>
      </trkpt>
      <trkpt lat="68.14569" lon="13.63433">
        <ele>11</ele>
        <time>2019-07-04T08:37:54Z</time>
      </trkpt>
      <trkpt lat="68.14629" lon="13.63697">
        <ele>12</ele>
        <time>2019-07-04T08:38:10Z</time>
      </trkpt>
      <trkpt lat="68.1463" lon="13.63958">
        <ele>12</ele>
        <time>2019-07-04T08:38:28Z</time>
      </trkpt>
      <trkpt lat="68.14518" lon="13.6468">
        <ele>13</ele>
        <time>2019-07-04T08:38:47Z</time>
      </trkpt>
      <trkpt lat="68.14598" lon="13.65019">
        <ele>15</ele>
        <time>2019-07-04T08:39:51Z</time>
      </trkpt>
      <trkpt lat="68.14579" lon="13.65211">
        <ele>17</ele>
        <time>2019-07-04T08:40:05Z</time>
      </trkpt>
      <trkpt lat="68.14783" lon="13.65469">
        <ele>19</ele>
        <time>2019-07-04T08:40:11Z</time>
      </trkpt>
      <trkpt lat="68.14854" lon="13.65599">
        <ele>21</ele>
        <time>2019-07-04T08:40:21Z</time>
      </trkpt>
      <trkpt lat="68.14878" lon="13.65697">
        <ele>23</ele>
        <time>2019-07-04T08:40:30Z</time>
      </trkpt>
      <trkpt lat="68.14856" lon="13.66698">
        <ele>24</ele>
        <time>2019-07-04T08:40:47Z</time>
      </trkpt>
      <trkpt lat="68.14895" lon="13.6693">
        <ele>36</ele>
        <time>2019-07-04T08:40:56Z</time>
      </trkpt>
      <trkpt lat="68.15018" lon="13.67127">
        <ele>49</ele>
        <time>2019-07-04T08:41:04Z</time>
      </trkpt>
      <trkpt lat="68.15142" lon="13.67242">
        <ele>61</ele>
        <time>2019-07-04T08:41:27Z</time>
      </trkpt>
      <trkpt lat="68.15187" lon="13.67347">
        <ele>73</ele>
        <time>2019-07-04T08:41:42Z</time>
      </trkpt>
      <trkpt lat="68.15402" lon="13.68016">
        <ele>85</ele>
        <time>2019-07-04T08:42:06Z</time>
      </trkpt>
      <trkpt lat="68.15568" lon="13.68738">
        <ele>91</ele>
        <time>2019-07-04T08:42:19Z</time>
      </trkpt>
      <trkpt lat="68.15713" lon="13.69098">
        <ele>92</ele>
        <time>2019-07-04T08:42:29Z</time>
      </trkpt>
      <trkpt lat="68.15763" lon="13.69308">
        <ele>94</ele>
        <time>2019-07-04T08:42:33Z</time>
      </trkpt>
      <trkpt lat="68.15762" lon="13.69663">
        <ele>95</ele>
        <time>2019-07-04T08:43:17Z</time>
      </trkpt>
      <trkpt lat="68.15639" lon="13.70256">
        <ele>96</ele>
        <time>2019-07-04T08:43:31Z</time>
      </trkpt>
      <trkpt lat="68.15623" lon="13.70672">
        <ele>97</ele>
        <time>2019-07-04T08:43:35Z</time>
      </trkpt>
      <trkpt lat="68.15573" lon="13.70954">
        <ele>97</ele>
        <time>2019-07-04T08:43:40Z</time>
      </trkpt>
      <trkpt lat="68.15637" lon="13.71725">
        <ele>83</ele>
        <time>2019-07-04T08:43:47Z</time>
      </trkpt>
      <trkpt lat="68.15627" lon="13.72586">
        <ele>68</ele>
        <time>2019-07-04T08:43:51Z</time>
      </trkpt>
      <trkpt lat="68.15508" lon="13.73276">
        <ele>53</ele>
        <time>2019-07-04T08:44:17Z</time>
      </trkpt>
      <trkpt lat="68.15523" lon="13.73423">
        <ele>39</ele>
        <time>2019-07-04T08:44:30Z</time>
      </trkpt>
      <trkpt lat="68.15611" lon="13.73667">
        <ele>24</ele>
        <time>2019-07-04T08:45:21Z</time>
      </trkpt>
      <trkpt lat="68.15733" lon="13.74752">
        <ele>21</ele>
        <time>2019-07-04T08:45:33Z</time>
      </trkpt>
      <trkpt lat="68.15712" lon="13.75287">
        <ele>18</ele>
        <time>2019-07-04T08:45:39Z</time>
      </trkpt>
      <trkpt lat="68.15651" lon="13.75683">
        <ele>15</ele>
        <time>2019-07-04T08:45:49Z</time>
      </trkpt>
      <trkpt lat="68.15677" lon="13.76734">
        <ele>13</ele>
        <time>2019-07-04T08:45:52Z</time>
      </trkpt>
      <trkpt lat="68.15643" lon="13.77661">
        <ele>10</ele>
        <time>2019-07-04T08:45:57Z</time>
      </trkpt>
      <trkpt lat="68.156" lon="13.77974">
        <ele>7</ele>
        <time>2019-07-04T08:46:05Z</time>
      </trkpt>
      <trkpt lat="68.1577" lon="13.78193">
        <ele>7</ele>
        <time>2019-07-04T08:46:09Z</time>
      </trkpt>
      <trkpt lat="68.15818" lon="13.78355">
        <ele>9</ele>
        <time>2019-07-04T08:46:41Z</time>
      </trkpt>
      <trkpt lat="68.15844" lon="13.78362">
        <ele>12</ele>
        <time>2019-07-04T08:46:58Z</time>
      </trkpt>
      <trkpt lat="68.15886" lon="13.78326">
        <ele>14</ele>
        <time>2019-07-04T08:47:06Z</time>
      </trkpt>
      <trkpt lat="68.1592" lon="13.78218">
        <ele>16</ele>
        <time>2019-07-04T08:47:23Z</time>
      </trkpt>
      <trkpt lat="68.15994" lon="13.78151">
        <ele>19</ele>
        <time>2019-07-04T08:47:39Z</time>
      </trkpt>
      <trkpt lat="68.16147" lon="13.78227">
        <ele>16</ele>
        <time>2019-07-04T08:48:04Z</time>
      </trkpt>
      <trkpt lat="68.16221" lon="13.78346">
        <ele>14</ele>
        <time>2019-07-04T08:48:13Z</time>
      </trkpt>
      <trkpt lat="68.16318" lon="13.78717">
        <ele>12</ele>
        <time>2019-07-04T08:48:30Z</time>
      </trkpt>
      <trkpt lat="68.16407" lon="13.78764">
        <ele>9</ele>
        <time>2019-07-04T08:48:45Z</time>
      </trkpt>
      <trkpt lat="68.16426" lon="13.78821">
        <ele>7</ele>
        <time>2019-07-04T08:48:55Z</time>
      </trkpt>
      <trkpt lat="68.16491" lon="13.79764">
        <ele>5</ele>
        <time>2019-07-04T08:49:21Z</time>
      </trkpt>
      <trkpt lat="68.16648" lon="13.80273">
        <ele>6</ele>
        <time>2019-07-04T08:49:34Z</time>
      </trkpt>
      <trkpt lat="68.16679" lon="13.80477">
        <ele>7</ele>
        <time>2019-07-04T08:49:48Z</time>
      </trkpt>
      <trkpt lat="68.16752" lon="13.81751">
        <ele>8</ele>
        <time>2019-07-04T08:49:55Z</time>
      </trkpt>
      <trkpt lat="68.1675" lon="13.82171">
        <ele>9</ele>
        <time>2019-07-04T08:50:13Z</time>
      </trkpt>
      <trkpt lat="68.16719" lon="13.82501">
        <ele>10</ele>
        <time>2019-07-04T08:50:41Z</time>
      </trkpt>
      <trkpt lat="68.16727" lon="13.83335">
        <ele>10</ele>
        <time>2019-07-04T08:51:20Z</time>
      </trkpt>
      <trkpt lat="68.1683" lon="13.84265">
        <ele>9</ele>
        <time>2019-07-04T08:51:31Z</time>
      </trkpt>
      <trkpt lat="68.16884" lon="13.84392">
        <ele>8</ele>
        <time>2019-07-04T08:51:48Z</time>
      </trkpt>
      <trkpt lat="68.17071" lon="13.84573">
        <ele>8</ele>
        <time>2019-07-04T08:51:55Z</time>
      </trkpt>
      <trkpt lat="68.17176" lon="13.84613">
        <ele>7</ele>
        <time>2019-07-04T08:52:19Z</time>
      </trkpt>
      <trkpt lat="68.1724" lon="13.84753">
        <ele>6</ele>
        <time>2019-07-04T08:52:34Z</time>
      </trkpt>
      <trkpt lat="68.17351" lon="13.84871">
        <ele>6</ele>
        <time>2019-07-04T08:53:00Z</time>
      </trkpt>
      <trkpt lat="68.17579" lon="13.84917">
        <ele>7</ele>
        <time>2019-07-04T08:53:17Z</time>
      </trkpt>
      <trkpt lat="68.17627" lon="13.84906">
        <ele>8</ele>
        <time>2019-07-04T08:53:35Z</time>
      </trkpt>
      <trkpt lat="68.17668" lon="13.84945">
        <ele>8</ele>
        <time>2019-07-04T08:53:50Z</time>
      </trkpt>
      <trkpt lat="68.17764" lon="13.84945">
        <ele>9</ele>
        <time>2019-07-04T08:53:57Z</time>
      </trkpt>
      <trkpt lat="68.17927" lon="13.85008">
        <ele>10</ele>
        <time>2019-07-04T08:54:11Z</time>
      </trkpt>
      <trkpt lat="68.18055" lon="13.85256">
        <ele>11</ele>
        <time>2019-07-04T08:54:18Z</time>
      </trkpt>
      <trkpt lat="68.18193" lon="13.85291">
        <ele>9</ele>
        <time>2019-07-04T08:55:05Z</time>
      </trkpt>
      <trkpt lat="68.18244" lon="13.85326">
        <ele>8</ele>
        <time>2019-07-04T08:55:28Z</time>
      </trkpt>
      <trkpt lat="68.18295" lon="13.85667">
        <ele>6</ele>
        <time>2019-07-04T08:55:43Z</time>
      </trkpt>
      <trkpt lat="68.18421" lon="13.86027">
        <ele>5</ele>
        <time>2019-07-04T08:55:56Z</time>
      </trkpt>
      <trkpt lat="68.1849" lon="13.86056">
        <ele>4</ele>
        <time>2019-07-04T08:56:00Z</time>
      </trkpt>
      <trkpt lat="68.18561" lon="13.85936">
        <ele>7</ele>
        <time>2019-07-04T08:56:09Z</time>
      </trkpt>
      <trkpt lat="68.18626" lon="13.85879">
        <ele>10</ele>
        <time>2019-07-04T08:56:33Z</time>
      </trkpt>
      <trkpt lat="68.18726" lon="13.85908">
        <ele>14</ele>
        <time>2019-07-04T08:56:40Z</time>
      </trkpt>
      <trkpt lat="68.18989" lon="13.86069">
        <ele>17</ele>
        <time>2019-07-04T08:56:52Z</time>
      </trkpt>
      <trkpt lat="68.1914" lon="13.86348">
        <ele>20</ele>
        <time>2019-07-04T08:57:05Z</time>
      </trkpt>
      <trkpt lat="68.19227" lon="13.86648">
        <ele>23</ele>
        <time>2019-07-04T08:57:16Z</time>
      </trkpt>
      <trkpt lat="68.19292" lon="13.87274">
        <ele>24</ele>
        <time>2019-07-04T08:57:45Z</time>
      </trkpt>
      <trkpt lat="68.19336" lon="13.87391">
        <ele>24</ele>
        <time>2019-07-04T08:57:55Z</time>
      </trkpt>
      <trkpt lat="68.19417" lon="13.87501">
        <ele>24</ele>
        <time>2019-07-04T08:57:58Z</time>
      </trkpt>
      <trkpt lat="68.19468" lon="13.87511">
        <ele>25</ele>
        <time>2019-07-04T08:58:01Z</time>
      </trkpt>
      <trkpt lat="68.19514" lon="13.87564">
        <ele>25</ele>
        <time>2019-07-04T08:58:04Z</time>
      </trkpt>
      <trkpt lat="68.19586" lon="13.8778">
        <ele>25</ele>
        <time>2019-07-04T08:58:17Z</time>
      </trkpt>
      <trkpt lat="68.19628" lon="13.88096">
        <ele>22</ele>
        <time>2019-07-04T08:58:31Z</time>
      </trkpt>
      <trkpt lat="68.19674" lon="13.88241">
        <ele>20</ele>
        <time>2019-07-04T08:58:41Z</time>
      </trkpt>
      <trkpt lat="68.19904" lon="13.88463">
        <ele>17</ele>
        <time>2019-07-04T08:59:02Z</time>
      </trkpt>
      <trkpt lat="68.19987" lon="13.88515">
        <ele>14</ele>
        <time>2019-07-04T08:59:19Z</time>
      </trkpt>
      <trkpt lat="68.20024" lon="13.885">
        <ele>12</ele>
        <time>2019-07-04T08:59:35Z</time>
      </trkpt>
      <trkpt lat="68.20104" lon="13.88283">
        <ele>11</ele>
        <time>2019-07-04T08:59:44Z</time>
      </trkpt>
      <trkpt lat="68.20264" lon="13.88182">
        <ele>9</ele>
        <time>2019-07-04T08:59:51Z</time>
      </trkpt>
      <trkpt lat="68.20324" lon="13.88073">
        <ele>7</ele>
        <time>2019-07-04T09:00:06Z</time>
      </trkpt>
      <trkpt lat="68.20397" lon="13.88132">
        <ele>6</ele>
        <time>2019-07-04T09:00:22Z</time>
      </trkpt>
      <trkpt lat="68.20493" lon="13.88517">
        <ele>4</ele>
        <time>2019-07-04T09:00:44Z</time>
      </trkpt>
      <trkpt lat="68.20449" lon="13.88673">
        <ele>2</ele>
        <time>2019-07-04T09:00:51Z</time>
      </trkpt>
      <trkpt lat="68.20402" lon="13.88729">
        <ele>2</ele>
        <time>2019-07-04T09:01:06Z</time>
      </trkpt>
      <trkpt lat="68.20392" lon="13.88547">
        <ele>2</ele>
        <time>2019-07-04T09:01:13Z</time>
      </trkpt>
      <trkpt lat="68.20339" lon="13.88433">
        <ele>2</ele>
        <time>2019-07-04T09:01:18Z</time>
      </trkpt>
      <trkpt lat="68.20342" lon="13.88308">
        <ele>2</ele>
        <time>2019-07-04T09:01:42Z</time>
      </trkpt>
      <trkpt lat="68.20348" lon="13.88472">
        <ele>3</ele>
        <time>2019-07-04T09:01:49Z</time>
      </trkpt>
      <trkpt lat="68.20394" lon="13.88554">
        <ele>3</ele>
        <time>2019-07-04T09:02:04Z</time>
      </trkpt>
      <trkpt lat="68.20432" lon="13.88724">
        <ele>3</ele>
        <time>2019-07-04T09:02:20Z</time>
      </trkpt>
      <trkpt lat="68.20508" lon="13.88502">
        <ele>5</ele>
        <time>2019-07-04T09:02:36Z</time>
      </trkpt>
      <trkpt lat="68.20562" lon="13.88678">
        <ele>8</ele>
        <time>2019-07-04T09:03:05Z</time>
      </trkpt>
      <trkpt lat="68.20559" lon="13.88872">
        <ele>10</ele>
        <time>2019-07-04T09:03:23Z</time>
      </trkpt>
      <trkpt lat="68.20471" lon="13.89462">
        <ele>12</ele>
        <time>2019-07-04T09:03:41Z</time>
      </trkpt>
      <trkpt lat="68.20384" lon="13.89588">
        <ele>15</ele>
        <time>2019-07-04T09:03:57Z</time>
      </trkpt>
      <trkpt lat="68.20229" lon="13.89682">
        <ele>12</ele>
        <time>2019-07-04T09:04:05Z</time>
      </trkpt>
      <trkpt lat="68.20152" lon="13.89854">
        <ele>10</ele>
        <time>2019-07-04T09:04:23Z</time>
      </trkpt>
      <trkpt lat="68.20081" lon="13.89862">
        <ele>7</ele>
        <time>2019-07-04T09:04:38Z</time>
      </trkpt>
      <trkpt lat="68.20025" lon="13.89801">
        <ele>5</ele>
        <time>2019-07-04T09:04:44Z</time>
      </trkpt>
      <trkpt lat="68.19829" lon="13.89495">
        <ele>2</ele>
        <time>2019-07-04T09:04:56Z</time>
      </trkpt>
      <trkpt lat="68.19804" lon="13.89497">
        <ele>5.9</ele>
        <time>2019-07-04T09:05:14Z</time>
      </trkpt>
      <trkpt lat="68.19666" lon="13.89641">
        <ele>1</ele>
        <time>2019-07-04T09:05:44Z</time>
      </trkpt>
      <trkpt lat="68.19583" lon="13.89685">
        <ele>1</ele>
        <time>2019-07-04T09:05:52Z</time>
      </trkpt>
      <trkpt lat="68.19274" lon="13.89343">
        <ele>1</ele>
        <time>2019-07-04T09:06:01Z</time>
      </trkpt>
      <trkpt lat="68.19176" lon="13.89288">
        <ele>1</ele>
        <time>2019-07-04T09:06:13Z</time>
      </trkpt>
      <trkpt lat="68.18863" lon="13.89246">
        <ele>2</ele>
        <time>2019-07-04T09:06:25Z</time>
      </trkpt>
      <trkpt lat="68.1879" lon="13.89204">
        <ele>2</ele>
        <time>2019-07-04T09:06:45Z</time>
      </trkpt>
      <trkpt lat="68.18679" lon="13.89269">
        <ele>11</ele>
        <time>2019-07-04T09:06:49Z</time>
      </trkpt>
      <trkpt lat="68.18472" lon="13.89333">
        <ele>20</ele>
        <time>2019-07-04T09:06:55Z</time>
      </trkpt>
      <trkpt lat="68.18443" lon="13.89421">
        <ele>29</ele>
        <time>2019-07-04T09:07:00Z</time>
      </trkpt>
      <trkpt lat="68.18427" lon="13.89819">
        <ele>38</ele>
        <time>2019-07-04T09:07:02Z</time>
      </trkpt>
      <trkpt lat="68.18321" lon="13.90302">
        <ele>47</ele>
        <time>2019-07-04T09:07:10Z</time>
      </trkpt>
      <trkpt lat="68.18198" lon="13.91679">
        <ele>51</ele>
        <time>2019-07-04T09:07:24Z</time>
      </trkpt>
      <trkpt lat="68.18222" lon="13.91816">
        <ele>43</ele>
        <time>2019-07-04T09:07:37Z</time>
      </trkpt>
      <trkpt lat="68.18339" lon="13.92145">
        <ele>35</ele>
        <time>2019-07-04T09:07:52Z</time>
      </trkpt>
      <trkpt lat="68.18401" lon="13.92619">
        <ele>27</ele>
        <time>2019-07-04T09:08:08Z</time>
      </trkpt>
      <trkpt lat="68.18436" lon="13.92733">
        <ele>19</ele>
        <time>2019-07-04T09:08:27Z</time>
      </trkpt>
      <trkpt lat="68.18602" lon="13.92949">
        <ele>11</ele>
        <time>2019-07-04T09:08:39Z</time>
      </trkpt>
      <trkpt lat="68.18876" lon="13.93124">
        <ele>9</ele>
        <time>2019-07-04T09:08:59Z</time>
      </trkpt>
      <trkpt lat="68.19034" lon="13.9326">
        <ele>7</ele>
        <time>2019-07-04T09:09:07Z</time>
      </trkpt>
      <trkpt lat="68.19366" lon="13.93685">
        <ele>5</ele>
        <time>2019-07-04T09:09:22Z</time>
      </trkpt>
      <trkpt lat="68.19431" lon="13.93812">
        <ele>4</ele>
        <time>2019-07-04T09:09:51Z</time>
      </trkpt>
      <trkpt lat="68.19486" lon="13.93981">
        <ele>2</ele>
        <time>2019-07-04T09:09:59Z</time>
      </trkpt>
      <trkpt lat="68.19654" lon="13.94891">
        <ele>5.6</ele>
        <time>2019-07-04T09:10:07Z</time>
      </trkpt>
      <trkpt lat="68.19717" lon="13.95442">
        <ele>1.9</ele>
        <time>2019-07-04T09:10:26Z</time>
      </trkpt>
      <trkpt lat="68.19755" lon="13.96335">
        <ele>3</ele>
        <time>2019-07-04T09:10:42Z</time>
      </trkpt>
      <trkpt lat="68.19853" lon="13.9649">
        <ele>7</ele>
        <time>2019-07-04T09:11:09Z</time>
      </trkpt>
      <trkpt lat="68.19918" lon="13.96711">
        <ele>11</ele>
        <time>2019-07-04T09:11:24Z</time>
      </trkpt>
      <trkpt lat="68.20068" lon="13.96863">
        <ele>15</ele>
        <time>2019-07-04T09:11:39Z</time>
      </trkpt>
      <trkpt lat="68.20117" lon="13.97099">
        <ele>18</ele>
        <time>2019-07-04T09:11:51Z</time>
      </trkpt>
      <trkpt lat="68.20189" lon="13.98193">
        <ele>16</ele>
        <time>2019-07-04T09:12:02Z</time>
      </trkpt>
      <trkpt lat="68.20158" lon="13.99355">
        <ele>13</ele>
        <time>2019-07-04T09:12:24Z</time>
      </trkpt>
      <trkpt lat="68.20109" lon="13.99482">
        <ele>11</ele>
        <time>2019-07-04T09:12:31Z</time>
      </trkpt>
      <trkpt lat="68.20028" lon="13.99545">
        <ele>9</ele>
        <time>2019-07-04T09:12:44Z</time>
      </trkpt>
      <trkpt lat="68.19958" lon="13.99572">
        <ele>6</ele>
        <time>2019-07-04T09:12:55Z</time>
      </trkpt>
      <trkpt lat="68.1981" lon="13.99566">
        <ele>4</ele>
        <time>2019-07-04T09:12:59Z</time>
      </trkpt>
      <trkpt lat="68.19763" lon="13.99585">
        <ele>9</ele>
        <time>2019-07-04T09:13:18Z</time>
      </trkpt>
      <trkpt lat="68.19705" lon="13.99673">
        <ele>13</ele>
        <time>2019-07-04T09:13:30Z</time>
      </trkpt>
      <trkpt lat="68.19625" lon="13.99973">
        <ele>17</ele>
        <time>2019-07-04T09:13:35Z</time>
      </trkpt>
      <trkpt lat="68.195" lon="14.00154">
        <ele>22</ele>
        <time>2019-07-04T09:13:49Z</time>
      </trkpt>
      <trkpt lat="68.1937" lon="14.00405">
        <ele>26</ele>
        <time>2019-07-04T09:14:01Z</time>
      </trkpt>
      <trkpt lat="68.1925" lon="14.00702">
        <ele>28</ele>
        <time>2019-07-04T09:14:15Z</time>
      </trkpt>
      <trkpt lat="68.19111" lon="14.01315">
        <ele>32</ele>
        <time>2019-07-04T09:14:27Z</time>
      </trkpt>
      <trkpt lat="68.19098" lon="14.01644">
        <ele>35</ele>
        <time>2019-07-04T09:14:41Z</time>
      </trkpt>
      <trkpt lat="68.1913" lon="14.01865">
        <ele>38</ele>
        <time>2019-07-04T09:15:00Z</time>
      </trkpt>
      <trkpt lat="68.19188" lon="14.02153">
        <ele>42</ele>
        <time>2019-07-04T09:15:13Z</time>
      </trkpt>
      <trkpt lat="68.19298" lon="14.02498">
        <ele>45</ele>
        <time>2019-07-04T09:15:31Z</time>
      </trkpt>
      <trkpt lat="68.19372" lon="14.02622">
        <ele>46</ele>
        <time>2019-07-04T09:15:40Z</time>
      </trkpt>
      <trkpt lat="68.19507" lon="14.02989">
        <ele>39</ele>
        <time>2019-07-04T09:15:51Z</time>
      </trkpt>
      <trkpt lat="68.19549" lon="14.03567">
        <ele>33</ele>
        <time>2019-07-04T09:16:00Z</time>
      </trkpt>
      <trkpt lat="68.19585" lon="14.03605">
        <ele>26</ele>
        <time>2019-07-04T09:16:17Z</time>
      </trkpt>
      <trkpt lat="68.19835" lon="14.0363">
        <ele>19</ele>
        <time>2019-07-04T09:16:50Z</time>
      </trkpt>
      <trkpt lat="68.20126" lon="14.0359">
        <ele>13</ele>
        <time>2019-07-04T09:17:08Z</time>
      </trkpt>
      <trkpt lat="68.20214" lon="14.03588">
        <ele>11</ele>
        <time>2019-07-04T09:17:16Z</time>
      </trkpt>
      <trkpt lat="68.20242" lon="14.03609">
        <ele>11</ele>
        <time>2019-07-04T09:17:34Z</time>
      </trkpt>
      <trkpt lat="68.20582" lon="14.04076">
        <ele>11</ele>
        <time>2019-07-04T09:17:43Z</time>
      </trkpt>
      <trkpt lat="68.20616" lon="14.04162">
        <ele>11</ele>
        <time>2019-07-04T09:18:13Z</time>
      </trkpt>
      <trkpt lat="68.20907" lon="14.05373">
        <ele>11</ele>
        <time>2019-07-04T09:18:27Z</time>
      </trkpt>
      <trkpt lat="68.20953" lon="14.0543">
        <ele>11</ele>
        <time>2019-07-04T09:18:39Z</time>
      </trkpt>
      <trkpt lat="68.21037" lon="14.05474">
        <ele>11</ele>
        <time>2019-07-04T09:18:48Z</time>
      </trkpt>
      <trkpt lat="68.2142" lon="14.05514">
        <ele>11</ele>
        <time>2019-07-04T09:20:30Z</time>
      </trkpt>
      <trkpt lat="68.21502" lon="14.05547">
        <ele>12</ele>
        <time>2019-07-04T09:20:42Z</time>
      </trkpt>
      <trkpt lat="68.2156" lon="14.05601">
        <ele>12</ele>
        <time>2019-07-04T09:21:02Z</time>
      </trkpt>
      <trkpt lat="68.21657" lon="14.05802">
        <ele>13</ele>
        <time>2019-07-04T09:21:15Z</time>
      </trkpt>
      <trkpt lat="68.21845" lon="14.06437">
        <ele>13</ele>
        <time>2019-07-04T09:21:24Z</time>
      </trkpt>
      <trkpt lat="68.22222" lon="14.07192">
        <ele>14</ele>
        <time>2019-07-04T09:21:33Z</time>
      </trkpt>
      <trkpt lat="68.2252" lon="14.0755">
        <ele>14</ele>
        <time>2019-07-04T09:21:51Z</time>
      </trkpt>
      <trkpt lat="68.2271" lon="14.07676">
        <ele>15</ele>
        <time>2019-07-04T09:21:59Z</time>
      </trkpt>
      <trkpt lat="68.22802" lon="14.07872">
        <ele>16</ele>
        <time>2019-07-04T09:22:18Z</time>
      </trkpt>
      <trkpt lat="68.23038" lon="14.0846">
        <ele>16</ele>
        <time>2019-07-04T09:22:37Z</time>
      </trkpt>
      <trkpt lat="68.23384" lon="14.11214">
        <ele>17</ele>
        <time>2019-07-04T09:22:48Z</time>
      </trkpt>
      <trkpt lat="68.2352" lon="14.11472">
        <ele>18</ele>
        <time>2019-07-04T09:23:10Z</time>
      </trkpt>
      <trkpt lat="68.23669" lon="14.11521">
        <ele>20</ele>
        <time>2019-07-04T09:23:25Z</time>
      </trkpt>
      <trkpt lat="68.23751" lon="14.11575">
        <ele>21</ele>
        <time>2019-07-04T09:23:32Z</time>
      </trkpt>
      <trkpt lat="68.24141" lon="14.11907">
        <ele>22</ele>
        <time>2019-07-04T09:23:38Z</time>
      </trkpt>
      <trkpt lat="68.24285" lon="14.12215">
        <ele>24</ele>
        <time>2019-07-04T09:23:50Z</time>
      </trkpt>
      <trkpt lat="68.24685" lon="14.13467">
        <ele>24</ele>
        <time>2019-07-04T09:24:01Z</time>
      </trkpt>
      <trkpt lat="68.24716" lon="14.14022">
        <ele>22</ele>
        <time>2019-07-04T09:24:08Z</time>
      </trkpt>
      <trkpt lat="68.247" lon="14.14372">
        <ele>19</ele>
        <time>2019-07-04T09:24:22Z</time>
      </trkpt>
      <trkpt lat="68.24745" lon="14.14647">
        <ele>16</ele>
        <time>2019-07-04T09:24:32Z</time>
      </trkpt>
      <trkpt lat="68.24922" lon="14.15153">
        <ele>13</ele>
        <time>2019-07-04T09:24:45Z</time>
      </trkpt>
      <trkpt lat="68.25218" lon="14.15542">
        <ele>11</ele>
        <time>2019-07-04T09:25:06Z</time>
      </trkpt>
      <trkpt lat="68.25276" lon="14.15539">
        <ele>10</ele>
        <time>2019-07-04T09:25:14Z</time>
      </trkpt>
      <trkpt lat="68.25315" lon="14.15565">
        <ele>11</ele>
        <time>2019-07-04T09:25:19Z</time>
      </trkpt>
      <trkpt lat="68.25421" lon="14.1592">
        <ele>12</ele>
        <time>2019-07-04T09:25:28Z</time>
      </trkpt>
      <trkpt lat="68.25649" lon="14.16224">
        <ele>13</ele>
        <time>2019-07-04T09:25:40Z</time>
      </trkpt>
      <trkpt lat="68.25866" lon="14.16398">
        <ele>14</ele>
        <time>2019-07-04T09:26:12Z</time>
      </trkpt>
      <trkpt lat="68.2597" lon="14.16404">
        <ele>15</ele>
        <time>2019-07-04T09:26:23Z</time>
      </trkpt>
      <trkpt lat="68.26159" lon="14.16337">
        <ele>15</ele>
        <time>2019-07-04T09:26:30Z</time>
      </trkpt>
      <trkpt lat="68.26336" lon="14.16102">
        <ele>12</ele>
        <time>2019-07-04T09:26:33Z</time>
      </trkpt>
      <trkpt lat="68.26512" lon="14.15791">
        <ele>9</ele>
        <time>2019-07-04T09:26:40Z</time>
      </trkpt>
      <trkpt lat="68.26601" lon="14.15696">
        <ele>6</ele>
        <time>2019-07-04T09:26:52Z</time>
      </trkpt>
      <trkpt lat="68.26699" lon="14.15377">
        <ele>3</ele>
        <time>2019-07-04T09:26:56Z</time>
      </trkpt>
      <trkpt lat="68.26846" lon="14.15132">
        <ele>9.5</ele>
        <time>2019-07-04T09:27:00Z</time>
      </trkpt>
      <trkpt lat="68.26821" lon="14.15459">
        <time>2019-07-04T09:27:05Z</time>
      </trkpt>
      <trkpt lat="68.26821" lon="14.15967">
        <ele>5.1</ele>
        <time>2019-07-04T09:27:16Z</time>
      </trkpt>
      <trkpt lat="68.26845" lon="14.16001">
        <ele>5.3</ele>
        <time>2019-07-04T09:27:40Z</time>
      </trkpt>
      <trkpt lat="68.26714" lon="14.16874">
        <ele>5.2</ele>
        <time>2019-07-04T09:27:48Z</time>
      </trkpt>
      <trkpt lat="68.26778" lon="14.16559">
        <ele>5.1</ele>
        <time>2019-07-04T09:27:55Z</time>
      </trkpt>
      <trkpt lat="68.26844" lon="14.16001">
        <ele>1</ele>
        <time>2019-07-04T09:28:05Z</time>
      </trkpt>
      <trkpt lat="68.27116" lon="14.16664">
        <ele>4</ele>
        <time>2019-07-04T09:28:14Z</time>
      </trkpt>
      <trkpt lat="68.2723" lon="14.16732">
        <ele>8</ele>
        <time>2019-07-04T09:28:41Z</time>
      </trkpt>
      <trkpt lat="68.27862" lon="14.16058">
        <ele>12</ele>
        <time>2019-07-04T09:28:58Z</time>
      </trkpt>
      <trkpt lat="68.28318" lon="14.15913">
        <ele>15</ele>
        <time>2019-07-04T09:29:06Z</time>
      </trkpt>
      <trkpt lat="68.28402" lon="14.15907">
        <ele>19</ele>
        <time>2019-07-04T09:29:13Z</time>
      </trkpt>
      <trkpt lat="68.29001" lon="14.16599">
        <ele>21</ele>
        <time>2019-07-04T09:29:17Z</time>
      </trkpt>
      <trkpt lat="68.29219" lon="14.16765">
        <ele>22</ele>
        <time>2019-07-04T09:29:30Z</time>
      </trkpt>
      <trkpt lat="68.29413" lon="14.16803">
        <ele>24</ele>
        <time>2019-07-04T09:29:36Z</time>
      </trkpt>
      <trkpt lat="68.30026" lon="14.16786">
        <ele>25</ele>
        <time>2019-07-04T09:29:49Z</time>
      </trkpt>
      <trkpt lat="68.3023" lon="14.16804">
        <ele>26</ele>
        <time>2019-07-04T09:29:59Z</time>
      </trkpt>
      <trkpt lat="68.30488" lon="14.16915">
        <ele>27</ele>
        <time>2019-07-04T09:30:08Z</time>
      </trkpt>
      <trkpt lat="68.31001" lon="14.1728">
        <ele>27</ele>
        <time>2019-07-04T09:30:27Z</time>
      </trkpt>
      <trkpt lat="68.30912" lon="14.14107">
        <ele>28</ele>
        <time>2019-07-04T09:30:37Z</time>
      </trkpt>
      <trkpt lat="68.30423" lon="14.10401">
        <ele>28</ele>
        <time>2019-07-04T09:30:58Z</time>
      </trkpt>
      <trkpt lat="68.30405" lon="14.10169">
        <ele>28</ele>
        <time>2019-07-04T09:31:10Z</time>
      </trkpt>
      <trkpt lat="68.30426" lon="14.10013">
        <ele>28</ele>
        <time>2019-07-04T09:31:15Z</time>
      </trkpt>
      <trkpt lat="68.30481" lon="14.09911">
        <ele>28</ele>
        <time>2019-07-04T09:31:56Z</time>
      </trkpt>
      <trkpt lat="68.31002" lon="14.09662">
        <ele>29</ele>
        <time>2019-07-04T09:32:00Z</time>
      </trkpt>
      <trkpt lat="68.31547" lon="14.09175">
        <ele>25</ele>
        <time>2019-07-04T09:32:10Z</time>
      </trkpt>
      <trkpt lat="68.31625" lon="14.09175">
        <ele>21</ele>
        <time>2019-07-04T09:32:14Z</time>
      </trkpt>
      <trkpt lat="68.31663" lon="14.09204">
        <ele>18</ele>
        <time>2019-07-04T09:32:21Z</time>
      </trkpt>
      <trkpt lat="68.31779" lon="14.09435">
        <ele>14</ele>
        <time>2019-07-04T09:32:57Z</time>
      </trkpt>
      <trkpt lat="68.31938" lon="14.10142">
        <ele>11</ele>
        <time>2019-07-04T09:33:13Z</time>
      </trkpt>
      <trkpt lat="68.32046" lon="14.10453">
        <ele>10</ele>
        <time>2019-07-04T09:33:25Z</time>
      </trkpt>
      <trkpt lat="68.32264" lon="14.10813">
        <ele>12</ele>
        <time>2019-07-04T09:33:33Z</time>
      </trkpt>
      <trkpt lat="68.32341" lon="14.10866">
        <ele>15</ele>
        <time>2019-07-04T09:33:41Z</time>
      </trkpt>
      <trkpt lat="68.32404" lon="14.10806">
        <ele>17</ele>
        <time>2019-07-04T09:34:11Z</time>
      </trkpt>
      <trkpt lat="68.32449" lon="14.10713">
        <ele>19</ele>
        <time>2019-07-04T09:34:21Z</time>
      </trkpt>
      <trkpt lat="68.32552" lon="14.1045">
        <ele>21</ele>
        <time>2019-07-04T09:34:37Z</time>
      </trkpt>
      <trkpt lat="68.32772" lon="14.09726">
        <ele>20</ele>
        <time>2019-07-04T09:34:50Z</time>
      </trkpt>
      <trkpt lat="68.33055" lon="14.09148">
        <ele>19</ele>
        <time>2019-07-04T09:35:04Z</time>
      </trkpt>
      <trkpt lat="68.33103" lon="14.08989">
        <ele>18</ele>
        <time>2019-07-04T09:36:28Z</time>
      </trkpt>
      <trkpt lat="68.33205" lon="14.08889">
        <ele>17</ele>
        <time>2019-07-04T09:36:47Z</time>
      </trkpt>
      <trkpt lat="68.33411" lon="14.08845">
        <ele>16</ele>
        <time>2019-07-04T09:36:54Z</time>
      </trkpt>
      <trkpt lat="68.33523" lon="14.08905">
        <ele>15</ele>
        <time>2019-07-04T09:36:57Z</time>
      </trkpt>
      <trkpt lat="68.33556" lon="14.08949">
        <ele>13</ele>
        <time>2019-07-04T09:48:00Z</time>
      </trkpt>
      <trkpt lat="68.33475" lon="14.09779">
        <ele>10</ele>
        <time>2019-07-04T09:48:23Z</time>
      </trkpt>
      <trkpt lat="68.33555" lon="14.10152">
        <ele>8</ele>
        <time>2019-07-04T09:48:42Z</time>
      </trkpt>
      <trkpt lat="68.3377" lon="14.10662">
        <ele>6</ele>
        <time>2019-07-04T09:49:00Z</time>
      </trkpt>
      <trkpt lat="68.33889" lon="14.11067">
        <ele>3</ele>
        <time>2019-07-04T09:49:14Z</time>
      </trkpt>
      <trkpt lat="68.33981" lon="14.11282">
        <ele>2</ele>
        <time>2019-07-04T09:49:20Z</time>
      </trkpt>
      <trkpt lat="68.34016" lon="14.11752">
        <ele>3</ele>
        <time>2019-07-04T09:49:33Z</time>
      </trkpt>
      <trkpt lat="68.34028" lon="14.12558">
        <ele>4</ele>
        <time>2019-07-04T09:49:40Z</time>
      </trkpt>
      <trkpt lat="68.34156" lon="14.13488">
        <ele>5</ele>
        <time>2019-07-04T09:49:52Z</time>
      </trkpt>
      <trkpt lat="68.34143" lon="14.13674">
        <ele>6</ele>
        <time>2019-07-04T09:50:00Z</time>
      </trkpt>
      <trkpt lat="68.3406" lon="14.13976">
        <ele>8</ele>
        <time>2019-07-04T09:50:19Z</time>
      </trkpt>
      <trkpt lat="68.33851" lon="14.14597">
        <ele>8</ele>
        <time>2019-07-04T09:50:45Z</time>
      </trkpt>
      <trkpt lat="68.33649" lon="14.16206">
        <ele>7</ele>
        <time>2019-07-04T09:50:57Z</time>
      </trkpt>
      <trkpt lat="68.3363" lon="14.16276">
        <ele>5</ele>
        <time>2019-07-04T09:51:12Z</time>
      </trkpt>
      <trkpt lat="68.33044" lon="14.17192">
        <ele>4</ele>
        <time>2019-07-04T09:51:25Z</time>
      </trkpt>
      <trkpt lat="68.32939" lon="14.1742">
        <ele>2</ele>
        <time>2019-07-04T09:51:28Z</time>
      </trkpt>
      <trkpt lat="68.32406" lon="14.1979">
        <ele>1</ele>
        <time>2019-07-04T09:51:54Z</time>
      </trkpt>
      <trkpt lat="68.32244" lon="14.20231">
        <ele>1</ele>
        <time>2019-07-04T09:52:01Z</time>
      </trkpt>
      <trkpt lat="68.32211" lon="14.2017">
        <ele>6</ele>
        <time>2019-07-04T09:52:07Z</time>
      </trkpt>
      <trkpt lat="68.32236" lon="14.20276">
        <ele>12</ele>
        <time>2019-07-04T09:52:15Z</time>
      </trkpt>
      <trkpt lat="68.32191" lon="14.20816">
        <ele>18</ele>
        <time>2019-07-04T09:52:29Z</time>
      </trkpt>
      <trkpt lat="68.32168" lon="14.22216">
        <ele>24</ele>
        <time>2019-07-04T09:53:07Z</time>
      </trkpt>
      <trkpt lat="68.32047" lon="14.23095">
        <ele>29</ele>
        <time>2019-07-04T09:53:25Z</time>
      </trkpt>
      <trkpt lat="68.31795" lon="14.24068">
        <ele>30</ele>
        <time>2019-07-04T09:53:41Z</time>
      </trkpt>
      <trkpt lat="68.31638" lon="14.24438">
        <ele>31</ele>
        <time>2019-07-04T09:53:58Z</time>
      </trkpt>
      <trkpt lat="68.31527" lon="14.24602">
        <ele>32</ele>
        <time>2019-07-04T09:54:19Z</time>
      </trkpt>
      <trkpt lat="68.31271" lon="14.24748">
        <ele>32</ele>
        <time>2019-07-04T09:54:57Z</time>
      </trkpt>
      <trkpt lat="68.31159" lon="14.2496">
        <ele>33</ele>
        <time>2019-07-04T09:55:07Z</time>
      </trkpt>
      <trkpt lat="68.31028" lon="14.24993">
        <ele>34</ele>
        <time>2019-07-04T09:55:19Z</time>
      </trkpt>
      <trkpt lat="68.30923" lon="14.25149">
        <ele>35</ele>
        <time>2019-07-04T09:55:42Z</time>
      </trkpt>
      <trkpt lat="68.30863" lon="14.2519">
        <ele>35</ele>
        <time>2019-07-04T09:56:01Z</time>
      </trkpt>
      <trkpt lat="68.30772" lon="14.25203">
        <ele>36</ele>
        <time>2019-07-04T09:56:28Z</time>
      </trkpt>
      <trkpt lat="68.30505" lon="14.25464">
        <ele>37</ele>
        <time>2019-07-04T09:56:41Z</time>
      </trkpt>
      <trkpt lat="68.30372" lon="14.2574">
        <ele>38</ele>
        <time>2019-07-04T09:56:53Z</time>
      </trkpt>
      <trkpt lat="68.30263" lon="14.26042">
        <ele>38</ele>
        <time>2019-07-04T09:57:07Z</time>
      </trkpt>
      <trkpt lat="68.29996" lon="14.26555">
        <ele>33</ele>
        <time>2019-07-04T09:57:13Z</time>
      </trkpt>
      <trkpt lat="68.29875" lon="14.26636">
        <ele>29</ele>
        <time>2019-07-04T09:57:50Z</time>
      </trkpt>
      <trkpt lat="68.2968" lon="14.2671">
        <ele>24</ele>
        <time>2019-07-04T09:58:05Z</time>
      </trkpt>
      <trkpt lat="68.29522" lon="14.2671">
        <ele>19</ele>
        <time>2019-07-04T09:58:22Z</time>
      </trkpt>
      <trkpt lat="68.29364" lon="14.26568">
        <ele>14</ele>
        <time>2019-07-04T09:58:40Z</time>
      </trkpt>
      <trkpt lat="68.29257" lon="14.26509">
        <ele>11</ele>
        <time>2019-07-04T09:58:50Z</time>
      </trkpt>
      <trkpt lat="68.29003" lon="14.26601">
        <ele>10</ele>
        <time>2019-07-04T09:59:19Z</time>
      </trkpt>
      <trkpt lat="68.28726" lon="14.2657">
        <ele>10</ele>
        <time>2019-07-04T09:59:30Z</time>
      </trkpt>
      <trkpt lat="68.28537" lon="14.26353">
        <ele>9</ele>
        <time>2019-07-04T09:59:42Z</time>
      </trkpt>
      <trkpt lat="68.28453" lon="14.26549">
        <ele>8</ele>
        <time>2019-07-04T09:59:56Z</time>
      </trkpt>
      <trkpt lat="68.28376" lon="14.26651">
        <ele>8</ele>
        <time>2019-07-04T10:00:03Z</time>
      </trkpt>
      <trkpt lat="68.28296" lon="14.26648">
        <ele>7</ele>
        <time>2019-07-04T10:00:12Z</time>
      </trkpt>
      <trkpt lat="68.28236" lon="14.26574">
        <ele>10</ele>
        <time>2019-07-04T10:00:14Z</time>
      </trkpt>
      <trkpt lat="68.28151" lon="14.26323">
        <ele>12</ele>
        <time>2019-07-04T10:00:25Z</time>
      </trkpt>
      <trkpt lat="68.27881" lon="14.25957">
        <ele>14</ele>
        <time>2019-07-04T10:00:29Z</time>
      </trkpt>
      <trkpt lat="68.27608" lon="14.25501">
        <ele>17</ele>
        <time>2019-07-04T10:00:35Z</time>
      </trkpt>
      <trkpt lat="68.27308" lon="14.25168">
        <ele>19</ele>
        <time>2019-07-04T10:00:48Z</time>
      </trkpt>
      <trkpt lat="68.26913" lon="14.24955">
        <ele>20</ele>
        <time>2019-07-04T10:06:23Z</time>
      </trkpt>
      <trkpt lat="68.26634" lon="14.24736">
        <ele>25</ele>
        <time>2019-07-04T10:06:32Z</time>
      </trkpt>
      <trkpt lat="68.26302" lon="14.24284">
        <ele>31</ele>
        <time>2019-07-04T10:06:51Z</time>
      </trkpt>
      <trkpt lat="68.26258" lon="14.24083">
        <ele>36</ele>
        <time>2019-07-04T10:06:59Z</time>
      </trkpt>
      <trkpt lat="68.26198" lon="14.2396">
        <ele>42</ele>
        <time>2019-07-04T10:07:20Z</time>
      </trkpt>
      <trkpt lat="68.26238" lon="14.23993">
        <ele>47</ele>
        <time>2019-07-04T10:07:28Z</time>
      </trkpt>
      <trkpt lat="68.26299" lon="14.24156">
        <ele>48</ele>
        <time>2019-07-04T10:07:34Z</time>
      </trkpt>
      <trkpt lat="68.26324" lon="14.24482">
        <ele>43</ele>
        <time>2019-07-04T10:07:45Z</time>
      </trkpt>
      <trkpt lat="68.2606" lon="14.27201">
        <ele>38</ele>
        <time>2019-07-04T10:07:52Z</time>
      </trkpt>
      <trkpt lat="68.26015" lon="14.27407">
        <ele>33</ele>
        <time>2019-07-04T10:08:17Z</time>
      </trkpt>
      <trkpt lat="68.25926" lon="14.27538">
        <ele>29</ele>
        <time>2019-07-04T10:08:28Z</time>
      </trkpt>
      <trkpt lat="68.25889" lon="14.27545">
        <ele>24</ele>
        <time>2019-07-04T10:08:42Z</time>
      </trkpt>
      <trkpt lat="68.25673" lon="14.27474">
        <ele>21</ele>
        <time>2019-07-04T10:08:50Z</time>
      </trkpt>
      <trkpt lat="68.25322" lon="14.27531">
        <ele>17</ele>
        <time>2019-07-04T10:09:08Z</time>
      </trkpt>
      <trkpt lat="68.25253" lon="14.27566">
        <ele>13</ele>
        <time>2019-07-04T10:09:37Z</time>
      </trkpt>
      <trkpt lat="68.25031" lon="14.27953">
        <ele>10</ele>
        <time>2019-07-04T10:10:00Z</time>
      </trkpt>
      <trkpt lat="68.24889" lon="14.28062">
        <ele>6</ele>
        <time>2019-07-04T10:10:23Z</time>
      </trkpt>
      <trkpt lat="68.24279" lon="14.28134">
        <ele>4</ele>
        <time>2019-07-04T10:10:38Z</time>
      </trkpt>
      <trkpt lat="68.24095" lon="14.28135">
        <ele>4</ele>
        <time>2019-07-04T10:10:53Z</time>
      </trkpt>
      <trkpt lat="68.24041" lon="14.2803">
        <ele>4</ele>
        <time>2019-07-04T10:11:08Z</time>
      </trkpt>
      <trkpt lat="68.24019" lon="14.27856">
        <ele>5</ele>
        <time>2019-07-04T10:11:16Z</time>
      </trkpt>
      <trkpt lat="68.24063" lon="14.26985">
        <ele>5</ele>
        <time>2019-07-04T10:11:38Z</time>
      </trkpt>
      <trkpt lat="68.24052" lon="14.26415">
        <ele>5</ele>
        <time>2019-07-04T10:11:58Z</time>
      </trkpt>
      <trkpt lat="68.23969" lon="14.25895">
        <ele>5</ele>
        <time>2019-07-04T10:12:13Z</time>
      </trkpt>
      <trkpt lat="68.23908" lon="14.25245">
        <ele>6</ele>
        <time>2019-07-04T10:12:31Z</time>
      </trkpt>
      <trkpt lat="68.22915" lon="14.22439">
        <ele>7</ele>
        <time>2019-07-04T10:12:37Z</time>
      </trkpt>
      <trkpt lat="68.22676" lon="14.2212">
        <ele>7</ele>
        <time>2019-07-04T10:13:54Z</time>
      </trkpt>
      <trkpt lat="68.22235" lon="14.21707">
        <ele>8</ele>
        <time>2019-07-04T10:14:01Z</time>
      </trkpt>
      <trkpt lat="68.22053" lon="14.21566">
        <ele>8</ele>
        <time>2019-07-04T10:14:54Z</time>
      </trkpt>
      <trkpt lat="68.21961" lon="14.21511">
        <ele>8</ele>
        <time>2019-07-04T10:15:11Z</time>
      </trkpt>
      <trkpt lat="68.21584" lon="14.21441">
        <ele>8</ele>
        <time>2019-07-04T10:15:18Z</time>
      </trkpt>
      <trkpt lat="68.21406" lon="14.2163">
        <ele>8</ele>
        <time>2019-07-04T10:15:30Z</time>
      </trkpt>
      <trkpt lat="68.21136" lon="14.2221">
        <ele>7</ele>
        <time>2019-07-04T10:15:40Z</time>
      </trkpt>
      <trkpt lat="68.21063" lon="14.22237">
        <ele>7</ele>
        <time>2019-07-04T10:15:51Z</time>
      </trkpt>
      <trkpt lat="68.20901" lon="14.2212">
        <ele>6</ele>
        <time>2019-07-04T10:16:18Z</time>
      </trkpt>
      <trkpt lat="68.20843" lon="14.22122">
        <ele>6</ele>
        <time>2019-07-04T10:16:25Z</time>
      </trkpt>
      <trkpt lat="68.20671" lon="14.22207">
        <ele>15</ele>
        <time>2019-07-04T10:16:32Z</time>
      </trkpt>
      <trkpt lat="68.20632" lon="14.22267">
        <ele>24</ele>
        <time>2019-07-04T10:16:43Z</time>
      </trkpt>
      <trkpt lat="68.20605" lon="14.22394">
        <ele>33</ele>
        <time>2019-07-04T10:16:58Z</time>
      </trkpt>
      <trkpt lat="68.20594" lon="14.23711">
        <ele>41</ele>
        <time>2019-07-04T10:17:13Z</time>
      </trkpt>
      <trkpt lat="68.2066" lon="14.24557">
        <ele>50</ele>
        <time>2019-07-04T10:17:20Z</time>
      </trkpt>
      <trkpt lat="68.20784" lon="14.25401">
        <ele>51</ele>
        <time>2019-07-04T10:17:38Z</time>
      </trkpt>
      <trkpt lat="68.20843" lon="14.26566">
        <ele>43</ele>
        <time>2019-07-04T10:17:55Z</time>
      </trkpt>
      <trkpt lat="68.20665" lon="14.28076">
        <ele>36</ele>
        <time>2019-07-04T10:18:13Z</time>
      </trkpt>
      <trkpt lat="68.20667" lon="14.28232">
        <ele>28</ele>
        <time>2019-07-04T10:18:41Z</time>
      </trkpt>
      <trkpt lat="68.2069" lon="14.28388">
        <ele>20</ele>
        <time>2019-07-04T10:18:56Z</time>
      </trkpt>
      <trkpt lat="68.21425" lon="14.31108">
        <ele>14</ele>
        <time>2019-07-04T10:19:10Z</time>
      </trkpt>
      <trkpt lat="68.21512" lon="14.31753">
        <ele>12</ele>
        <time>2019-07-04T10:19:31Z</time>
      </trkpt>
      <trkpt lat="68.21482" lon="14.32387">
        <ele>11</ele>
        <time>2019-07-04T10:19:35Z</time>
      </trkpt>
      <trkpt lat="68.2113" lon="14.35496">
        <ele>9</ele>
        <time>2019-07-04T10:19:52Z</time>
      </trkpt>
      <trkpt lat="68.21316" lon="14.39239">
        <ele>8</ele>
        <time>2019-07-04T10:19:55Z</time>
      </trkpt>
      <trkpt lat="68.21483" lon="14.40291">
        <ele>7</ele>
        <time>2019-07-04T10:19:59Z</time>
      </trkpt>
      <trkpt lat="68.21456" lon="14.40607">
        <ele>5</ele>
        <time>2019-07-04T10:20:04Z</time>
      </trkpt>
      <trkpt lat="68.21341" lon="14.41088">
        <ele>6</ele>
        <time>2019-07-04T10:20:24Z</time>
      </trkpt>
      <trkpt lat="68.21287" lon="14.4166">
        <ele>7</ele>
        <time>2019-07-04T10:20:57Z</time>
      </trkpt>
      <trkpt lat="68.21504" lon="14.43413">
        <ele>8</ele>
        <time>2019-07-04T10:21:06Z</time>
      </trkpt>
      <trkpt lat="68.21518" lon="14.43708">
        <ele>9</ele>
        <time>2019-07-04T10:21:22Z</time>
      </trkpt>
      <trkpt lat="68.21483" lon="14.43966">
        <ele>10</ele>
        <time>2019-07-04T10:21:38Z</time>
      </trkpt>
      <trkpt lat="68.21367" lon="14.44481">
        <ele>11</ele>
        <time>2019-07-04T10:21:43Z</time>
      </trkpt>
      <trkpt lat="68.21418" lon="14.4481">
        <ele>13</ele>
        <time>2019-07-04T10:22:14Z</time>
      </trkpt>
      <trkpt lat="68.2134" lon="14.45508">
        <ele>14</ele>
        <time>2019-07-04T10:22:20Z</time>
      </trkpt>
      <trkpt lat="68.21349" lon="14.46336">
        <ele>16</ele>
        <time>2019-07-04T10:22:33Z</time>
      </trkpt>
      <trkpt lat="68.21318" lon="14.46467">
        <ele>18</ele>
        <time>2019-07-04T10:22:48Z</time>
      </trkpt>
      <trkpt lat="68.21246" lon="14.46482">
        <ele>20</ele>
        <time>2019-07-04T10:22:57Z</time>
      </trkpt>
      <trkpt lat="68.21231" lon="14.46514">
        <ele>21</ele>
        <time>2019-07-04T10:23:17Z</time>
      </trkpt>
      <trkpt lat="68.21187" lon="14.47718">
        <ele>18</ele>
        <time>2019-07-04T10:23:34Z</time>
      </trkpt>
      <trkpt lat="68.21338" lon="14.48208">
        <ele>15</ele>
        <time>2019-07-04T10:23:52Z</time>
      </trkpt>
      <trkpt lat="68.21363" lon="14.48243">
        <ele>12</ele>
        <time>2019-07-04T10:24:05Z</time>
      </trkpt>
      <trkpt lat="68.21458" lon="14.48274">
        <ele>9</ele>
        <time>2019-07-04T10:24:20Z</time>
      </trkpt>
      <trkpt lat="68.2146" lon="14.4841">
        <ele>6</ele>
        <time>2019-07-04T10:24:37Z</time>
      </trkpt>
      <trkpt lat="68.2146" lon="14.48247">
        <ele>5</ele>
        <time>2019-07-04T10:24:55Z</time>
      </trkpt>
      <trkpt lat="68.21525" lon="14.48184">
        <ele>8</ele>
        <time>2019-07-04T10:25:05Z</time>
      </trkpt>
      <trkpt lat="68.21568" lon="14.48203">
        <ele>11</ele>
        <time>2019-07-04T10:25:17Z</time>
      </trkpt>
      <trkpt lat="68.21606" lon="14.48271">
        <ele>14</ele>
        <time>2019-07-04T10:25:30Z</time>
      </trkpt>
      <trkpt lat="68.21743" lon="14.49059">
        <ele>16</ele>
        <time>2019-07-04T10:26:03Z</time>
      </trkpt>
      <trkpt lat="68.21859" lon="14.4932">
        <ele>19</ele>
        <time>2019-07-04T10:26:21Z</time>
      </trkpt>
      <trkpt lat="68.22048" lon="14.49987">
        <ele>19</ele>
        <time>2019-07-04T10:26:30Z</time>
      </trkpt>
      <trkpt lat="68.22149" lon="14.50261">
        <ele>24</ele>
        <time>2019-07-04T10:26:37Z</time>
      </trkpt>
      <trkpt lat="68.22193" lon="14.51044">
        <ele>28</ele>
        <time>2019-07-04T10:26:42Z</time>
      </trkpt>
      <trkpt lat="68.22252" lon="14.51257">
        <ele>33</ele>
        <time>2019-07-04T10:27:01Z</time>
      </trkpt>
      <trkpt lat="68.224" lon="14.51504">
        <ele>38</ele>
        <time>2019-07-04T10:27:08Z</time>
      </trkpt>
      <trkpt lat="68.22438" lon="14.51616">
        <ele>42</ele>
        <time>2019-07-04T10:27:22Z</time>
      </trkpt>
      <trkpt lat="68.22469" lon="14.51844">
        <ele>38</ele>
        <time>2019-07-04T10:27:29Z</time>
      </trkpt>
      <trkpt lat="68.22474" lon="14.5233">
        <ele>34</ele>
        <time>2019-07-04T10:27:38Z</time>
      </trkpt>
      <trkpt lat="68.22567" lon="14.52699">
        <ele>30</ele>
        <time>2019-07-04T10:28:16Z</time>
      </trkpt>
      <trkpt lat="68.2273" lon="14.53108">
        <ele>26</ele>
        <time>2019-07-04T10:28:33Z</time>
      </trkpt>
      <trkpt lat="68.22852" lon="14.53249">
        <ele>22</ele>
        <time>2019-07-04T10:28:43Z</time>
      </trkpt>
      <trkpt lat="68.22926" lon="14.53268">
        <ele>20</ele>
        <time>2019-07-04T10:28:53Z</time>
      </trkpt>
      <trkpt lat="68.22969" lon="14.53135">
        <ele>19</ele>
        <time>2019-07-04T10:29:01Z</time>
      </trkpt>
      <trkpt lat="68.23037" lon="14.53126">
        <ele>18</ele>
        <time>2019-07-04T10:29:25Z</time>
      </trkpt>
      <trkpt lat="68.23159" lon="14.5317">
        <ele>17</ele>
        <time>2019-07-04T10:29:29Z</time>
      </trkpt>
      <trkpt lat="68.23218" lon="14.53249">
        <ele>16</ele>
        <time>2019-07-04T10:29:41Z</time>
      </trkpt>
      <trkpt lat="68.23455" lon="14.53667">
        <ele>15</ele>
        <time>2019-07-04T10:29:53Z</time>
      </trkpt>
      <trkpt lat="68.23587" lon="14.54203">
        <ele>14</ele>
        <time>2019-07-04T10:30:07Z</time>
      </trkpt>
      <trkpt lat="68.23631" lon="14.54553">
        <ele>12</ele>
        <time>2019-07-04T10:30:38Z</time>
      </trkpt>
      <trkpt lat="68.2364" lon="14.556">
        <ele>9</ele>
        <time>2019-07-04T10:30:47Z</time>
      </trkpt>
      <trkpt lat="68.23628" lon="14.55869">
        <ele>6</ele>
        <time>2019-07-04T10:31:01Z</time>
      </trkpt>
      <trkpt lat="68.23583" lon="14.56097">
        <ele>3</ele>
        <time>2019-07-04T10:31:10Z</time>
      </trkpt>
      <trkpt lat="68.23553" lon="14.56117">
        <ele>1</ele>
        <time>2019-07-04T10:31:26Z</time>
      </trkpt>
      <trkpt lat="68.23294" lon="14.55924">
        <ele>3</ele>
        <time>2019-07-04T10:31:39Z</time>
      </trkpt>
      <trkpt lat="68.23155" lon="14.55928">
        <ele>3.2</ele>
        <time>2019-07-04T10:31:45Z</time>
      </trkpt>
      <trkpt lat="68.23028" lon="14.5589">
        <ele>3</ele>
        <time>2019-07-04T10:31:54Z</time>
      </trkpt>
      <trkpt lat="68.23021" lon="14.55923">
        <ele>3</ele>
        <time>2019-07-04T10:32:03Z</time>
      </trkpt>
      <trkpt lat="68.23027" lon="14.55997">
        <ele>3</ele>
        <time>2019-07-04T10:32:09Z</time>
      </trkpt>
      <trkpt lat="68.23084" lon="14.56113">
        <ele>3.1</ele>
        <time>2019-07-04T10:32:31Z</time>
      </trkpt>
      <trkpt lat="68.23021" lon="14.56632">
        <ele>2.9</ele>
        <time>2019-07-04T10:32:39Z</time>
      </trkpt>
      <trkpt lat="68.23055" lon="14.56517">
        <ele>3</ele>
        <time>2019-07-04T10:32:48Z</time>
      </trkpt>
      <trkpt lat="68.23171" lon="14.56415">
        <ele>1</ele>
        <time>2019-07-04T10:33:04Z</time>
      </trkpt>
      <trkpt lat="68.23223" lon="14.56404">
        <ele>2</ele>
        <time>2019-07-04T10:33:17Z</time>
      </trkpt>
      <trkpt lat="68.23237" lon="14.56474">
        <ele>3</ele>
        <time>2019-07-04T10:33:33Z</time>
      </trkpt>
      <trkpt lat="68.23379" lon="14.56671">
        <ele>4</ele>
        <time>2019-07-04T10:33:40Z</time>
      </trkpt>
      <trkpt lat="68.23326" lon="14.57127">
        <ele>3</ele>
        <time>2019-07-04T10:33:47Z</time>
      </trkpt>
      <trkpt lat="68.23361" lon="14.57214">
        <ele>3</ele>
        <time>2019-07-04T10:33:52Z</time>
      </trkpt>
      <trkpt lat="68.2334" lon="14.57023">
        <ele>2</ele>
        <time>2019-07-04T10:33:56Z</time>
      </trkpt>
      <trkpt lat="68.23382" lon="14.5666">
        <ele>2</ele>
        <time>2019-07-04T10:34:13Z</time>
      </trkpt>
      <trkpt lat="68.23254" lon="14.56496">
        <ele>1</ele>
        <time>2019-07-04T10:34:20Z</time>
      </trkpt>
      <trkpt lat="68.23229" lon="14.56402">
        <ele>1</ele>
        <time>2019-07-04T10:34:35Z</time>
      </trkpt>
      <trkpt lat="68.23269" lon="14.56132">
        <ele>1</ele>
        <time>2019-07-04T10:34:51Z</time>
      </trkpt>
      <trkpt lat="68.2329" lon="14.5613">
        <ele>1</ele>
        <time>2019-07-04T10:35:00Z</time>
      </trkpt>
      <trkpt lat="68.23328" lon="14.55951">
        <ele>3</ele>
        <time>2019-07-04T10:35:24Z</time>
      </trkpt>
      <trkpt lat="68.23365" lon="14.55971">
        <ele>3</ele>
        <time>2019-07-04T10:35:32Z</time>
      </trkpt>
      <trkpt lat="68.23387" lon="14.55926">
        <ele>3</ele>
        <time>2019-07-04T10:35:41Z</time>
      </trkpt>
      <trkpt lat="68.234" lon="14.55983">
        <ele>3</ele>
        <time>2019-07-04T10:35:59Z</time>
      </trkpt>
      <trkpt lat="68.23458" lon="14.56018">
        <ele>3</ele>
        <time>2019-07-04T10:36:19Z</time>
      </trkpt>
      <trkpt lat="68.23504" lon="14.55721">
        <ele>6</ele>
        <time>2019-07-04T10:36:51Z</time>
      </trkpt>
      <trkpt lat="68.23535" lon="14.55695">
        <ele>10</ele>
        <time>2019-07-04T10:37:05Z</time>
      </trkpt>
      <trkpt lat="68.23639" lon="14.55731">
        <ele>13</ele>
        <time>2019-07-04T10:37:18Z</time>
      </trkpt>
      <trkpt lat="68.23672" lon="14.55714">
        <ele>17</ele>
        <time>2019-07-04T10:37:24Z</time>
      </trkpt>
      <trkpt lat="68.23791" lon="14.55831">
        <ele>18</ele>
        <time>2019-07-04T10:37:35Z</time>
      </trkpt>
      <trkpt lat="68.23852" lon="14.56041">
        <ele>15</ele>
        <time>2019-07-04T10:38:05Z</time>
      </trkpt>
      <trkpt lat="68.23897" lon="14.56323">
        <ele>13</ele>
        <time>2019-07-04T10:38:13Z</time>
      </trkpt>
      <trkpt lat="68.23958" lon="14.56266">
        <ele>10</ele>
        <time>2019-07-04T10:38:21Z</time>
      </trkpt>
      <trkpt lat="68.23968" lon="14.55906">
        <ele>7</ele>
        <time>2019-07-04T10:38:27Z</time>
      </trkpt>
      <trkpt lat="68.23919" lon="14.55739">
        <ele>5</ele>
        <time>2019-07-04T10:38:36Z</time>
      </trkpt>
      <trkpt lat="68.23967" lon="14.55534">
        <ele>4</ele>
        <time>2019-07-04T10:38:59Z</time>
      </trkpt>
      <trkpt lat="68.24052" lon="14.55623">
        <ele>4</ele>
        <time>2019-07-04T10:39:21Z</time>
      </trkpt>
      <trkpt lat="68.24096" lon="14.55713">
        <ele>4</ele>
        <time>2019-07-04T10:39:32Z</time>
      </trkpt>
      <trkpt lat="68.24146" lon="14.55684">
        <ele>4</ele>
        <time>2019-07-04T10:39:41Z</time>
      </trkpt>
      <trkpt lat="68.24181" lon="14.55558">
        <ele>5</ele>
        <time>2019-07-04T10:39:54Z</time>
      </trkpt>
      <trkpt lat="68.24175" lon="14.55401">
        <ele>5</ele>
        <time>2019-07-04T10:40:06Z</time>
      </trkpt>
      <trkpt lat="68.2403" lon="14.54992">
        <ele>5</ele>
        <time>2019-07-04T10:40:09Z</time>
      </trkpt>
      <trkpt lat="68.24071" lon="14.54856">
        <ele>8</ele>
        <time>2019-07-04T10:40:14Z</time>
      </trkpt>
      <trkpt lat="68.24212" lon="14.54685">
        <ele>12</ele>
        <time>2019-07-04T10:40:37Z</time>
      </trkpt>
      <trkpt lat="68.24281" lon="14.54746">
        <ele>15</ele>
        <time>2019-07-04T10:40:53Z</time>
      </trkpt>
      <trkpt lat="68.24291" lon="14.54925">
        <ele>18</ele>
        <time>2019-07-04T10:41:07Z</time>
      </trkpt>
      <trkpt lat="68.24307" lon="14.54971">
        <ele>22</ele>
        <time>2019-07-04T10:41:13Z</time>
      </trkpt>
      <trkpt lat="68.24388" lon="14.55053">
        <ele>20</ele>
        <time>2019-07-04T10:41:19Z</time>
      </trkpt>
      <trkpt lat="68.24455" lon="14.55254">
        <ele>19</ele>
        <time>2019-07-04T10:41:26Z</time>
      </trkpt>
      <trkpt lat="68.24539" lon="14.55161">
        <ele>18</ele>
        <time>2019-07-04T10:41:31Z</time>
      </trkpt>
      <trkpt lat="68.24671" lon="14.55171">
        <ele>17</ele>
        <time>2019-07-04T10:41:56Z</time>
      </trkpt>
      <trkpt lat="68.24698" lon="14.54936">
        <ele>16</ele>
        <time>2019-07-04T10:42:01Z</time>
      </trkpt>
      <trkpt lat="68.2474" lon="14.5489">
        <ele>15</ele>
        <time>2019-07-04T10:42:08Z</time>
      </trkpt>
      <trkpt lat="68.2476" lon="14.54918">
        <ele>15</ele>
        <time>2019-07-04T10:42:16Z</time>
      </trkpt>
      <trkpt lat="68.24806" lon="14.54901">
        <ele>15</ele>
        <time>2019-07-04T10:42:27Z</time>
      </trkpt>
      <trkpt lat="68.24818" lon="14.54847">
        <ele>15</ele>
        <time>2019-07-04T10:42:54Z</time>
      </trkpt>
      <trkpt lat="68.24842" lon="14.54911">
        <ele>15</ele>
        <time>2019-07-04T11:03:30Z</time>
      </trkpt>
      <trkpt lat="68.24734" lon="14.54893">
        <ele>15</ele>
        <time>2019-07-04T11:03:36Z</time>
      </trkpt>
      <trkpt lat="68.24685" lon="14.54954">
        <ele>15</ele>
        <time>2019-07-04T11:04:25Z</time>
      </trkpt>
      <trkpt lat="68.24666" lon="14.55162">
        <ele>13</ele>
        <time>2019-07-04T11:04:35Z</time>
      </trkpt>
      <trkpt lat="68.24525" lon="14.55163">
        <ele>11</ele>
        <time>2019-07-04T11:04:46Z</time>
      </trkpt>
      <trkpt lat="68.24366" lon="14.55417">
        <ele>8</ele>
        <time>2019-07-04T11:04:50Z</time>
      </trkpt>
      <trkpt lat="68.24258" lon="14.55491">
        <ele>6</ele>
        <time>2019-07-04T11:04:54Z</time>
      </trkpt>
      <trkpt lat="68.24193" lon="14.55485">
        <ele>4</ele>
        <time>2019-07-04T11:04:58Z</time>
      </trkpt>
      <trkpt lat="68.24119" lon="14.5572">
        <ele>3</ele>
        <time>2019-07-04T11:05:02Z</time>
      </trkpt>
      <trkpt lat="68.24086" lon="14.55719">
        <ele>6</ele>
        <time>2019-07-04T11:05:18Z</time>
      </trkpt>
      <trkpt lat="68.2402" lon="14.55598">
        <ele>9</ele>
        <time>2019-07-04T11:05:36Z</time>
      </trkpt>
      <trkpt lat="68.23953" lon="14.55546">
        <ele>12</ele>
        <time>2019-07-04T11:05:52Z</time>
      </trkpt>
      <trkpt lat="68.23922" lon="14.55683">
        <ele>15</ele>
        <time>2019-07-04T11:06:07Z</time>
      </trkpt>
      <trkpt lat="68.23931" lon="14.55841">
        <ele>18</ele>
        <time>2019-07-04T11:06:16Z</time>
      </trkpt>
      <trkpt lat="68.23961" lon="14.55931">
        <ele>19</ele>
        <time>2019-07-04T11:06:46Z</time>
      </trkpt>
      <trkpt lat="68.23951" lon="14.5622">
        <ele>15</ele>
        <time>2019-07-04T11:06:50Z</time>
      </trkpt>
      <trkpt lat="68.23898" lon="14.56352">
        <ele>11</ele>
        <time>2019-07-04T11:06:55Z</time>
      </trkpt>
      <trkpt lat="68.23973" lon="14.56771">
        <ele>8</ele>
        <time>2019-07-04T11:07:07Z</time>
      </trkpt>
      <trkpt lat="68.24011" lon="14.5683">
        <ele>4</ele>
        <time>2019-07-04T11:07:12Z</time>
      </trkpt>
      <trkpt lat="68.24122" lon="14.57214">
        <ele>2.6</ele>
        <time>2019-07-04T11:07:31Z</time>
      </trkpt>
      <trkpt lat="68.24177" lon="14.57313">
        <ele>2.7</ele>
        <time>2019-07-04T11:07:48Z</time>
      </trkpt>
      <trkpt lat="68.24318" lon="14.57806">
        <ele>5</ele>
        <time>2019-07-04T11:07:57Z</time>
      </trkpt>
      <trkpt lat="68.24249" lon="14.58363">
        <ele>11</ele>
        <time>2019-07-04T11:08:16Z</time>
      </trkpt>
      <trkpt lat="68.24206" lon="14.59173">
        <ele>17</ele>
        <time>2019-07-04T11:08:24Z</time>
      </trkpt>
      <trkpt lat="68.24215" lon="14.59449">
        <ele>22</ele>
        <time>2019-07-04T11:08:47Z</time>
      </trkpt>
      <trkpt lat="68.24416" lon="14.60843">
        <ele>27</ele>
        <time>2019-07-04T11:08:59Z</time>
      </trkpt>
      <trkpt lat="68.24458" lon="14.61694">
        <ele>27</ele>
        <time>2019-07-04T11:09:08Z</time>
      </trkpt>
      <trkpt lat="68.24583" lon="14.63102">
        <ele>27</ele>
        <time>2019-07-04T11:09:20Z</time>
      </trkpt>
      <trkpt lat="68.24575" lon="14.63284">
        <ele>27</ele>
        <time>2019-07-04T11:09:24Z</time>
      </trkpt>
      <trkpt lat="68.24555" lon="14.63314">
        <ele>27</ele>
        <time>2019-07-04T11:10:08Z</time>
      </trkpt>
      <trkpt lat="68.24447" lon="14.63262">
        <ele>27</ele>
        <time>2019-07-04T11:10:28Z</time>
      </trkpt>
      <trkpt lat="68.24376" lon="14.63359">
        <ele>27</ele>
        <time>2019-07-04T11:10:57Z</time>
      </trkpt>
      <trkpt lat="68.24356" lon="14.63526">
        <ele>22</ele>
        <time>2019-07-04T11:11:12Z</time>
      </trkpt>
      <trkpt lat="68.24368" lon="14.63916">
        <ele>18</ele>
        <time>2019-07-04T11:11:18Z</time>
      </trkpt>
      <trkpt lat="68.24454" lon="14.65354">
        <ele>13</ele>
        <time>2019-07-04T11:11:36Z</time>
      </trkpt>
      <trkpt lat="68.24505" lon="14.65553">
        <ele>8</ele>
        <time>2019-07-04T11:11:43Z</time>
      </trkpt>
      <trkpt lat="68.24605" lon="14.65764">
        <ele>4</ele>
        <time>2019-07-04T11:11:48Z</time>
      </trkpt>
      <trkpt lat="68.24757" lon="14.66026">
        <ele>1</ele>
        <time>2019-07-04T11:11:52Z</time>
      </trkpt>
      <trkpt lat="68.24891" lon="14.66188">
        <ele>1</ele>
        <time>2019-07-04T11:14:20Z</time>
      </trkpt>
      <trkpt lat="68.2499" lon="14.66288">
        <ele>2</ele>
        <time>2019-07-04T11:14:45Z</time>
      </trkpt>
      <trkpt lat="68.25086" lon="14.66318">
        <ele>2</ele>
        <time>2019-07-04T11:14:54Z</time>
      </trkpt>
      <trkpt lat="68.25569" lon="14.66099">
        <ele>2</ele>
        <time>2019-07-04T11:15:07Z</time>
      </trkpt>
      <trkpt lat="68.25838" lon="14.65765">
        <ele>2</ele>
        <time>2019-07-04T11:15:20Z</time>
      </trkpt>
      <trkpt lat="68.25916" lon="14.65726">
        <ele>3</ele>
        <time>2019-07-04T11:15:37Z</time>
      </trkpt>
      <trkpt lat="68.26036" lon="14.65759">
        <ele>6</ele>
        <time>2019-07-04T11:15:58Z</time>
      </trkpt>
      <trkpt lat="68.26288" lon="14.65757">
        <ele>9</ele>
        <time>2019-07-04T11:16:12Z</time>
      </trkpt>
      <trkpt lat="68.26527" lon="14.65947">
        <ele>12</ele>
        <time>2019-07-04T11:16:21Z</time>
      </trkpt>
      <trkpt lat="68.266" lon="14.65974">
        <ele>15</ele>
        <time>2019-07-04T11:16:29Z</time>
      </trkpt>
      <trkpt lat="68.2666" lon="14.65949">
        <ele>18</ele>
        <time>2019-07-04T11:16:46Z</time>
      </trkpt>
      <trkpt lat="68.269" lon="14.6572">
        <ele>18</ele>
        <time>2019-07-04T11:16:59Z</time>
      </trkpt>
      <trkpt lat="68.27398" lon="14.6569">
        <ele>16</ele>
        <time>2019-07-04T11:17:17Z</time>
      </trkpt>
      <trkpt lat="68.27469" lon="14.65712">
        <ele>13</ele>
        <time>2019-07-04T11:17:33Z</time>
      </trkpt>
      <trkpt lat="68.27502" lon="14.65769">
        <ele>11</ele>
        <time>2019-07-04T11:17:49Z</time>
      </trkpt>
      <trkpt lat="68.27572" lon="14.66047">
        <ele>9</ele>
        <time>2019-07-04T11:17:57Z</time>
      </trkpt>
      <trkpt lat="68.27696" lon="14.66248">
        <ele>6</ele>
        <time>2019-07-04T11:18:22Z</time>
      </trkpt>
      <trkpt lat="68.27817" lon="14.66258">
        <ele>6</ele>
        <time>2019-07-04T11:18:36Z</time>
      </trkpt>
      <trkpt lat="68.28031" lon="14.65997">
        <ele>10</ele>
        <time>2019-07-04T11:18:53Z</time>
      </trkpt>
      <trkpt lat="68.28284" lon="14.65969">
        <ele>14</ele>
        <time>2019-07-04T11:19:15Z</time>
      </trkpt>
      <trkpt lat="68.28354" lon="14.66009">
        <ele>18</ele>
        <time>2019-07-04T11:19:20Z</time>
      </trkpt>
      <trkpt lat="68.28407" lon="14.66185">
        <ele>22</ele>
        <time>2019-07-04T11:19:42Z</time>
      </trkpt>
      <trkpt lat="68.28368" lon="14.66741">
        <ele>25</ele>
        <time>2019-07-04T11:19:49Z</time>
      </trkpt>
      <trkpt lat="68.28415" lon="14.67586">
        <ele>21</ele>
        <time>2019-07-04T11:19:57Z</time>
      </trkpt>
      <trkpt lat="68.28667" lon="14.69015">
        <ele>17</ele>
        <time>2019-07-04T11:20:13Z</time>
      </trkpt>
      <trkpt lat="68.28737" lon="14.69345">
        <ele>13</ele>
        <time>2019-07-04T11:20:22Z</time>
      </trkpt>
      <trkpt lat="68.28786" lon="14.69448">
        <ele>9</ele>
        <time>2019-07-04T11:20:40Z</time>
      </trkpt>
      <trkpt lat="68.29033" lon="14.69683">
        <ele>5</ele>
        <time>2019-07-04T11:20:53Z</time>
      </trkpt>
      <trkpt lat="68.29454" lon="14.69828">
        <ele>3</ele>
        <time>2019-07-04T11:21:04Z</time>
      </trkpt>
      <trkpt lat="68.29531" lon="14.69875">
        <ele>4</ele>
        <time>2019-07-04T11:21:10Z</time>
      </trkpt>
      <trkpt lat="68.29646" lon="14.70221">
        <ele>6</ele>
        <time>2019-07-04T11:21:22Z</time>
      </trkpt>
      <trkpt lat="68.29683" lon="14.70244">
        <ele>7</ele>
        <time>2019-07-04T11:21:43Z</time>
      </trkpt>
      <trkpt lat="68.29776" lon="14.70228">
        <ele>9</ele>
        <time>2019-07-04T11:21:50Z</time>
      </trkpt>
      <trkpt lat="68.29863" lon="14.70274">
        <ele>10</ele>
        <time>2019-07-04T11:21:55Z</time>
      </trkpt>
      <trkpt lat="68.29972" lon="14.70581">
        <ele>11</ele>
        <time>2019-07-04T11:22:05Z</time>
      </trkpt>
      <trkpt lat="68.30031" lon="14.70655">
        <ele>14</ele>
        <time>2019-07-04T11:22:18Z</time>
      </trkpt>
      <trkpt lat="68.30352" lon="14.70837">
        <ele>17</ele>
        <time>2019-07-04T11:22:31Z</time>
      </trkpt>
      <trkpt lat="68.30628" lon="14.70793">
        <ele>20</ele>
        <time>2019-07-04T11:22:38Z</time>
      </trkpt>
      <trkpt lat="68.30758" lon="14.70846">
        <ele>23</ele>
        <time>2019-07-04T11:22:55Z</time>
      </trkpt>
      <trkpt lat="68.31004" lon="14.71014">
        <ele>26</ele>
        <time>2019-07-04T11:23:06Z</time>
      </trkpt>
      <trkpt lat="68.31167" lon="14.71008">
        <ele>27</ele>
        <time>2019-07-04T11:23:18Z</time>
      </trkpt>
      <trkpt lat="68.31481" lon="14.71405">
        <ele>28</ele>
        <time>2019-07-04T11:23:37Z</time>
      </trkpt>
      <trkpt lat="68.31518" lon="14.71487">
        <ele>30</ele>
        <time>2019-07-04T11:23:49Z</time>
      </trkpt>
      <trkpt lat="68.31572" lon="14.71498">
        <ele>31</ele>
        <time>2019-07-04T11:23:56Z</time>
      </trkpt>
      <trkpt lat="68.31591" lon="14.71536">
        <ele>32</ele>
        <time>2019-07-04T11:24:07Z</time>
      </trkpt>
      <trkpt lat="68.31503" lon="14.71438">
        <ele>33</ele>
        <time>2019-07-04T11:24:14Z</time>
      </trkpt>
      <trkpt lat="68.31542" lon="14.71451">
        <ele>33</ele>
        <time>2019-07-04T11:24:26Z</time>
      </trkpt>
      <trkpt lat="68.31613" lon="14.7143">
        <ele>27</ele>
        <time>2019-07-04T11:24:36Z</time>
      </trkpt>
      <trkpt lat="68.31676" lon="14.71335">
        <ele>21</ele>
        <time>2019-07-04T11:24:46Z</time>
      </trkpt>
      <trkpt lat="68.31754" lon="14.7111">
        <ele>15</ele>
        <time>2019-07-04T11:25:03Z</time>
      </trkpt>
      <trkpt lat="68.31815" lon="14.70891">
        <ele>9</ele>
        <time>2019-07-04T11:25:15Z</time>
      </trkpt>
      <trkpt lat="68.31911" lon="14.70283">
        <ele>3</ele>
        <time>2019-07-04T11:25:41Z</time>
      </trkpt>
      <trkpt lat="68.31993" lon="14.70005">
        <ele>3</ele>
        <time>2019-07-04T11:25:52Z</time>
      </trkpt>
      <trkpt lat="68.32083" lon="14.69928">
        <ele>3</ele>
        <time>2019-07-04T11:25:57Z</time>
      </trkpt>
      <trkpt lat="68.32313" lon="14.69921">
        <ele>3</ele>
        <time>2019-07-04T11:26:03Z</time>
      </trkpt>
      <trkpt lat="68.32369" lon="14.69872">
        <ele>3</ele>
        <time>2019-07-04T11:26:10Z</time>
      </trkpt>
      <trkpt lat="68.32402" lon="14.698">
        <ele>4</ele>
        <time>2019-07-04T11:26:35Z</time>
      </trkpt>
      <trkpt lat="68.32443" lon="14.69519">
        <ele>4</ele>
        <time>2019-07-04T11:26:50Z</time>
      </trkpt>
      <trkpt lat="68.32434" lon="14.68982">
        <ele>8</ele>
        <time>2019-07-04T11:27:00Z</time>
      </trkpt>
      <trkpt lat="68.32532" lon="14.68671">
        <ele>11</ele>
        <time>2019-07-04T11:27:11Z</time>
      </trkpt>
      <trkpt lat="68.32489" lon="14.68592">
        <ele>15</ele>
        <time>2019-07-04T11:27:30Z</time>
      </trkpt>
      <trkpt lat="68.32452" lon="14.68432">
        <ele>19</ele>
        <time>2019-07-04T11:28:06Z</time>
      </trkpt>
      <trkpt lat="68.32378" lon="14.67538">
        <ele>23</ele>
        <time>2019-07-04T11:28:17Z</time>
      </trkpt>
      <trkpt lat="68.32525" lon="14.66598">
        <ele>26</ele>
        <time>2019-07-04T11:28:44Z</time>
      </trkpt>
      <trkpt lat="68.32506" lon="14.66151">
        <ele>24</ele>
        <time>2019-07-04T11:28:59Z</time>
      </trkpt>
      <trkpt lat="68.3265" lon="14.65113">
        <ele>22</ele>
        <time>2019-07-04T11:29:07Z</time>
      </trkpt>
      <trkpt lat="68.32596" lon="14.64924">
        <ele>20</ele>
        <time>2019-07-04T11:29:25Z</time>
      </trkpt>
      <trkpt lat="68.32181" lon="14.64659">
        <ele>18</ele>
        <time>2019-07-04T11:29:27Z</time>
      </trkpt>
      <trkpt lat="68.32067" lon="14.64553">
        <ele>16</ele>
        <time>2019-07-04T11:31:52Z</time>
      </trkpt>
      <trkpt lat="68.32022" lon="14.64358">
        <ele>15</ele>
        <time>2019-07-04T11:31:59Z</time>
      </trkpt>
      <trkpt lat="68.31925" lon="14.63472">
        <ele>23</ele>
        <time>2019-07-04T11:32:14Z</time>
      </trkpt>
      <trkpt lat="68.31781" lon="14.62615">
        <ele>31</ele>
        <time>2019-07-04T11:32:47Z</time>
      </trkpt>
      <trkpt lat="68.3176" lon="14.62374">
        <ele>38</ele>
        <time>2019-07-04T11:33:02Z</time>
      </trkpt>
      <trkpt lat="68.31763" lon="14.61937">
        <ele>46</ele>
        <time>2019-07-04T11:33:12Z</time>
      </trkpt>
      <trkpt lat="68.31812" lon="14.61301">
        <ele>54</ele>
        <time>2019-07-04T11:33:20Z</time>
      </trkpt>
      <trkpt lat="68.31772" lon="14.59886">
        <ele>57</ele>
        <time>2019-07-04T11:33:29Z</time>
      </trkpt>
      <trkpt lat="68.31403" lon="14.58473">
        <ele>51</ele>
        <time>2019-07-04T11:33:58Z</time>
      </trkpt>
      <trkpt lat="68.31297" lon="14.57826">
        <ele>45</ele>
        <time>2019-07-04T11:34:07Z</time>
      </trkpt>
      <trkpt lat="68.31307" lon="14.57512">
        <ele>40</ele>
        <time>2019-07-04T11:34:21Z</time>
      </trkpt>
      <trkpt lat="68.31335" lon="14.57352">
        <ele>34</ele>
        <time>2019-07-04T11:34:36Z</time>
      </trkpt>
      <trkpt lat="68.31448" lon="14.57015">
        <ele>28</ele>
        <time>2019-07-04T11:34:44Z</time>
      </trkpt>
      <trkpt lat="68.3161" lon="14.55982">
        <ele>27</ele>
        <time>2019-07-04T11:34:56Z</time>
      </trkpt>
      <trkpt lat="68.31872" lon="14.55334">
        <ele>26</ele>
        <time>2019-07-04T11:35:05Z</time>
      </trkpt>
      <trkpt lat="68.32045" lon="14.54389">
        <ele>25</ele>
        <time>2019-07-04T11:35:14Z</time>
      </trkpt>
      <trkpt lat="68.32186" lon="14.53941">
        <ele>24</ele>
        <time>2019-07-04T11:35:21Z</time>
      </trkpt>
      <trkpt lat="68.32332" lon="14.52902">
        <ele>23</ele>
        <time>2019-07-04T11:35:37Z</time>
      </trkpt>
      <trkpt lat="68.32417" lon="14.5197">
        <ele>22</ele>
        <time>2019-07-04T11:36:00Z</time>
      </trkpt>
      <trkpt lat="68.32593" lon="14.50995">
        <ele>19</ele>
        <time>2019-07-04T11:36:17Z</time>
      </trkpt>
      <trkpt lat="68.3262" lon="14.50949">
        <ele>15</ele>
        <time>2019-07-04T11:36:30Z</time>
      </trkpt>
      <trkpt lat="68.32825" lon="14.51092">
        <ele>12</ele>
        <time>2019-07-04T11:36:45Z</time>
      </trkpt>
      <trkpt lat="68.32981" lon="14.5113">
        <ele>9</ele>
        <time>2019-07-04T11:36:54Z</time>
      </trkpt>
      <trkpt lat="68.33087" lon="14.51132">
        <ele>6</ele>
        <time>2019-07-04T11:37:10Z</time>
      </trkpt>
      <trkpt lat="68.33152" lon="14.51056">
        <ele>3</ele>
        <time>2019-07-04T11:37:18Z</time>
      </trkpt>
      <trkpt lat="68.33452" lon="14.50127">
        <ele>6</ele>
        <time>2019-07-04T11:37:25Z</time>
      </trkpt>
      <trkpt lat="68.33694" lon="14.49714">
        <ele>9</ele>
        <time>2019-07-04T11:37:37Z</time>
      </trkpt>
      <trkpt lat="68.33832" lon="14.48852">
        <ele>11</ele>
        <time>2019-07-04T11:37:54Z</time>
      </trkpt>
      <trkpt lat="68.33893" lon="14.48705">
        <ele>14</ele>
        <time>2019-07-04T11:38:15Z</time>
      </trkpt>
      <trkpt lat="68.33998" lon="14.48541">
        <ele>17</ele>
        <time>2019-07-04T11:38:29Z</time>
      </trkpt>
      <trkpt lat="68.34058" lon="14.48542">
        <ele>18</ele>
        <time>2019-07-04T11:38:40Z</time>
      </trkpt>
      <trkpt lat="68.34087" lon="14.48566">
        <ele>19</ele>
        <time>2019-07-04T11:38:49Z</time>
      </trkpt>
      <trkpt lat="68.34307" lon="14.48859">
        <ele>20</ele>
        <time>2019-07-04T11:38:59Z</time>
      </trkpt>
      <trkpt lat="68.34649" lon="14.49539">
        <ele>20</ele>
        <time>2019-07-04T11:39:25Z</time>
      </trkpt>
      <trkpt lat="68.34716" lon="14.4957">
        <ele>21</ele>
        <time>2019-07-04T11:39:34Z</time>
      </trkpt>
      <trkpt lat="68.35095" lon="14.4946">
        <ele>22</ele>
        <time>2019-07-04T11:39:45Z</time>
      </trkpt>
      <trkpt lat="68.35822" lon="14.48463">
        <ele>22</ele>
        <time>2019-07-04T11:40:02Z</time>
      </trkpt>
      <trkpt lat="68.36189" lon="14.47847">
        <ele>22</ele>
        <time>2019-07-04T11:40:12Z</time>
      </trkpt>
      <trkpt lat="68.36381" lon="14.47302">
        <ele>21</ele>
        <time>2019-07-04T11:40:30Z</time>
      </trkpt>
      <trkpt lat="68.36491" lon="14.46629">
        <ele>21</ele>
        <time>2019-07-04T11:40:48Z</time>
      </trkpt>
      <trkpt lat="68.36606" lon="14.46356">
        <ele>20</ele>
        <time>2019-07-04T11:40:55Z</time>
      </trkpt>
      <trkpt lat="68.36685" lon="14.46243">
        <ele>20</ele>
        <time>2019-07-04T11:41:02Z</time>
      </trkpt>
      <trkpt lat="68.37211" lon="14.4622">
        <ele>19</ele>
        <time>2019-07-04T11:41:10Z</time>
      </trkpt>
      <trkpt lat="68.37379" lon="14.46008">
        <ele>17</ele>
        <time>2019-07-04T11:41:30Z</time>
      </trkpt>
      <trkpt lat="68.37622" lon="14.46009">
        <ele>14</ele>
        <time>2019-07-04T11:41:38Z</time>
      </trkpt>
      <trkpt lat="68.37743" lon="14.46074">
        <ele>12</ele>
        <time>2019-07-04T11:41:54Z</time>
      </trkpt>
      <trkpt lat="68.37855" lon="14.46221">
        <ele>9</ele>
        <time>2019-07-04T11:42:05Z</time>
      </trkpt>
      <trkpt lat="68.3793" lon="14.46263">
        <ele>7</ele>
        <time>2019-07-04T11:42:12Z</time>
      </trkpt>
      <trkpt lat="68.38169" lon="14.46216">
        <ele>7</ele>
        <time>2019-07-04T11:42:30Z</time>
      </trkpt>
      <trkpt lat="68.38438" lon="14.46112">
        <ele>5</ele>
        <time>2019-07-04T11:42:38Z</time>
      </trkpt>
      <trkpt lat="68.39162" lon="14.46612">
        <ele>4</ele>
        <time>2019-07-04T11:42:45Z</time>
      </trkpt>
      <trkpt lat="68.39321" lon="14.46646">
        <ele>3</ele>
        <time>2019-07-04T11:43:03Z</time>
      </trkpt>
      <trkpt lat="68.39377" lon="14.47337">
        <ele>1</ele>
        <time>2019-07-04T11:43:12Z</time>
      </trkpt>
      <trkpt lat="68.39376" lon="14.47555">
        <ele>5</ele>
        <time>2019-07-04T11:43:33Z</time>
      </trkpt>
      <trkpt lat="68.39332" lon="14.4777">
        <ele>1</ele>
        <time>2019-07-04T11:45:14Z</time>
      </trkpt>
      <trkpt lat="68.39348" lon="14.48128">
        <ele>2</ele>
        <time>2019-07-04T11:45:20Z</time>
      </trkpt>
      <trkpt lat="68.39438" lon="14.48415">
        <ele>3</ele>
        <time>2019-07-04T11:45:33Z</time>
      </trkpt>
      <trkpt lat="68.3958" lon="14.48732">
        <ele>4</ele>
        <time>2019-07-04T11:45:41Z</time>
      </trkpt>
      <trkpt lat="68.39744" lon="14.49484">
        <ele>5</ele>
        <time>2019-07-04T11:46:08Z</time>
      </trkpt>
      <trkpt lat="68.39836" lon="14.49696">
        <ele>6</ele>
        <time>2019-07-04T11:46:15Z</time>
      </trkpt>
      <trkpt lat="68.39992" lon="14.49924">
        <ele>6</ele>
        <time>2019-07-04T11:46:23Z</time>
      </trkpt>
      <trkpt lat="68.40175" lon="14.50378">
        <ele>7</ele>
        <time>2019-07-04T11:46:27Z</time>
      </trkpt>
      <trkpt lat="68.40303" lon="14.51423">
        <ele>7</ele>
        <time>2019-07-04T11:46:31Z</time>
      </trkpt>
      <trkpt lat="68.40278" lon="14.5184">
        <ele>8</ele>
        <time>2019-07-04T11:46:38Z</time>
      </trkpt>
      <trkpt lat="68.40164" lon="14.52159">
        <ele>8</ele>
        <time>2019-07-04T11:46:41Z</time>
      </trkpt>
      <trkpt lat="68.40064" lon="14.52604">
        <ele>8</ele>
        <time>2019-07-04T11:46:45Z</time>
      </trkpt>
      <trkpt lat="68.39636" lon="14.53548">
        <ele>7</ele>
        <time>2019-07-04T11:46:48Z</time>
      </trkpt>
      <trkpt lat="68.39591" lon="14.53698">
        <ele>6</ele>
        <time>2019-07-04T11:46:51Z</time>
      </trkpt>
      <trkpt lat="68.39451" lon="14.5563">
        <ele>4</ele>
        <time>2019-07-04T11:46:57Z</time>
      </trkpt>
      <trkpt lat="68.39456" lon="14.55984">
        <ele>3</ele>
        <time>2019-07-04T11:47:01Z</time>
      </trkpt>
      <trkpt lat="68.39569" lon="14.56272">
        <ele>1</ele>
        <time>2019-07-04T11:47:03Z</time>
      </trkpt>
      <trkpt lat="68.39839" lon="14.56748">
        <ele>1</ele>
        <time>2019-07-04T11:47:06Z</time>
      </trkpt>
      <trkpt lat="68.39887" lon="14.57015">
        <ele>5</ele>
        <time>2019-07-04T11:47:09Z</time>
      </trkpt>
      <trkpt lat="68.39911" lon="14.57333">
        <ele>10</ele>
        <time>2019-07-04T11:47:15Z</time>
      </trkpt>
      <trkpt lat="68.39865" lon="14.57979">
        <ele>15</ele>
        <time>2019-07-04T11:47:20Z</time>
      </trkpt>
      <trkpt lat="68.3991" lon="14.58233">
        <ele>20</ele>
        <time>2019-07-04T11:47:24Z</time>
      </trkpt>
      <trkpt lat="68.39962" lon="14.58333">
        <ele>24</ele>
        <time>2019-07-04T11:47:27Z</time>
      </trkpt>
      <trkpt lat="68.40042" lon="14.58382">
        <ele>25</ele>
        <time>2019-07-04T11:47:38Z</time>
      </trkpt>
      <trkpt lat="68.4021" lon="14.58214">
        <ele>23</ele>
        <time>2019-07-04T11:48:03Z</time>
      </trkpt>
      <trkpt lat="68.40514" lon="14.57441">
        <ele>20</ele>
        <time>2019-07-04T11:48:11Z</time>
      </trkpt>
      <trkpt lat="68.4074" lon="14.57196">
        <ele>17</ele>
        <time>2019-07-04T11:48:20Z</time>
      </trkpt>
      <trkpt lat="68.40997" lon="14.56436">
        <ele>14</ele>
        <time>2019-07-04T11:48:29Z</time>
      </trkpt>
      <trkpt lat="68.4113" lon="14.55773">
        <ele>11</ele>
        <time>2019-07-04T11:48:38Z</time>
      </trkpt>
      <trkpt lat="68.41352" lon="14.55139">
        <ele>11</ele>
        <time>2019-07-04T11:49:02Z</time>
      </trkpt>
      <trkpt lat="68.41392" lon="14.55106">
        <ele>11</ele>
        <time>2019-07-04T11:49:16Z</time>
      </trkpt>
      <trkpt lat="68.41481" lon="14.55146">
        <ele>11</ele>
        <time>2019-07-04T11:49:32Z</time>
      </trkpt>
      <trkpt lat="68.41692" lon="14.55103">
        <ele>11</ele>
        <time>2019-07-04T11:49:47Z</time>
      </trkpt>
      <trkpt lat="68.41792" lon="14.55329">
        <ele>11</ele>
        <time>2019-07-04T11:50:03Z</time>
      </trkpt>
      <trkpt lat="68.41958" lon="14.55918">
        <ele>11</ele>
        <time>2019-07-04T11:50:17Z</time>
      </trkpt>
      <trkpt lat="68.41984" lon="14.56276">
        <ele>11</ele>
        <time>2019-07-04T11:50:30Z</time>
      </trkpt>
      <trkpt lat="68.42123" lon="14.56724">
        <ele>11</ele>
        <time>2019-07-04T11:50:39Z</time>
      </trkpt>
      <trkpt lat="68.42195" lon="14.57192">
        <ele>11</ele>
        <time>2019-07-04T11:50:48Z</time>
      </trkpt>
      <trkpt lat="68.42383" lon="14.58073">
        <ele>10</ele>
        <time>2019-07-04T11:50:52Z</time>
      </trkpt>
      <trkpt lat="68.42472" lon="14.59506">
        <ele>10</ele>
        <time>2019-07-04T11:51:02Z</time>
      </trkpt>
      <trkpt lat="68.42553" lon="14.59866">
        <ele>10</ele>
        <time>2019-07-04T11:51:09Z</time>
      </trkpt>
      <trkpt lat="68.42824" lon="14.60758">
        <ele>11</ele>
        <time>2019-07-04T11:51:18Z</time>
      </trkpt>
      <trkpt lat="68.43129" lon="14.61493">
        <ele>11</ele>
        <time>2019-07-04T11:51:34Z</time>
      </trkpt>
      <trkpt lat="68.43286" lon="14.62228">
        <ele>11</ele>
        <time>2019-07-04T11:51:56Z</time>
      </trkpt>
      <trkpt lat="68.43304" lon="14.62422">
        <ele>12</ele>
        <time>2019-07-04T11:52:23Z</time>
      </trkpt>
      <trkpt lat="68.43154" lon="14.64016">
        <ele>12</ele>
        <time>2019-07-04T11:52:36Z</time>
      </trkpt>
      <trkpt lat="68.43096" lon="14.65132">
        <ele>12</ele>
        <time>2019-07-04T11:52:55Z</time>
      </trkpt>
      <trkpt lat="68.42931" lon="14.66198">
        <ele>11</ele>
        <time>2019-07-04T11:53:11Z</time>
      </trkpt>
      <trkpt lat="68.42824" lon="14.66622">
        <ele>9</ele>
        <time>2019-07-04T11:53:22Z</time>
      </trkpt>
      <trkpt lat="68.42424" lon="14.67174">
        <ele>7</ele>
        <time>2019-07-04T11:53:36Z</time>
      </trkpt>
      <trkpt lat="68.42147" lon="14.67466">
        <ele>5</ele>
        <time>2019-07-04T11:53:40Z</time>
      </trkpt>
      <trkpt lat="68.41804" lon="14.67705">
        <ele>4</ele>
        <time>2019-07-04T11:54:25Z</time>
      </trkpt>
      <trkpt lat="68.41519" lon="14.67859">
        <ele>3</ele>
        <time>2019-07-04T11:54:37Z</time>
      </trkpt>
      <trkpt lat="68.41358" lon="14.67911">
        <ele>4</ele>
        <time>2019-07-04T11:54:55Z</time>
      </trkpt>
      <trkpt lat="68.41071" lon="14.67914">
        <ele>4</ele>
        <time>2019-07-04T11:55:28Z</time>
      </trkpt>
      <trkpt lat="68.41021" lon="14.67883">
        <ele>5</ele>
        <time>2019-07-04T11:55:47Z</time>
      </trkpt>
      <trkpt lat="68.406" lon="14.67375">
        <ele>6</ele>
        <time>2019-07-04T11:56:01Z</time>
      </trkpt>
      <trkpt lat="68.40513" lon="14.67302">
        <ele>7</ele>
        <time>2019-07-04T11:56:16Z</time>
      </trkpt>
      <trkpt lat="68.40433" lon="14.67288">
        <ele>7</ele>
        <time>2019-07-04T11:56:29Z</time>
      </trkpt>
      <trkpt lat="68.40338" lon="14.67358">
        <ele>6</ele>
        <time>2019-07-04T11:56:51Z</time>
      </trkpt>
      <trkpt lat="68.39781" lon="14.67992">
        <ele>5</ele>
        <time>2019-07-04T11:56:58Z</time>
      </trkpt>
      <trkpt lat="68.39655" lon="14.68522">
        <ele>5</ele>
        <time>2019-07-04T11:57:05Z</time>
      </trkpt>
      <trkpt lat="68.39529" lon="14.6874">
        <ele>4</ele>
        <time>2019-07-04T11:57:13Z</time>
      </trkpt>
      <trkpt lat="68.39353" lon="14.68944">
        <ele>3</ele>
        <time>2019-07-04T11:57:18Z</time>
      </trkpt>
      <trkpt lat="68.39219" lon="14.69285">
        <ele>3</ele>
        <time>2019-07-04T12:06:06Z</time>
      </trkpt>
      <trkpt lat="68.39011" lon="14.69641">
        <ele>4</ele>
        <time>2019-07-04T12:06:10Z</time>
      </trkpt>
      <trkpt lat="68.38823" lon="14.69854">
        <ele>4</ele>
        <time>2019-07-04T12:06:14Z</time>
      </trkpt>
      <trkpt lat="68.38765" lon="14.70029">
        <ele>4</ele>
        <time>2019-07-04T12:06:21Z</time>
      </trkpt>
      <trkpt lat="68.38624" lon="14.71184">
        <ele>4</ele>
        <time>2019-07-04T12:06:30Z</time>
      </trkpt>
      <trkpt lat="68.38864" lon="14.7194">
        <ele>4</ele>
        <time>2019-07-04T12:06:48Z</time>
      </trkpt>
      <trkpt lat="68.38956" lon="14.72146">
        <ele>7</ele>
        <time>2019-07-04T12:06:54Z</time>
      </trkpt>
      <trkpt lat="68.39001" lon="14.72173">
        <ele>10</ele>
        <time>2019-07-04T12:07:01Z</time>
      </trkpt>
      <trkpt lat="68.3913" lon="14.72116">
        <ele>13</ele>
        <time>2019-07-04T12:07:06Z</time>
      </trkpt>
      <trkpt lat="68.39284" lon="14.71944">
        <ele>16</ele>
        <time>2019-07-04T12:07:15Z</time>
      </trkpt>
      <trkpt lat="68.39438" lon="14.71721">
        <ele>19</ele>
        <time>2019-07-04T12:07:31Z</time>
      </trkpt>
      <trkpt lat="68.39513" lon="14.71484">
        <ele>21</ele>
        <time>2019-07-04T12:10:15Z</time>
      </trkpt>
      <trkpt lat="68.39625" lon="14.714">
        <ele>19</ele>
        <time>2019-07-04T12:10:28Z</time>
      </trkpt>
      <trkpt lat="68.39781" lon="14.71164">
        <ele>17</ele>
        <time>2019-07-04T12:10:36Z</time>
      </trkpt>
      <trkpt lat="68.40033" lon="14.70911">
        <ele>15</ele>
        <time>2019-07-04T12:10:46Z</time>
      </trkpt>
      <trkpt lat="68.40307" lon="14.70768">
        <ele>13</ele>
        <time>2019-07-04T12:11:09Z</time>
      </trkpt>
      <trkpt lat="68.40552" lon="14.70579">
        <ele>11</ele>
        <time>2019-07-04T12:11:20Z</time>
      </trkpt>
      <trkpt lat="68.40635" lon="14.70623">
        <ele>10</ele>
        <time>2019-07-04T12:11:37Z</time>
      </trkpt>
      <trkpt lat="68.40741" lon="14.70779">
        <ele>10</ele>
        <time>2019-07-04T12:11:56Z</time>
      </trkpt>
      <trkpt lat="68.40771" lon="14.7079">
        <ele>10</ele>
        <time>2019-07-04T12:12:18Z</time>
      </trkpt>
      <trkpt lat="68.41143" lon="14.70588">
        <ele>10</ele>
        <time>2019-07-04T12:12:57Z</time>
      </trkpt>
      <trkpt lat="68.4122" lon="14.70572">
        <ele>11</ele>
        <time>2019-07-04T12:13:07Z</time>
      </trkpt>
      <trkpt lat="68.41502" lon="14.707">
        <ele>11</ele>
        <time>2019-07-04T12:13:18Z</time>
      </trkpt>
      <trkpt lat="68.41706" lon="14.70626">
        <ele>11</ele>
        <time>2019-07-04T12:13:43Z</time>
      </trkpt>
      <trkpt lat="68.41865" lon="14.70533">
        <ele>12</ele>
        <time>2019-07-04T12:13:53Z</time>
      </trkpt>
      <trkpt lat="68.41968" lon="14.70507">
        <ele>14</ele>
        <time>2019-07-04T12:14:03Z</time>
      </trkpt>
      <trkpt lat="68.42214" lon="14.70524">
        <ele>15</ele>
        <time>2019-07-04T12:14:09Z</time>
      </trkpt>
      <trkpt lat="68.42336" lon="14.70559">
        <ele>17</ele>
        <time>2019-07-04T12:14:19Z</time>
      </trkpt>
      <trkpt lat="68.42651" lon="14.70856">
        <ele>18</ele>
        <time>2019-07-04T12:14:26Z</time>
      </trkpt>
      <trkpt lat="68.43087" lon="14.71657">
        <ele>19</ele>
        <time>2019-07-04T12:24:09Z</time>
      </trkpt>
      <trkpt lat="68.43172" lon="14.71938">
        <ele>17</ele>
        <time>2019-07-04T12:24:31Z</time>
      </trkpt>
      <trkpt lat="68.43328" lon="14.72326">
        <ele>14</ele>
        <time>2019-07-04T12:24:42Z</time>
      </trkpt>
      <trkpt lat="68.43502" lon="14.72997">
        <ele>12</ele>
        <time>2019-07-04T12:26:45Z</time>
      </trkpt>
      <trkpt lat="68.43502" lon="14.73975">
        <ele>10</ele>
        <time>2019-07-04T12:26:51Z</time>
      </trkpt>
      <trkpt lat="68.43372" lon="14.75878">
        <ele>8</ele>
        <time>2019-07-04T12:27:03Z</time>
      </trkpt>
      <trkpt lat="68.43359" lon="14.76843">
        <ele>8</ele>
        <time>2019-07-04T12:27:21Z</time>
      </trkpt>
      <trkpt lat="68.43306" lon="14.77398">
        <ele>12</ele>
        <time>2019-07-04T12:27:36Z</time>
      </trkpt>
      <trkpt lat="68.4332" lon="14.78142">
        <ele>17</ele>
        <time>2019-07-04T12:27:42Z</time>
      </trkpt>
      <trkpt lat="68.43259" lon="14.78809">
        <ele>21</ele>
        <time>2019-07-04T12:27:51Z</time>
      </trkpt>
      <trkpt lat="68.43212" lon="14.79727">
        <ele>25</ele>
        <time>2019-07-04T12:28:06Z</time>
      </trkpt>
      <trkpt lat="68.43215" lon="14.8034">
        <ele>29</ele>
        <time>2019-07-04T12:28:32Z</time>
      </trkpt>
      <trkpt lat="68.43123" lon="14.81583">
        <ele>24</ele>
        <time>2019-07-04T12:28:46Z</time>
      </trkpt>
      <trkpt lat="68.43089" lon="14.81882">
        <ele>20</ele>
        <time>2019-07-04T12:28:57Z</time>
      </trkpt>
      <trkpt lat="68.43057" lon="14.81972">
        <ele>16</ele>
        <time>2019-07-04T12:29:07Z</time>
      </trkpt>
      <trkpt lat="68.43033" lon="14.81999">
        <ele>11</ele>
        <time>2019-07-04T12:29:19Z</time>
      </trkpt>
      <trkpt lat="68.42928" lon="14.81964">
        <ele>7</ele>
        <time>2019-07-04T12:29:48Z</time>
      </trkpt>
      <trkpt lat="68.42906" lon="14.81997">
        <ele>4</ele>
        <time>2019-07-04T12:30:00Z</time>
      </trkpt>
      <trkpt lat="68.42868" lon="14.81984">
        <ele>3</ele>
        <time>2019-07-04T12:30:09Z</time>
      </trkpt>
      <trkpt lat="68.42997" lon="14.82162">
        <ele>3</ele>
        <time>2019-07-04T12:30:17Z</time>
      </trkpt>
      <trkpt lat="68.4309" lon="14.82414">
        <ele>2</ele>
        <time>2019-07-04T12:30:26Z</time>
      </trkpt>
      <trkpt lat="68.43103" lon="14.8246">
        <ele>2</ele>
        <time>2019-07-04T12:30:40Z</time>
      </trkpt>
      <trkpt lat="68.43068" lon="14.82469">
        <ele>2</ele>
        <time>2019-07-04T12:30:47Z</time>
      </trkpt>
      <trkpt lat="68.43065" lon="14.8267">
        <ele>1</ele>
        <time>2019-07-04T12:30:53Z</time>
      </trkpt>
      <trkpt lat="68.43124" lon="14.82608">
        <ele>1</ele>
        <time>2019-07-04T12:31:10Z</time>
      </trkpt>
      <trkpt lat="68.4309" lon="14.82537">
        <ele>1</ele>
        <time>2019-07-04T12:31:29Z</time>
      </trkpt>
      <trkpt lat="68.43198" lon="14.82903">
        <time>2019-07-04T12:32:03Z</time>
      </trkpt>
      <trkpt lat="68.43483" lon="14.83531">
        <time>2019-07-04T12:32:17Z</time>
      </trkpt>
      <trkpt lat="68.43758" lon="14.84039">
        <time>2019-07-04T12:32:33Z</time>
      </trkpt>
      <trkpt lat="68.44089" lon="14.84234">
        <time>2019-07-04T12:32:41Z</time>
      </trkpt>
      <trkpt lat="68.44692" lon="14.84498">
        <time>2019-07-04T12:32:52Z</time>
      </trkpt>
      <trkpt lat="68.448" lon="14.8454">
        <time>2019-07-04T12:33:12Z</time>
      </trkpt>
      <trkpt lat="68.44989" lon="14.84519">
        <time>2019-07-04T12:33:34Z</time>
      </trkpt>
      <trkpt lat="68.4658" lon="14.83232">
        <time>2019-07-04T12:33:52Z</time>
      </trkpt>
      <trkpt lat="68.48501" lon="14.81723">
        <time>2019-07-04T12:34:03Z</time>
      </trkpt>
      <trkpt lat="68.49029" lon="14.81342">
        <time>2019-07-04T12:34:14Z</time>
      </trkpt>
      <trkpt lat="68.49636" lon="14.8096">
        <time>2019-07-04T12:34:36Z</time>
      </trkpt>
      <trkpt lat="68.49746" lon="14.80724">
        <time>2019-07-04T12:34:46Z</time>
      </trkpt>
      <trkpt lat="68.49854" lon="14.80281">
        <time>2019-07-04T12:35:00Z</time>
      </trkpt>
      <trkpt lat="68.49881" lon="14.79875">
        <ele>3</ele>
        <time>2019-07-04T12:35:10Z</time>
      </trkpt>
      <trkpt lat="68.49916" lon="14.79853">
        <ele>3</ele>
        <time>2019-07-04T12:35:31Z</time>
      </trkpt>
      <trkpt lat="68.49909" lon="14.79887">
        <ele>1</ele>
        <time>2019-07-04T12:36:03Z</time>
      </trkpt>
      <trkpt lat="68.49931" lon="14.79854">
        <ele>2</ele>
        <time>2019-07-04T12:36:07Z</time>
      </trkpt>
      <trkpt lat="68.50078" lon="14.79972">
        <ele>3</ele>
        <time>2019-07-04T12:36:15Z</time>
      </trkpt>
      <trkpt lat="68.50128" lon="14.80132">
        <ele>4</ele>
        <time>2019-07-04T12:36:26Z</time>
      </trkpt>
      <trkpt lat="68.50181" lon="14.80768">
        <ele>5</ele>
        <time>2019-07-04T12:36:35Z</time>
      </trkpt>
      <trkpt lat="68.50168" lon="14.81528">
        <ele>6</ele>
        <time>2019-07-04T12:36:52Z</time>
      </trkpt>
      <trkpt lat="68.5022" lon="14.82853">
        <ele>9</ele>
        <time>2019-07-04T12:37:10Z</time>
      </trkpt>
      <trkpt lat="68.50288" lon="14.83849">
        <ele>11</ele>
        <time>2019-07-04T12:37:21Z</time>
      </trkpt>
      <trkpt lat="68.503" lon="14.84367">
        <ele>14</ele>
        <time>2019-07-04T12:37:32Z</time>
      </trkpt>
      <trkpt lat="68.50261" lon="14.85693">
        <ele>17</ele>
        <time>2019-07-04T12:37:42Z</time>
      </trkpt>
      <trkpt lat="68.50314" lon="14.87213">
        <ele>19</ele>
        <time>2019-07-04T12:38:14Z</time>
      </trkpt>
      <trkpt lat="68.50293" lon="14.88251">
        <ele>21</ele>
        <time>2019-07-04T12:38:24Z</time>
      </trkpt>
      <trkpt lat="68.50431" lon="14.89214">
        <ele>20</ele>
        <time>2019-07-04T12:38:36Z</time>
      </trkpt>
      <trkpt lat="68.50516" lon="14.90032">
        <ele>19</ele>
        <time>2019-07-04T12:38:46Z</time>
      </trkpt>
      <trkpt lat="68.50659" lon="14.90593">
        <ele>18</ele>
        <time>2019-07-04T12:38:58Z</time>
      </trkpt>
      <trkpt lat="68.50789" lon="14.91297">
        <ele>17</ele>
        <time>2019-07-04T12:39:21Z</time>
      </trkpt>
      <trkpt lat="68.51056" lon="14.92355">
        <ele>16</ele>
        <time>2019-07-04T12:39:35Z</time>
      </trkpt>
      <trkpt lat="68.51674" lon="14.9353">
        <ele>16</ele>
        <time>2019-07-04T12:39:48Z</time>
      </trkpt>
      <trkpt lat="68.52141" lon="14.94695">
        <ele>14</ele>
        <time>2019-07-04T12:40:08Z</time>
      </trkpt>
      <trkpt lat="68.52259" lon="14.94934">
        <ele>12</ele>
        <time>2019-07-04T12:40:19Z</time>
      </trkpt>
      <trkpt lat="68.52392" lon="14.95625">
        <ele>9</ele>
        <time>2019-07-04T12:40:45Z</time>
      </trkpt>
      <trkpt lat="68.52484" lon="14.9592">
        <ele>7</ele>
        <time>2019-07-04T12:40:51Z</time>
      </trkpt>
      <trkpt lat="68.52647" lon="14.96211">
        <ele>5</ele>
        <time>2019-07-04T12:40:58Z</time>
      </trkpt>
      <trkpt lat="68.52738" lon="14.96429">
        <ele>4</ele>
        <time>2019-07-04T12:41:11Z</time>
      </trkpt>
      <trkpt lat="68.52815" lon="14.97024">
        <ele>4</ele>
        <time>2019-07-04T12:41:15Z</time>
      </trkpt>
      <trkpt lat="68.52888" lon="14.97291">
        <ele>4</ele>
        <time>2019-07-04T12:41:37Z</time>
      </trkpt>
      <trkpt lat="68.53158" lon="14.97902">
        <ele>4</ele>
        <time>2019-07-04T12:41:45Z</time>
      </trkpt>
      <trkpt lat="68.5342" lon="14.98598">
        <ele>5</ele>
        <time>2019-07-04T12:41:56Z</time>
      </trkpt>
      <trkpt lat="68.53653" lon="14.99091">
        <ele>5</ele>
        <time>2019-07-04T12:42:03Z</time>
      </trkpt>
      <trkpt lat="68.53807" lon="14.99521">
        <ele>5</ele>
        <time>2019-07-04T12:42:17Z</time>
      </trkpt>
      <trkpt lat="68.53922" lon="14.99674">
        <ele>9</ele>
        <time>2019-07-04T12:42:37Z</time>
      </trkpt>
      <trkpt lat="68.54024" lon="14.99663">
        <ele>13</ele>
        <time>2019-07-04T12:42:47Z</time>
      </trkpt>
      <trkpt lat="68.54365" lon="14.99259">
        <ele>17</ele>
        <time>2019-07-04T12:42:59Z</time>
      </trkpt>
      <trkpt lat="68.54459" lon="14.99188">
        <ele>21</ele>
        <time>2019-07-04T12:43:14Z</time>
      </trkpt>
      <trkpt lat="68.54604" lon="14.99131">
        <ele>25</ele>
        <time>2019-07-04T12:43:34Z</time>
      </trkpt>
      <trkpt lat="68.54937" lon="14.99131">
        <ele>22</ele>
        <time>2019-07-04T12:44:15Z</time>
      </trkpt>
      <trkpt lat="68.55052" lon="14.99069">
        <ele>19</ele>
        <time>2019-07-04T12:44:32Z</time>
      </trkpt>
      <trkpt lat="68.55165" lon="14.98909">
        <ele>17</ele>
        <time>2019-07-04T12:44:49Z</time>
      </trkpt>
      <trkpt lat="68.55246" lon="14.98705">
        <ele>14</ele>
        <time>2019-07-04T12:44:56Z</time>
      </trkpt>
      <trkpt lat="68.55296" lon="14.98495">
        <ele>11</ele>
        <time>2019-07-04T12:45:06Z</time>
      </trkpt>
      <trkpt lat="68.55474" lon="14.97575">
        <ele>9</ele>
        <time>2019-07-04T12:45:35Z</time>
      </trkpt>
      <trkpt lat="68.55662" lon="14.96952">
        <ele>7</ele>
        <time>2019-07-04T12:45:46Z</time>
      </trkpt>
      <trkpt lat="68.55751" lon="14.95952">
        <ele>6</ele>
        <time>2019-07-04T12:45:56Z</time>
      </trkpt>
      <trkpt lat="68.55877" lon="14.95332">
        <ele>4</ele>
        <time>2019-07-04T12:46:05Z</time>
      </trkpt>
      <trkpt lat="68.55891" lon="14.94442">
        <ele>3</ele>
        <time>2019-07-04T12:46:12Z</time>
      </trkpt>
      <trkpt lat="68.55847" lon="14.92729">
        <ele>1</ele>
        <time>2019-07-04T12:46:40Z</time>
      </trkpt>
      <trkpt lat="68.56023" lon="14.91371">
        <ele>1</ele>
        <time>2019-07-04T12:46:54Z</time>
      </trkpt>
      <trkpt lat="68.55778" lon="14.91162">
        <ele>6</ele>
        <time>2019-07-04T12:46:59Z</time>
      </trkpt>
      <trkpt lat="68.55681" lon="14.91211">
        <ele>11</ele>
        <time>2019-07-04T12:47:10Z</time>
      </trkpt>
      <trkpt lat="68.55628" lon="14.91189">
        <ele>16</ele>
        <time>2019-07-04T12:47:25Z</time>
      </trkpt>
      <trkpt lat="68.55578" lon="14.91247">
        <ele>21</ele>
        <time>2019-07-04T12:47:46Z</time>
      </trkpt>
      <trkpt lat="68.55434" lon="14.91714">
        <ele>27</ele>
        <time>2019-07-04T12:47:53Z</time>
      </trkpt>
      <trkpt lat="68.55345" lon="14.92266">
        <ele>29</ele>
        <time>2019-07-04T12:47:58Z</time>
      </trkpt>
      <trkpt lat="68.55281" lon="14.92402">
        <ele>29</ele>
        <time>2019-07-04T12:48:05Z</time>
      </trkpt>
      <trkpt lat="68.55231" lon="14.92354">
        <ele>29</ele>
        <time>2019-07-04T12:48:19Z</time>
      </trkpt>
      <trkpt lat="68.55226" lon="14.92379">
        <ele>29</ele>
        <time>2019-07-04T12:48:44Z</time>
      </trkpt>
      <trkpt lat="68.55264" lon="14.92403">
        <ele>29</ele>
        <time>2019-07-04T12:48:53Z</time>
      </trkpt>
      <trkpt lat="68.55294" lon="14.92385">
        <ele>29</ele>
        <time>2019-07-04T12:49:03Z</time>
      </trkpt>
      <trkpt lat="68.55341" lon="14.92235">
        <ele>29</ele>
        <time>2019-07-04T12:49:17Z</time>
      </trkpt>
      <trkpt lat="68.55405" lon="14.91779">
        <ele>24</ele>
        <time>2019-07-04T12:49:31Z</time>
      </trkpt>
      <trkpt lat="68.55574" lon="14.91265">
        <ele>18</ele>
        <time>2019-07-04T12:49:55Z</time>
      </trkpt>
      <trkpt lat="68.55622" lon="14.912">
        <ele>13</ele>
        <time>2019-07-04T12:50:14Z</time>
      </trkpt>
      <trkpt lat="68.55691" lon="14.91216">
        <ele>7</ele>
        <time>2019-07-04T12:50:26Z</time>
      </trkpt>
      <trkpt lat="68.55777" lon="14.91176">
        <ele>2</ele>
        <time>2019-07-04T12:50:40Z</time>
      </trkpt>
      <trkpt lat="68.56004" lon="14.91367">
        <ele>1</ele>
        <time>2019-07-04T12:50:52Z</time>
      </trkpt>
      <trkpt lat="68.56029" lon="14.91347">
        <ele>1</ele>
        <time>2019-07-04T12:51:01Z</time>
      </trkpt>
      <trkpt lat="68.56051" lon="14.91115">
        <ele>2</ele>
        <time>2019-07-04T12:52:08Z</time>
      </trkpt>
      <trkpt lat="68.56228" lon="14.90995">
        <ele>2</ele>
        <time>2019-07-04T12:52:19Z</time>
      </trkpt>
      <trkpt lat="68.56345" lon="14.91095">
        <ele>2</ele>
        <time>2019-07-04T12:52:33Z</time>
      </trkpt>
      <trkpt lat="68.56442" lon="14.91221">
        <ele>2</ele>
        <time>2019-07-04T12:52:44Z</time>
      </trkpt>
      <trkpt lat="68.56484" lon="14.91108">
        <ele>2</ele>
        <time>2019-07-04T12:52:58Z</time>
      </trkpt>
      <trkpt lat="68.56566" lon="14.91207">
        <ele>1</ele>
        <time>2019-07-04T12:53:03Z</time>
      </trkpt>
      <trkpt lat="68.56657" lon="14.91261">
        <ele>1</ele>
        <time>2019-07-04T12:53:10Z</time>
      </trkpt>
      <trkpt lat="68.56812" lon="14.91281">
        <ele>1</ele>
        <time>2019-07-04T12:53:22Z</time>
      </trkpt>
      <trkpt lat="68.5683" lon="14.91382">
        <ele>1.3</ele>
        <time>2019-07-04T12:53:42Z</time>
      </trkpt>
      <trkpt lat="68.56831" lon="14.91317">
        <ele>2.6</ele>
        <time>2019-07-04T12:53:53Z</time>
      </trkpt>
      <trkpt lat="68.56864" lon="14.91248">
        <ele>2.9</ele>
        <time>2019-07-04T12:54:02Z</time>
      </trkpt>
      <trkpt lat="68.56921" lon="14.91148">
        <ele>3.8</ele>
        <time>2019-07-04T12:54:19Z</time>
      </trkpt>
      <trkpt lat="68.56949" lon="14.91141">
        <ele>3</ele>
        <time>2019-07-04T12:54:34Z</time>
      </trkpt>
      <trkpt lat="68.56921" lon="14.91152">
        <ele>3.8</ele>
        <time>2019-07-04T12:54:50Z</time>
      </trkpt>
      <trkpt lat="68.56764" lon="14.91403">
        <ele>1.5</ele>
        <time>2019-07-04T12:55:06Z</time>
      </trkpt>
      <trkpt lat="68.56673" lon="14.91416">
        <ele>2.8</ele>
        <time>2019-07-04T12:55:19Z</time>
      </trkpt>
      <trkpt lat="68.56581" lon="14.91528">
        <ele>3</ele>
        <time>2019-07-04T12:55:32Z</time>
      </trkpt>
      <trkpt lat="68.56928" lon="14.92359">
        <ele>6</ele>
        <time>2019-07-04T12:55:42Z</time>
      </trkpt>
      <trkpt lat="68.57117" lon="14.92681">
        <ele>9</ele>
        <time>2019-07-04T12:56:02Z</time>
      </trkpt>
      <trkpt lat="68.57201" lon="14.93095">
        <ele>12</ele>
        <time>2019-07-04T12:56:10Z</time>
      </trkpt>
      <trkpt lat="68.57182" lon="14.93852">
        <ele>16</ele>
        <time>2019-07-04T12:56:27Z</time>
      </trkpt>
      <trkpt lat="68.5707" lon="14.94751">
        <ele>17</ele>
        <time>2019-07-04T12:56:36Z</time>
      </trkpt>
      <trkpt lat="68.57029" lon="14.94898">
        <ele>14</ele>
        <time>2019-07-04T12:56:47Z</time>
      </trkpt>
      <trkpt lat="68.56973" lon="14.95841">
        <ele>10</ele>
        <time>2019-07-04T12:56:50Z</time>
      </trkpt>
      <trkpt lat="68.56899" lon="14.96462">
        <ele>7</ele>
        <time>2019-07-04T12:57:05Z</time>
      </trkpt>
      <trkpt lat="68.56975" lon="14.98658">
        <ele>4</ele>
        <time>2019-07-04T12:57:12Z</time>
      </trkpt>
      <trkpt lat="68.57024" lon="14.99008">
        <ele>1</ele>
        <time>2019-07-04T12:57:26Z</time>
      </trkpt>
      <trkpt lat="68.57104" lon="14.99246">
        <time>2019-07-04T12:57:39Z</time>
      </trkpt>
      <trkpt lat="68.57311" lon="14.99576">
        <ele>2</ele>
        <time>2019-07-04T12:57:55Z</time>
      </trkpt>
      <trkpt lat="68.57457" lon="14.99726">
        <ele>4</ele>
        <time>2019-07-04T12:58:23Z</time>
      </trkpt>
      <trkpt lat="68.58229" lon="15.00306">
        <ele>6</ele>
        <time>2019-07-04T12:58:38Z</time>
      </trkpt>
      <trkpt lat="68.58341" lon="15.00544">
        <ele>8</ele>
        <time>2019-07-04T12:58:46Z</time>
      </trkpt>
      <trkpt lat="68.58394" lon="15.00978">
        <ele>9</ele>
        <time>2019-07-04T12:59:03Z</time>
      </trkpt>
      <trkpt lat="68.58273" lon="15.0221">
        <ele>10</ele>
        <time>2019-07-04T12:59:27Z</time>
      </trkpt>
      <trkpt lat="68.58259" lon="15.02989">
        <ele>8</ele>
        <time>2019-07-04T12:59:59Z</time>
      </trkpt>
      <trkpt lat="68.5833" lon="15.04225">
        <ele>6</ele>
        <time>2019-07-04T01:00:07Z</time>
      </trkpt>
      <trkpt lat="68.58455" lon="15.04964">
        <ele>5</ele>
        <time>2019-07-04T01:00:20Z</time>
      </trkpt>
      <trkpt lat="68.58583" lon="15.05343">
        <ele>3</ele>
        <time>2019-07-04T01:00:27Z</time>
      </trkpt>
      <trkpt lat="68.59713" lon="15.07525">
        <ele>2</ele>
        <time>2019-07-04T01:00:35Z</time>
      </trkpt>
      <trkpt lat="68.60021" lon="15.0864">
        <ele>2</ele>
        <time>2019-07-04T01:01:03Z</time>
      </trkpt>
      <trkpt lat="68.60254" lon="15.09241">
        <ele>3</ele>
        <time>2019-07-04T01:01:17Z</time>
      </trkpt>
      <trkpt lat="68.60476" lon="15.10053">
        <ele>3</ele>
        <time>2019-07-04T01:01:27Z</time>
      </trkpt>
      <trkpt lat="68.60877" lon="15.11249">
        <ele>3</ele>
        <time>2019-07-04T01:01:32Z</time>
      </trkpt>
      <trkpt lat="68.6094" lon="15.11379">
        <ele>4</ele>
        <time>2019-07-04T01:01:37Z</time>
      </trkpt>
      <trkpt lat="68.61444" lon="15.12946">
        <ele>4</ele>
        <time>2019-07-04T01:01:54Z</time>
      </trkpt>
      <trkpt lat="68.61524" lon="15.13367">
        <ele>6</ele>
        <time>2019-07-04T01:02:14Z</time>
      </trkpt>
      <trkpt lat="68.61572" lon="15.1385">
        <ele>7</ele>
        <time>2019-07-04T01:02:28Z</time>
      </trkpt>
      <trkpt lat="68.61566" lon="15.15551">
        <ele>9</ele>
        <time>2019-07-04T01:02:40Z</time>
      </trkpt>
      <trkpt lat="68.61588" lon="15.15949">
        <ele>11</ele>
        <time>2019-07-04T01:02:52Z</time>
      </trkpt>
      <trkpt lat="68.61665" lon="15.16377">
        <ele>12</ele>
        <time>2019-07-04T01:03:20Z</time>
      </trkpt>
      <trkpt lat="68.62405" lon="15.1845">
        <ele>13</ele>
        <time>2019-07-04T01:03:34Z</time>
      </trkpt>
      <trkpt lat="68.62585" lon="15.18809">
        <ele>13</ele>
        <time>2019-07-04T01:03:43Z</time>
      </trkpt>
      <trkpt lat="68.62813" lon="15.19379">
        <ele>13</ele>
        <time>2019-07-04T01:03:57Z</time>
      </trkpt>
      <trkpt lat="68.6301" lon="15.20041">
        <ele>12</ele>
        <time>2019-07-04T01:04:20Z</time>
      </trkpt>
      <trkpt lat="68.63119" lon="15.2055">
        <ele>12</ele>
        <time>2019-07-04T01:04:52Z</time>
      </trkpt>
      <trkpt lat="68.63188" lon="15.20762">
        <ele>12</ele>
        <time>2019-07-04T01:05:12Z</time>
      </trkpt>
      <trkpt lat="68.63311" lon="15.20998">
        <ele>11</ele>
        <time>2019-07-04T01:05:22Z</time>
      </trkpt>
      <trkpt lat="68.63356" lon="15.21559">
        <ele>11</ele>
        <time>2019-07-04T01:05:29Z</time>
      </trkpt>
      <trkpt lat="68.63359" lon="15.22035">
        <ele>11</ele>
        <time>2019-07-04T01:05:36Z</time>
      </trkpt>
      <trkpt lat="68.63441" lon="15.22856">
        <ele>10</ele>
        <time>2019-07-04T01:06:01Z</time>
      </trkpt>
      <trkpt lat="68.63408" lon="15.23658">
        <ele>10</ele>
        <time>2019-07-04T01:06:09Z</time>
      </trkpt>
      <trkpt lat="68.63552" lon="15.24586">
        <ele>10</ele>
        <time>2019-07-04T01:06:18Z</time>
      </trkpt>
      <trkpt lat="68.63673" lon="15.25053">
        <ele>10</ele>
        <time>2019-07-04T01:06:27Z</time>
      </trkpt>
      <trkpt lat="68.63793" lon="15.25194">
        <ele>8</ele>
        <time>2019-07-04T01:06:35Z</time>
      </trkpt>
      <trkpt lat="68.63892" lon="15.25577">
        <ele>7</ele>
        <time>2019-07-04T01:06:58Z</time>
      </trkpt>
      <trkpt lat="68.63963" lon="15.25738">
        <ele>6</ele>
        <time>2019-07-04T01:07:03Z</time>
      </trkpt>
      <trkpt lat="68.64131" lon="15.26353">
        <ele>4</ele>
        <time>2019-07-04T01:07:12Z</time>
      </trkpt>
      <trkpt lat="68.64165" lon="15.26597">
        <ele>3</ele>
        <time>2019-07-04T01:07:22Z</time>
      </trkpt>
      <trkpt lat="68.64589" lon="15.28207">
        <ele>3</ele>
        <time>2019-07-04T01:07:29Z</time>
      </trkpt>
      <trkpt lat="68.64617" lon="15.28566">
        <ele>3</ele>
        <time>2019-07-04T01:07:50Z</time>
      </trkpt>
      <trkpt lat="68.64635" lon="15.28539">
        <ele>2</ele>
        <time>2019-07-04T01:07:59Z</time>
      </trkpt>
      <trkpt lat="68.647" lon="15.29057">
        <ele>2</ele>
        <time>2019-07-04T01:08:08Z</time>
      </trkpt>
      <trkpt lat="68.64896" lon="15.29822">
        <ele>2</ele>
        <time>2019-07-04T01:08:18Z</time>
      </trkpt>
      <trkpt lat="68.6496" lon="15.3036">
        <ele>2</ele>
        <time>2019-07-04T01:08:29Z</time>
      </trkpt>
      <trkpt lat="68.65052" lon="15.30757">
        <ele>2</ele>
        <time>2019-07-04T01:08:48Z</time>
      </trkpt>
      <trkpt lat="68.65186" lon="15.32052">
        <ele>1</ele>
        <time>2019-07-04T01:08:56Z</time>
      </trkpt>
      <trkpt lat="68.65307" lon="15.32569">
        <ele>1</ele>
        <time>2019-07-04T01:09:04Z</time>
      </trkpt>
      <trkpt lat="68.657" lon="15.33878">
        <ele>1</ele>
        <time>2019-07-04T01:09:12Z</time>
      </trkpt>
      <trkpt lat="68.66111" lon="15.34822">
        <ele>4</ele>
        <time>2019-07-04T01:09:22Z</time>
      </trkpt>
      <trkpt lat="68.66129" lon="15.3494">
        <ele>3.5</ele>
        <time>2019-07-04T01:09:34Z</time>
      </trkpt>
      <trkpt lat="68.6633" lon="15.3557">
        <ele>1</ele>
        <time>2019-07-04T01:10:29Z</time>
      </trkpt>
      <trkpt lat="68.66534" lon="15.36051">
        <ele>1</ele>
        <time>2019-07-04T01:10:35Z</time>
      </trkpt>
      <trkpt lat="68.6678" lon="15.36878">
        <ele>2</ele>
        <time>2019-07-04T01:10:47Z</time>
      </trkpt>
      <trkpt lat="68.67088" lon="15.37733">
        <ele>3</ele>
        <time>2019-07-04T01:10:55Z</time>
      </trkpt>
      <trkpt lat="68.6726" lon="15.37914">
        <ele>3</ele>
        <time>2019-07-04T01:11:17Z</time>
      </trkpt>
      <trkpt lat="68.6759" lon="15.38377">
        <ele>4</ele>
        <time>2019-07-04T01:11:27Z</time>
      </trkpt>
      <trkpt lat="68.67848" lon="15.39101">
        <ele>4</ele>
        <time>2019-07-04T01:11:37Z</time>
      </trkpt>
      <trkpt lat="68.67976" lon="15.39386">
        <ele>5</ele>
        <time>2019-07-04T01:11:45Z</time>
      </trkpt>
      <trkpt lat="68.68403" lon="15.40146">
        <ele>5</ele>
        <time>2019-07-04T01:11:54Z</time>
      </trkpt>
      <trkpt lat="68.68555" lon="15.40487">
        <ele>6</ele>
        <time>2019-07-04T01:12:19Z</time>
      </trkpt>
      <trkpt lat="68.68817" lon="15.40977">
        <ele>6</ele>
        <time>2019-07-04T01:12:26Z</time>
      </trkpt>
      <trkpt lat="68.68971" lon="15.41119">
        <ele>7</ele>
        <time>2019-07-04T01:12:35Z</time>
      </trkpt>
      <trkpt lat="68.69731" lon="15.41327">
        <ele>6</ele>
        <time>2019-07-04T01:12:43Z</time>
      </trkpt>
      <trkpt lat="68.69672" lon="15.41586">
        <ele>5</ele>
        <time>2019-07-04T01:12:55Z</time>
      </trkpt>
      <trkpt lat="68.69628" lon="15.41669">
        <ele>3</ele>
        <time>2019-07-04T01:13:21Z</time>
      </trkpt>
      <trkpt lat="68.69592" lon="15.41663">
        <ele>2</ele>
        <time>2019-07-04T01:13:33Z</time>
      </trkpt>
      <trkpt lat="68.69568" lon="15.41876">
        <ele>1</ele>
        <time>2019-07-04T01:13:50Z</time>
      </trkpt>
      <trkpt lat="68.69546" lon="15.41881">
        <ele>1</ele>
        <time>2019-07-04T01:14:00Z</time>
      </trkpt>
      <trkpt lat="68.69582" lon="15.41697">
        <ele>2</ele>
        <time>2019-07-04T01:14:10Z</time>
      </trkpt>
      <trkpt lat="68.69644" lon="15.41705">
        <ele>3</ele>
        <time>2019-07-04T01:14:30Z</time>
      </trkpt>
      <trkpt lat="68.69701" lon="15.41857">
        <ele>3</ele>
        <time>2019-07-04T01:14:39Z</time>
      </trkpt>
      <trkpt lat="68.69646" lon="15.41728">
        <ele>4</ele>
        <time>2019-07-04T01:14:47Z</time>
      </trkpt>
      <trkpt lat="68.69594" lon="15.41681">
        <ele>5</ele>
        <time>2019-07-04T01:14:57Z</time>
      </trkpt>
      <trkpt lat="68.69567" lon="15.4186">
        <ele>4</ele>
        <time>2019-07-04T01:15:10Z</time>
      </trkpt>
      <trkpt lat="68.69595" lon="15.41836">
        <ele>4</ele>
        <time>2019-07-04T01:15:29Z</time>
      </trkpt>
      <trkpt lat="68.69583" lon="15.4185">
        <ele>3</ele>
        <time>2019-07-04T01:15:40Z</time>
      </trkpt>
      <trkpt lat="68.69564" lon="15.41833">
        <ele>3</ele>
        <time>2019-07-04T01:15:48Z</time>
      </trkpt>
      <trkpt lat="68.6959" lon="15.41828">
        <ele>3</ele>
        <time>2019-07-04T01:15:57Z</time>
      </trkpt>
      <trkpt lat="68.69579" lon="15.41814">
        <ele>2</ele>
        <time>2019-07-04T01:16:06Z</time>
      </trkpt>
      <trkpt lat="68.69583" lon="15.4187">
        <ele>4</ele>
        <time>2019-07-04T01:16:27Z</time>
      </trkpt>
      <trkpt lat="68.69581" lon="15.41711">
        <ele>6</ele>
        <time>2019-07-04T01:16:43Z</time>
      </trkpt>
      <trkpt lat="68.69647" lon="15.41677">
        <ele>8</ele>
        <time>2019-07-04T01:16:52Z</time>
      </trkpt>
      <trkpt lat="68.69726" lon="15.41345">
        <ele>10</ele>
        <time>2019-07-04T01:17:00Z</time>
      </trkpt>
      <trkpt lat="68.69848" lon="15.41368">
        <ele>11</ele>
        <time>2019-07-04T01:17:08Z</time>
      </trkpt>
      <trkpt lat="68.69967" lon="15.41422">
        <ele>12</ele>
        <time>2019-07-04T01:17:22Z</time>
      </trkpt>
      <trkpt lat="68.70226" lon="15.41444">
        <ele>11</ele>
        <time>2019-07-04T01:17:37Z</time>
      </trkpt>
      <trkpt lat="68.70411" lon="15.4131">
        <ele>9</ele>
        <time>2019-07-04T01:17:43Z</time>
      </trkpt>
      <trkpt lat="68.70597" lon="15.41252">
        <ele>7</ele>
        <time>2019-07-04T01:17:51Z</time>
      </trkpt>
      <trkpt lat="68.70628" lon="15.41594">
        <ele>5</ele>
        <time>2019-07-04T01:18:34Z</time>
      </trkpt>
      <trkpt lat="68.70649" lon="15.42425">
        <ele>3</ele>
        <time>2019-07-04T01:18:52Z</time>
      </trkpt>
      <trkpt lat="68.70664" lon="15.44197">
        <ele>2</ele>
        <time>2019-07-04T01:18:59Z</time>
      </trkpt>
      <trkpt lat="68.70855" lon="15.44141">
        <ele>4</ele>
        <time>2019-07-04T01:19:06Z</time>
      </trkpt>
      <trkpt lat="68.71501" lon="15.44064">
        <ele>6</ele>
        <time>2019-07-04T01:19:23Z</time>
      </trkpt>
      <trkpt lat="68.71559" lon="15.44066">
        <ele>8</ele>
        <time>2019-07-04T01:19:32Z</time>
      </trkpt>
      <trkpt lat="68.71631" lon="15.44111">
        <ele>11</ele>
        <time>2019-07-04T01:19:52Z</time>
      </trkpt>
      <trkpt lat="68.7168" lon="15.44202">
        <ele>13</ele>
        <time>2019-07-04T01:20:01Z</time>
      </trkpt>
      <trkpt lat="68.71798" lon="15.45322">
        <ele>13</ele>
        <time>2019-07-04T01:20:12Z</time>
      </trkpt>
      <trkpt lat="68.71977" lon="15.45878">
        <ele>12</ele>
        <time>2019-07-04T01:20:25Z</time>
      </trkpt>
      <trkpt lat="68.72045" lon="15.46316">
        <ele>10</ele>
        <time>2019-07-04T01:20:32Z</time>
      </trkpt>
      <trkpt lat="68.72335" lon="15.47084">
        <ele>9</ele>
        <time>2019-07-04T01:22:28Z</time>
      </trkpt>
      <trkpt lat="68.72518" lon="15.477">
        <ele>8</ele>
        <time>2019-07-04T01:22:35Z</time>
      </trkpt>
      <trkpt lat="68.72496" lon="15.47925">
        <ele>6</ele>
        <time>2019-07-04T01:22:52Z</time>
      </trkpt>
      <trkpt lat="68.72319" lon="15.48683">
        <ele>6</ele>
        <time>2019-07-04T01:23:02Z</time>
      </trkpt>
      <trkpt lat="68.72276" lon="15.49323">
        <ele>7</ele>
        <time>2019-07-04T01:23:06Z</time>
      </trkpt>
      <trkpt lat="68.7216" lon="15.49934">
        <ele>7</ele>
        <time>2019-07-04T01:24:04Z</time>
      </trkpt>
      <trkpt lat="68.72094" lon="15.5065">
        <ele>8</ele>
        <time>2019-07-04T01:24:10Z</time>
      </trkpt>
      <trkpt lat="68.7209" lon="15.51053">
        <ele>8</ele>
        <time>2019-07-04T01:24:16Z</time>
      </trkpt>
      <trkpt lat="68.72147" lon="15.52007">
        <ele>9</ele>
        <time>2019-07-04T01:24:19Z</time>
      </trkpt>
      <trkpt lat="68.7218" lon="15.52221">
        <ele>7</ele>
        <time>2019-07-04T01:24:22Z</time>
      </trkpt>
      <trkpt lat="68.72233" lon="15.52356">
        <ele>6</ele>
        <time>2019-07-04T01:24:28Z</time>
      </trkpt>
      <trkpt lat="68.72276" lon="15.52409">
        <ele>5</ele>
        <time>2019-07-04T01:24:32Z</time>
      </trkpt>
      <trkpt lat="68.72389" lon="15.52406">
        <ele>4</ele>
        <time>2019-07-04T01:24:36Z</time>
      </trkpt>
      <trkpt lat="68.73188" lon="15.52099">
        <ele>2</ele>
        <time>2019-07-04T01:24:38Z</time>
      </trkpt>
      <trkpt lat="68.73402" lon="15.52163">
        <ele>1</ele>
        <time>2019-07-04T01:24:41Z</time>
      </trkpt>
      <trkpt lat="68.73459" lon="15.5216">
        <ele>4</ele>
        <time>2019-07-04T01:24:46Z</time>
      </trkpt>
      <trkpt lat="68.73743" lon="15.51923">
        <ele>6</ele>
        <time>2019-07-04T01:24:49Z</time>
      </trkpt>
      <trkpt lat="68.74139" lon="15.51834">
        <ele>8</ele>
        <time>2019-07-04T01:24:51Z</time>
      </trkpt>
      <trkpt lat="68.74227" lon="15.51617">
        <ele>10</ele>
        <time>2019-07-04T01:24:57Z</time>
      </trkpt>
      <trkpt lat="68.74395" lon="15.50869">
        <ele>12</ele>
        <time>2019-07-04T01:25:01Z</time>
      </trkpt>
      <trkpt lat="68.74528" lon="15.50604">
        <ele>14</ele>
        <time>2019-07-04T01:25:08Z</time>
      </trkpt>
      <trkpt lat="68.74758" lon="15.50336">
        <ele>12</ele>
        <time>2019-07-04T01:25:12Z</time>
      </trkpt>
      <trkpt lat="68.74842" lon="15.50091">
        <ele>10</ele>
        <time>2019-07-04T01:25:14Z</time>
      </trkpt>
      <trkpt lat="68.75062" lon="15.49064">
        <ele>8</ele>
        <time>2019-07-04T01:25:17Z</time>
      </trkpt>
      <trkpt lat="68.752" lon="15.47521">
        <ele>6</ele>
        <time>2019-07-04T01:25:19Z</time>
      </trkpt>
      <trkpt lat="68.75412" lon="15.46777">
        <ele>4</ele>
        <time>2019-07-04T01:25:25Z</time>
      </trkpt>
      <trkpt lat="68.75467" lon="15.4665">
        <ele>3</ele>
        <time>2019-07-04T01:25:28Z</time>
      </trkpt>
      <trkpt lat="68.75522" lon="15.46605">
        <ele>5</ele>
        <time>2019-07-04T01:25:30Z</time>
      </trkpt>
      <trkpt lat="68.75688" lon="15.46774">
        <ele>6</ele>
        <time>2019-07-04T01:25:32Z</time>
      </trkpt>
      <trkpt lat="68.75796" lon="15.46793">
        <ele>8</ele>
        <time>2019-07-04T01:25:35Z</time>
      </trkpt>
      <trkpt lat="68.75863" lon="15.46771">
        <ele>10</ele>
        <time>2019-07-04T01:25:40Z</time>
      </trkpt>
      <trkpt lat="68.76053" lon="15.46568">
        <ele>12</ele>
        <time>2019-07-04T01:25:45Z</time>
      </trkpt>
      <trkpt lat="68.76217" lon="15.46524">
        <ele>12</ele>
        <time>2019-07-04T01:25:47Z</time>
      </trkpt>
      <trkpt lat="68.76473" lon="15.46256">
        <ele>11</ele>
        <time>2019-07-04T01:25:49Z</time>
      </trkpt>
      <trkpt lat="68.76525" lon="15.4626">
        <ele>9</ele>
        <time>2019-07-04T01:25:51Z</time>
      </trkpt>
      <trkpt lat="68.76615" lon="15.4638">
        <ele>7</ele>
        <time>2019-07-04T01:25:57Z</time>
      </trkpt>
      <trkpt lat="68.76747" lon="15.46702">
        <ele>5</ele>
        <time>2019-07-04T01:26:00Z</time>
      </trkpt>
      <trkpt lat="68.76901" lon="15.46784">
        <ele>3</ele>
        <time>2019-07-04T01:26:07Z</time>
      </trkpt>
      <trkpt lat="68.77012" lon="15.46975">
        <ele>3</ele>
        <time>2019-07-04T01:26:10Z</time>
      </trkpt>
      <trkpt lat="68.77233" lon="15.47554">
        <ele>3</ele>
        <time>2019-07-04T01:26:14Z</time>
      </trkpt>
      <trkpt lat="68.77285" lon="15.47772">
        <ele>2</ele>
        <time>2019-07-04T01:26:25Z</time>
      </trkpt>
      <trkpt lat="68.77508" lon="15.48191">
        <ele>2</ele>
        <time>2019-07-04T01:26:31Z</time>
      </trkpt>
      <trkpt lat="68.77651" lon="15.4835">
        <ele>2</ele>
        <time>2019-07-04T01:26:37Z</time>
      </trkpt>
      <trkpt lat="68.77797" lon="15.48409">
        <ele>2</ele>
        <time>2019-07-04T01:26:53Z</time>
      </trkpt>
      <trkpt lat="68.78086" lon="15.48749">
        <ele>8</ele>
        <time>2019-07-04T01:27:14Z</time>
      </trkpt>
      <trkpt lat="68.78605" lon="15.49017">
        <ele>14</ele>
        <time>2019-07-04T01:27:28Z</time>
      </trkpt>
      <trkpt lat="68.78715" lon="15.49157">
        <ele>21</ele>
        <time>2019-07-04T01:27:36Z</time>
      </trkpt>
      <trkpt lat="68.78935" lon="15.4988">
        <ele>27</ele>
        <time>2019-07-04T01:27:44Z</time>
      </trkpt>
      <trkpt lat="68.79453" lon="15.51385">
        <ele>34</ele>
        <time>2019-07-04T01:27:52Z</time>
      </trkpt>
      <trkpt lat="68.79507" lon="15.51612">
        <ele>39</ele>
        <time>2019-07-04T01:28:07Z</time>
      </trkpt>
      <trkpt lat="68.79714" lon="15.53012">
        <ele>32</ele>
        <time>2019-07-04T01:28:38Z</time>
      </trkpt>
      <trkpt lat="68.79766" lon="15.53219">
        <ele>26</ele>
        <time>2019-07-04T01:29:00Z</time>
      </trkpt>
      <trkpt lat="68.79983" lon="15.53549">
        <ele>19</ele>
        <time>2019-07-04T01:29:14Z</time>
      </trkpt>
      <trkpt lat="68.80123" lon="15.53811">
        <ele>12</ele>
        <time>2019-07-04T01:29:26Z</time>
      </trkpt>
      <trkpt lat="68.80269" lon="15.54441">
        <ele>6</ele>
        <time>2019-07-04T01:29:36Z</time>
      </trkpt>
      <trkpt lat="68.80313" lon="15.54496">
        <ele>2</ele>
        <time>2019-07-04T01:30:02Z</time>
      </trkpt>
      <trkpt lat="68.80473" lon="15.54514">
        <ele>4</ele>
        <time>2019-07-04T01:30:14Z</time>
      </trkpt>
      <trkpt lat="68.8065" lon="15.54608">
        <ele>6</ele>
        <time>2019-07-04T01:30:31Z</time>
      </trkpt>
      <trkpt lat="68.80812" lon="15.54504">
        <ele>8</ele>
        <time>2019-07-04T01:30:43Z</time>
      </trkpt>
      <trkpt lat="68.81279" lon="15.54348">
        <ele>10</ele>
        <time>2019-07-04T01:30:52Z</time>
      </trkpt>
      <trkpt lat="68.81332" lon="15.54377">
        <ele>12</ele>
        <time>2019-07-04T01:31:14Z</time>
      </trkpt>
      <trkpt lat="68.81949" lon="15.56535">
        <ele>12</ele>
        <time>2019-07-04T01:31:21Z</time>
      </trkpt>
      <trkpt lat="68.81978" lon="15.56795">
        <ele>10</ele>
        <time>2019-07-04T01:31:26Z</time>
      </trkpt>
      <trkpt lat="68.8192" lon="15.57708">
        <ele>8</ele>
        <time>2019-07-04T01:31:49Z</time>
      </trkpt>
      <trkpt lat="68.81628" lon="15.6087">
        <ele>6</ele>
        <time>2019-07-04T01:31:57Z</time>
      </trkpt>
      <trkpt lat="68.81669" lon="15.61975">
        <ele>4</ele>
        <time>2019-07-04T01:32:24Z</time>
      </trkpt>
      <trkpt lat="68.81653" lon="15.6256">
        <ele>1</ele>
        <time>2019-07-04T01:32:29Z</time>
      </trkpt>
      <trkpt lat="68.81605" lon="15.63111">
        <ele>1</ele>
        <time>2019-07-04T01:32:33Z</time>
      </trkpt>
      <trkpt lat="68.815" lon="15.63429">
        <ele>1</ele>
        <time>2019-07-04T01:32:40Z</time>
      </trkpt>
      <trkpt lat="68.81456" lon="15.63745">
        <ele>1</ele>
        <time>2019-07-04T01:32:55Z</time>
      </trkpt>
      <trkpt lat="68.81307" lon="15.65606">
        <ele>1</ele>
        <time>2019-07-04T01:33:29Z</time>
      </trkpt>
      <trkpt lat="68.81218" lon="15.66178">
        <ele>1</ele>
        <time>2019-07-04T01:33:33Z</time>
      </trkpt>
      <trkpt lat="68.81218" lon="15.66404">
        <ele>1</ele>
        <time>2019-07-04T01:33:45Z</time>
      </trkpt>
      <trkpt lat="68.81254" lon="15.66667">
        <ele>1</ele>
        <time>2019-07-04T01:33:53Z</time>
      </trkpt>
      <trkpt lat="68.8149" lon="15.6777">
        <ele>3</ele>
        <time>2019-07-04T01:34:07Z</time>
      </trkpt>
      <trkpt lat="68.81596" lon="15.68144">
        <ele>5</ele>
        <time>2019-07-04T01:34:22Z</time>
      </trkpt>
      <trkpt lat="68.81667" lon="15.68284">
        <ele>7</ele>
        <time>2019-07-04T01:34:28Z</time>
      </trkpt>
      <trkpt lat="68.81846" lon="15.68529">
        <ele>9</ele>
        <time>2019-07-04T01:34:35Z</time>
      </trkpt>
      <trkpt lat="68.81904" lon="15.6857">
        <ele>11</ele>
        <time>2019-07-04T01:34:39Z</time>
      </trkpt>
      <trkpt lat="68.81968" lon="15.68577">
        <ele>11</ele>
        <time>2019-07-04T01:34:44Z</time>
      </trkpt>
      <trkpt lat="68.82475" lon="15.68327">
        <ele>11</ele>
        <time>2019-07-04T01:34:52Z</time>
      </trkpt>
      <trkpt lat="68.8263" lon="15.68201">
        <ele>11</ele>
        <time>2019-07-04T01:35:02Z</time>
      </trkpt>
      <trkpt lat="68.82681" lon="15.68077">
        <ele>10</ele>
        <time>2019-07-04T01:35:07Z</time>
      </trkpt>
      <trkpt lat="68.8314" lon="15.66667">
        <ele>10</ele>
        <time>2019-07-04T01:35:09Z</time>
      </trkpt>
      <trkpt lat="68.832" lon="15.66373">
        <ele>10</ele>
        <time>2019-07-04T01:35:18Z</time>
      </trkpt>
      <trkpt lat="68.83434" lon="15.63381">
        <ele>10</ele>
        <time>2019-07-04T01:35:47Z</time>
      </trkpt>
      <trkpt lat="68.83776" lon="15.60949">
        <ele>11</ele>
        <time>2019-07-04T01:35:58Z</time>
      </trkpt>
      <trkpt lat="68.83914" lon="15.60356">
        <ele>11</ele>
        <time>2019-07-04T01:36:08Z</time>
      </trkpt>
      <trkpt lat="68.8435" lon="15.59109">
        <ele>11</ele>
        <time>2019-07-04T01:36:28Z</time>
      </trkpt>
      <trkpt lat="68.8563" lon="15.56186">
        <ele>11</ele>
        <time>2019-07-04T01:36:31Z</time>
      </trkpt>
      <trkpt lat="68.85749" lon="15.55988">
        <ele>11</ele>
        <time>2019-07-04T01:36:56Z</time>
      </trkpt>
      <trkpt lat="68.85824" lon="15.55963">
        <ele>9</ele>
        <time>2019-07-04T01:37:03Z</time>
      </trkpt>
      <trkpt lat="68.85992" lon="15.55849">
        <ele>8</ele>
        <time>2019-07-04T01:37:12Z</time>
      </trkpt>
      <trkpt lat="68.86207" lon="15.55624">
        <ele>6</ele>
        <time>2019-07-04T01:37:16Z</time>
      </trkpt>
      <trkpt lat="68.86296" lon="15.55606">
        <ele>4</ele>
        <time>2019-07-04T01:37:21Z</time>
      </trkpt>
      <trkpt lat="68.86522" lon="15.55686">
        <ele>2</ele>
        <time>2019-07-04T01:37:33Z</time>
      </trkpt>
      <trkpt lat="68.86771" lon="15.55904">
        <ele>1</ele>
        <time>2019-07-04T01:37:40Z</time>
      </trkpt>
      <trkpt lat="68.86905" lon="15.56074">
        <ele>2</ele>
        <time>2019-07-04T01:37:58Z</time>
      </trkpt>
      <trkpt lat="68.87707" lon="15.56819">
        <ele>3</ele>
        <time>2019-07-04T01:38:18Z</time>
      </trkpt>
      <trkpt lat="68.88666" lon="15.57282">
        <ele>4</ele>
        <time>2019-07-04T01:38:31Z</time>
      </trkpt>
      <trkpt lat="68.8881" lon="15.57544">
        <ele>6</ele>
        <time>2019-07-04T01:39:10Z</time>
      </trkpt>
      <trkpt lat="68.88924" lon="15.57926">
        <ele>7</ele>
        <time>2019-07-04T01:39:25Z</time>
      </trkpt>
      <trkpt lat="68.88935" lon="15.58199">
        <ele>7</ele>
        <time>2019-07-04T01:39:38Z</time>
      </trkpt>
      <trkpt lat="68.88646" lon="15.59083">
        <ele>7</ele>
        <time>2019-07-04T01:39:45Z</time>
      </trkpt>
      <trkpt lat="68.8844" lon="15.59301">
        <ele>6</ele>
        <time>2019-07-04T01:40:00Z</time>
      </trkpt>
      <trkpt lat="68.88404" lon="15.59373">
        <ele>6</ele>
        <time>2019-07-04T01:40:20Z</time>
      </trkpt>
      <trkpt lat="68.88376" lon="15.59549">
        <ele>6</ele>
        <time>2019-07-04T01:40:32Z</time>
      </trkpt>
      <trkpt lat="68.88407" lon="15.60205">
        <ele>6</ele>
        <time>2019-07-04T01:40:52Z</time>
      </trkpt>
      <trkpt lat="68.88529" lon="15.61268">
        <ele>6</ele>
        <time>2019-07-04T01:41:09Z</time>
      </trkpt>
      <trkpt lat="68.88568" lon="15.62136">
        <ele>5</ele>
        <time>2019-07-04T01:41:26Z</time>
      </trkpt>
      <trkpt lat="68.88596" lon="15.62304">
        <ele>4</ele>
        <time>2019-07-04T01:41:58Z</time>
      </trkpt>
      <trkpt lat="68.88639" lon="15.62381">
        <ele>2</ele>
        <time>2019-07-04T01:42:15Z</time>
      </trkpt>
      <trkpt lat="68.88641" lon="15.62351">
        <ele>1</ele>
        <time>2019-07-04T01:42:33Z</time>
      </trkpt>
      <trkpt lat="68.88675" lon="15.62407">
        <ele>1</ele>
        <time>2019-07-04T01:42:49Z</time>
      </trkpt>
      <trkpt lat="68.88902" lon="15.62455">
        <ele>3</ele>
        <time>2019-07-04T01:43:05Z</time>
      </trkpt>
      <trkpt lat="68.88996" lon="15.6243">
        <ele>6</ele>
        <time>2019-07-04T01:43:26Z</time>
      </trkpt>
      <trkpt lat="68.89064" lon="15.62373">
        <ele>9</ele>
        <time>2019-07-04T01:43:40Z</time>
      </trkpt>
      <trkpt lat="68.89172" lon="15.62204">
        <ele>11</ele>
        <time>2019-07-04T01:43:57Z</time>
      </trkpt>
      <trkpt lat="68.89397" lon="15.61576">
        <ele>14</ele>
        <time>2019-07-04T01:44:15Z</time>
      </trkpt>
      <trkpt lat="68.89527" lon="15.61378">
        <ele>16</ele>
        <time>2019-07-04T01:44:32Z</time>
      </trkpt>
      <trkpt lat="68.89657" lon="15.61293">
        <ele>16</ele>
        <time>2019-07-04T01:45:03Z</time>
      </trkpt>
      <trkpt lat="68.90411" lon="15.6134">
        <ele>17</ele>
        <time>2019-07-04T01:45:19Z</time>
      </trkpt>
      <trkpt lat="68.90556" lon="15.61327">
        <ele>17</ele>
        <time>2019-07-04T01:45:29Z</time>
      </trkpt>
      <trkpt lat="68.90945" lon="15.61382">
        <ele>17</ele>
        <time>2019-07-04T01:45:48Z</time>
      </trkpt>
      <trkpt lat="68.91301" lon="15.61371">
        <ele>17</ele>
        <time>2019-07-04T01:46:02Z</time>
      </trkpt>
      <trkpt lat="68.91491" lon="15.61432">
        <ele>18</ele>
        <time>2019-07-04T01:46:55Z</time>
      </trkpt>
      <trkpt lat="68.91602" lon="15.61494">
        <ele>17</ele>
        <time>2019-07-04T01:47:11Z</time>
      </trkpt>
      <trkpt lat="68.92226" lon="15.61882">
        <ele>16</ele>
        <time>2019-07-04T01:47:29Z</time>
      </trkpt>
      <trkpt lat="68.92373" lon="15.62016">
        <ele>15</ele>
        <time>2019-07-04T01:47:35Z</time>
      </trkpt>
      <trkpt lat="68.92775" lon="15.6267">
        <ele>14</ele>
        <time>2019-07-04T01:48:37Z</time>
      </trkpt>
      <trkpt lat="68.9389" lon="15.63725">
        <ele>13</ele>
        <time>2019-07-04T01:49:04Z</time>
      </trkpt>
      <trkpt lat="68.94142" lon="15.64086">
        <ele>13</ele>
        <time>2019-07-04T01:49:19Z</time>
      </trkpt>
      <trkpt lat="68.94287" lon="15.64176">
        <ele>12</ele>
        <time>2019-07-04T01:49:37Z</time>
      </trkpt>
      <trkpt lat="68.94828" lon="15.64698">
        <ele>12</ele>
        <time>2019-07-04T01:49:45Z</time>
      </trkpt>
      <trkpt lat="68.94873" lon="15.64825">
        <ele>11</ele>
        <time>2019-07-04T01:49:49Z</time>
      </trkpt>
      <trkpt lat="68.95076" lon="15.65957">
        <ele>11</ele>
        <time>2019-07-04T01:50:02Z</time>
      </trkpt>
      <trkpt lat="68.95144" lon="15.66196">
        <ele>10</ele>
        <time>2019-07-04T01:50:11Z</time>
      </trkpt>
      <trkpt lat="68.9526" lon="15.66393">
        <ele>10</ele>
        <time>2019-07-04T01:50:29Z</time>
      </trkpt>
      <trkpt lat="68.95328" lon="15.66444">
        <ele>8</ele>
        <time>2019-07-04T01:50:44Z</time>
      </trkpt>
      <trkpt lat="68.95422" lon="15.66454">
        <ele>6</ele>
        <time>2019-07-04T01:51:08Z</time>
      </trkpt>
      <trkpt lat="68.9554" lon="15.66382">
        <ele>4</ele>
        <time>2019-07-04T01:51:33Z</time>
      </trkpt>
      <trkpt lat="68.95672" lon="15.66232">
        <ele>2</ele>
        <time>2019-07-04T01:51:47Z</time>
      </trkpt>
      <trkpt lat="68.95871" lon="15.65845">
        <ele>1.8</ele>
        <time>2019-07-04T01:51:59Z</time>
      </trkpt>
      <trkpt lat="68.96689" lon="15.63103">
        <ele>2</ele>
        <time>2019-07-04T01:52:10Z</time>
      </trkpt>
      <trkpt lat="68.96795" lon="15.62828">
        <ele>4</ele>
        <time>2019-07-04T01:52:21Z</time>
      </trkpt>
      <trkpt lat="68.96906" lon="15.6269">
        <ele>7</ele>
        <time>2019-07-04T01:53:03Z</time>
      </trkpt>
      <trkpt lat="68.96977" lon="15.62672">
        <ele>9</ele>
        <time>2019-07-04T01:53:20Z</time>
      </trkpt>
      <trkpt lat="68.9709" lon="15.62758">
        <ele>12</ele>
        <time>2019-07-04T01:53:35Z</time>
      </trkpt>
      <trkpt lat="68.9728" lon="15.63089">
        <ele>14</ele>
        <time>2019-07-04T01:53:52Z</time>
      </trkpt>
      <trkpt lat="68.97585" lon="15.6347">
        <ele>13</ele>
        <time>2019-07-04T01:54:01Z</time>
      </trkpt>
      <trkpt lat="68.97792" lon="15.63874">
        <ele>11</ele>
        <time>2019-07-04T01:54:33Z</time>
      </trkpt>
      <trkpt lat="68.97841" lon="15.63926">
        <ele>10</ele>
        <time>2019-07-04T01:54:48Z</time>
      </trkpt>
      <trkpt lat="68.98064" lon="15.64036">
        <ele>8</ele>
        <time>2019-07-04T01:54:59Z</time>
      </trkpt>
      <trkpt lat="68.98087" lon="15.64084">
        <ele>7</ele>
        <time>2019-07-04T01:55:07Z</time>
      </trkpt>
      <trkpt lat="68.98142" lon="15.64084">
        <ele>6</ele>
        <time>2019-07-04T01:55:22Z</time>
      </trkpt>
      <trkpt lat="68.98179" lon="15.64125">
        <ele>9</ele>
        <time>2019-07-04T01:55:43Z</time>
      </trkpt>
      <trkpt lat="68.98586" lon="15.65206">
        <ele>12</ele>
        <time>2019-07-04T01:55:45Z</time>
      </trkpt>
      <trkpt lat="68.99983" lon="15.63352">
        <ele>15</ele>
        <time>2019-07-04T01:55:55Z</time>
      </trkpt>
      <trkpt lat="69.00062" lon="15.63018">
        <ele>18</ele>
        <time>2019-07-04T01:56:17Z</time>
      </trkpt>
      <trkpt lat="69.00461" lon="15.60569">
        <ele>22</ele>
        <time>2019-07-04T01:56:24Z</time>
      </trkpt>
      <trkpt lat="69.00501" lon="15.60605">
        <ele>23</ele>
        <time>2019-07-04T01:56:38Z</time>
      </trkpt>
      <trkpt lat="69.00461" lon="15.60552">
        <ele>23</ele>
        <time>2019-07-04T01:56:55Z</time>
      </trkpt>
      <trkpt lat="69.00755" lon="15.58678">
        <ele>23</ele>
        <time>2019-07-04T01:57:08Z</time>
      </trkpt>
      <trkpt lat="69.00854" lon="15.57639">
        <ele>23</ele>
        <time>2019-07-04T01:57:20Z</time>
      </trkpt>
      <trkpt lat="69.00856" lon="15.57562">
        <ele>23</ele>
        <time>2019-07-04T01:57:45Z</time>
      </trkpt>
      <trkpt lat="69.00828" lon="15.57512">
        <ele>22</ele>
        <time>2019-07-04T01:58:10Z</time>
      </trkpt>
      <trkpt lat="69.00808" lon="15.57541">
        <ele>22</ele>
        <time>2019-07-04T01:58:19Z</time>
      </trkpt>
      <trkpt lat="69.00833" lon="15.57518">
        <ele>25</ele>
        <time>2019-07-04T01:58:32Z</time>
      </trkpt>
      <trkpt lat="69.00856" lon="15.57571">
        <ele>27</ele>
        <time>2019-07-04T01:58:46Z</time>
      </trkpt>
      <trkpt lat="69.00954" lon="15.5659">
        <ele>29</ele>
        <time>2019-07-04T01:59:04Z</time>
      </trkpt>
      <trkpt lat="69.00916" lon="15.56511">
        <ele>32</ele>
        <time>2019-07-04T01:59:39Z</time>
      </trkpt>
      <trkpt lat="69.00826" lon="15.56">
        <ele>34</ele>
        <time>2019-07-04T02:00:00Z</time>
      </trkpt>
      <trkpt lat="69.0091" lon="15.56491">
        <ele>34</ele>
        <time>2019-07-04T02:00:09Z</time>
      </trkpt>
      <trkpt lat="69.0095" lon="15.56588">
        <ele>29</ele>
        <time>2019-07-04T02:00:16Z</time>
      </trkpt>
      <trkpt lat="69.00978" lon="15.56256">
        <ele>24</ele>
        <time>2019-07-04T02:00:20Z</time>
      </trkpt>
      <trkpt lat="69.00971" lon="15.55755">
        <ele>19</ele>
        <time>2019-07-04T02:00:42Z</time>
      </trkpt>
      <trkpt lat="69.00865" lon="15.54706">
        <ele>14</ele>
        <time>2019-07-04T02:01:00Z</time>
      </trkpt>
      <trkpt lat="69.00918" lon="15.52786">
        <ele>10</ele>
        <time>2019-07-04T02:01:25Z</time>
      </trkpt>
      <trkpt lat="69.01159" lon="15.51753">
        <ele>10</ele>
        <time>2019-07-04T02:01:41Z</time>
      </trkpt>
      <trkpt lat="69.01553" lon="15.51284">
        <ele>11</ele>
        <time>2019-07-04T02:01:54Z</time>
      </trkpt>
      <trkpt lat="69.01623" lon="15.51293">
        <ele>12</ele>
        <time>2019-07-04T02:02:23Z</time>
      </trkpt>
      <trkpt lat="69.01889" lon="15.51512">
        <ele>13</ele>
        <time>2019-07-04T02:02:37Z</time>
      </trkpt>
      <trkpt lat="69.02091" lon="15.51458">
        <ele>13</ele>
        <time>2019-07-04T02:02:56Z</time>
      </trkpt>
      <trkpt lat="69.02248" lon="15.51515">
        <ele>14</ele>
        <time>2019-07-04T02:03:18Z</time>
      </trkpt>
      <trkpt lat="69.02334" lon="15.5157">
        <ele>14</ele>
        <time>2019-07-04T02:03:34Z</time>
      </trkpt>
      <trkpt lat="69.0246" lon="15.51718">
        <ele>15</ele>
        <time>2019-07-04T02:04:09Z</time>
      </trkpt>
      <trkpt lat="69.02973" lon="15.52528">
        <ele>15</ele>
        <time>2019-07-04T02:04:24Z</time>
      </trkpt>
      <trkpt lat="69.03206" lon="15.5285">
        <ele>15</ele>
        <time>2019-07-04T02:04:42Z</time>
      </trkpt>
      <trkpt lat="69.03267" lon="15.52902">
        <ele>16</ele>
        <time>2019-07-04T02:04:54Z</time>
      </trkpt>
      <trkpt lat="69.03349" lon="15.52797">
        <ele>16</ele>
        <time>2019-07-04T02:05:06Z</time>
      </trkpt>
      <trkpt lat="69.03802" lon="15.51873">
        <ele>14</ele>
        <time>2019-07-04T02:05:35Z</time>
      </trkpt>
      <trkpt lat="69.03948" lon="15.51662">
        <ele>12</ele>
        <time>2019-07-04T02:05:47Z</time>
      </trkpt>
      <trkpt lat="69.04059" lon="15.51602">
        <ele>10</ele>
        <time>2019-07-04T02:06:04Z</time>
      </trkpt>
      <trkpt lat="69.04306" lon="15.51541">
        <ele>8</ele>
        <time>2019-07-04T02:06:22Z</time>
      </trkpt>
      <trkpt lat="69.04495" lon="15.51539">
        <ele>6</ele>
        <time>2019-07-04T02:06:35Z</time>
      </trkpt>
      <trkpt lat="69.04579" lon="15.5157">
        <ele>5</ele>
        <time>2019-07-04T02:06:46Z</time>
      </trkpt>
      <trkpt lat="69.04704" lon="15.51694">
        <ele>7</ele>
        <time>2019-07-04T02:07:08Z</time>
      </trkpt>
      <trkpt lat="69.05051" lon="15.52393">
        <ele>9</ele>
        <time>2019-07-04T02:07:23Z</time>
      </trkpt>
      <trkpt lat="69.05187" lon="15.52551">
        <ele>10</ele>
        <time>2019-07-04T02:07:37Z</time>
      </trkpt>
      <trkpt lat="69.05451" lon="15.52739">
        <ele>12</ele>
        <time>2019-07-04T02:07:50Z</time>
      </trkpt>
      <trkpt lat="69.05851" lon="15.53246">
        <ele>13</ele>
        <time>2019-07-04T02:12:57Z</time>
      </trkpt>
      <trkpt lat="69.06687" lon="15.54004">
        <ele>14</ele>
        <time>2019-07-04T02:13:03Z</time>
      </trkpt>
      <trkpt lat="69.06722" lon="15.53885">
        <ele>12</ele>
        <time>2019-07-04T02:13:15Z</time>
      </trkpt>
      <trkpt lat="69.06707" lon="15.54018">
        <ele>9</ele>
        <time>2019-07-04T02:13:27Z</time>
      </trkpt>
      <trkpt lat="69.06902" lon="15.54271">
        <ele>7</ele>
        <time>2019-07-04T02:13:41Z</time>
      </trkpt>
      <trkpt lat="69.0727" lon="15.55284">
        <ele>5</ele>
        <time>2019-07-04T02:13:58Z</time>
      </trkpt>
      <trkpt lat="69.07382" lon="15.5551">
        <ele>3</ele>
        <time>2019-07-04T02:14:04Z</time>
      </trkpt>
      <trkpt lat="69.07652" lon="15.55804">
        <ele>3</ele>
        <time>2019-07-04T02:14:10Z</time>
      </trkpt>
      <trkpt lat="69.07788" lon="15.56142">
        <ele>2</ele>
        <time>2019-07-04T02:21:10Z</time>
      </trkpt>
      <trkpt lat="69.07868" lon="15.56444">
        <ele>2</ele>
        <time>2019-07-04T02:21:20Z</time>
      </trkpt>
      <trkpt lat="69.07933" lon="15.5656">
        <ele>2</ele>
        <time>2019-07-04T02:21:44Z</time>
      </trkpt>
      <trkpt lat="69.07963" lon="15.56576">
        <ele>2</ele>
        <time>2019-07-04T02:21:57Z</time>
      </trkpt>
      <trkpt lat="69.0803" lon="15.56556">
        <ele>2</ele>
        <time>2019-07-04T02:22:10Z</time>
      </trkpt>
      <trkpt lat="69.08169" lon="15.56477">
        <ele>3</ele>
        <time>2019-07-04T02:22:21Z</time>
      </trkpt>
      <trkpt lat="69.08287" lon="15.56297">
        <ele>4</ele>
        <time>2019-07-04T02:22:32Z</time>
      </trkpt>
      <trkpt lat="69.08348" lon="15.56155">
        <ele>4</ele>
        <time>2019-07-04T02:22:56Z</time>
      </trkpt>
      <trkpt lat="69.08502" lon="15.55675">
        <ele>5</ele>
        <time>2019-07-04T02:23:09Z</time>
      </trkpt>
      <trkpt lat="69.08562" lon="15.55645">
        <ele>6</ele>
        <time>2019-07-04T02:23:20Z</time>
      </trkpt>
      <trkpt lat="69.08759" lon="15.55672">
        <ele>7</ele>
        <time>2019-07-05T07:45:51Z</time>
      </trkpt>
      <trkpt lat="69.08795" lon="15.55709">
        <ele>8</ele>
        <time>2019-07-05T07:45:57Z</time>
      </trkpt>
      <trkpt lat="69.08905" lon="15.56204">
        <ele>9</ele>
        <time>2019-07-05T07:46:15Z</time>
      </trkpt>
      <trkpt lat="69.08966" lon="15.5638">
        <ele>10</ele>
        <time>2019-07-05T07:46:33Z</time>
      </trkpt>
      <trkpt lat="69.09071" lon="15.56507">
        <ele>11</ele>
        <time>2019-07-05T07:46:43Z</time>
      </trkpt>
      <trkpt lat="69.09183" lon="15.56531">
        <ele>12</ele>
        <time>2019-07-05T07:46:48Z</time>
      </trkpt>
      <trkpt lat="69.0921" lon="15.56561">
        <ele>12</ele>
        <time>2019-07-05T07:46:55Z</time>
      </trkpt>
      <trkpt lat="69.09451" lon="15.56934">
        <ele>15</ele>
        <time>2019-07-05T07:47:19Z</time>
      </trkpt>
      <trkpt lat="69.09511" lon="15.56924">
        <ele>18</ele>
        <time>2019-07-05T07:47:30Z</time>
      </trkpt>
      <trkpt lat="69.09647" lon="15.56732">
        <ele>20</ele>
        <time>2019-07-05T07:47:40Z</time>
      </trkpt>
      <trkpt lat="69.09906" lon="15.56275">
        <ele>23</ele>
        <time>2019-07-05T07:47:58Z</time>
      </trkpt>
      <trkpt lat="69.10034" lon="15.56297">
        <ele>25</ele>
        <time>2019-07-05T07:48:16Z</time>
      </trkpt>
      <trkpt lat="69.10114" lon="15.56474">
        <ele>26</ele>
        <time>2019-07-05T07:48:32Z</time>
      </trkpt>
      <trkpt lat="69.10232" lon="15.56625">
        <ele>22</ele>
        <time>2019-07-05T07:48:39Z</time>
      </trkpt>
      <trkpt lat="69.10422" lon="15.57303">
        <ele>18</ele>
        <time>2019-07-05T07:48:54Z</time>
      </trkpt>
      <trkpt lat="69.10495" lon="15.57659">
        <ele>14</ele>
        <time>2019-07-05T07:49:09Z</time>
      </trkpt>
      <trkpt lat="69.10523" lon="15.57902">
        <ele>10</ele>
        <time>2019-07-05T07:49:22Z</time>
      </trkpt>
      <trkpt lat="69.10507" lon="15.58435">
        <ele>6</ele>
        <time>2019-07-05T07:49:36Z</time>
      </trkpt>
      <trkpt lat="69.1074" lon="15.59578">
        <ele>5</ele>
        <time>2019-07-05T07:49:40Z</time>
      </trkpt>
      <trkpt lat="69.10824" lon="15.5989">
        <ele>5</ele>
        <time>2019-07-05T07:49:51Z</time>
      </trkpt>
      <trkpt lat="69.10922" lon="15.60614">
        <ele>4</ele>
        <time>2019-07-05T07:49:57Z</time>
      </trkpt>
      <trkpt lat="69.11364" lon="15.61325">
        <ele>3</ele>
        <time>2019-07-05T07:50:02Z</time>
      </trkpt>
      <trkpt lat="69.11579" lon="15.61586">
        <ele>3</ele>
        <time>2019-07-05T07:50:13Z</time>
      </trkpt>
      <trkpt lat="69.11654" lon="15.61618">
        <ele>2</ele>
        <time>2019-07-05T07:50:17Z</time>
      </trkpt>
      <trkpt lat="69.11987" lon="15.61519">
        <ele>2</ele>
        <time>2019-07-05T07:50:27Z</time>
      </trkpt>
      <trkpt lat="69.12139" lon="15.61553">
        <ele>3</ele>
        <time>2019-07-05T07:50:33Z</time>
      </trkpt>
      <trkpt lat="69.12168" lon="15.61598">
        <ele>4</ele>
        <time>2019-07-05T07:50:47Z</time>
      </trkpt>
      <trkpt lat="69.12439" lon="15.62818">
        <ele>5</ele>
        <time>2019-07-05T07:51:06Z</time>
      </trkpt>
      <trkpt lat="69.12552" lon="15.64122">
        <ele>6</ele>
        <time>2019-07-05T07:51:17Z</time>
      </trkpt>
      <trkpt lat="69.12759" lon="15.6525">
        <ele>7</ele>
        <time>2019-07-05T07:51:29Z</time>
      </trkpt>
      <trkpt lat="69.12796" lon="15.66307">
        <ele>6</ele>
        <time>2019-07-05T07:51:36Z</time>
      </trkpt>
      <trkpt lat="69.1284" lon="15.66524">
        <ele>6</ele>
        <time>2019-07-05T07:51:43Z</time>
      </trkpt>
      <trkpt lat="69.1287" lon="15.66469">
        <ele>6</ele>
        <time>2019-07-05T07:51:59Z</time>
      </trkpt>
      <trkpt lat="69.1284" lon="15.66504">
        <ele>6</ele>
        <time>2019-07-05T07:52:10Z</time>
      </trkpt>
      <trkpt lat="69.12852" lon="15.66588">
        <ele>5</ele>
        <time>2019-07-05T07:52:22Z</time>
      </trkpt>
      <trkpt lat="69.12999" lon="15.66983">
        <ele>5</ele>
        <time>2019-07-05T07:52:42Z</time>
      </trkpt>
      <trkpt lat="69.13121" lon="15.67202">
        <ele>5</ele>
        <time>2019-07-05T07:52:56Z</time>
      </trkpt>
      <trkpt lat="69.13293" lon="15.67427">
        <ele>4</ele>
        <time>2019-07-05T07:53:14Z</time>
      </trkpt>
      <trkpt lat="69.13373" lon="15.67494">
        <ele>4</ele>
        <time>2019-07-05T07:53:31Z</time>
      </trkpt>
      <trkpt lat="69.1347" lon="15.67384">
        <ele>3</ele>
        <time>2019-07-05T07:53:40Z</time>
      </trkpt>
      <trkpt lat="69.13511" lon="15.67384">
        <ele>3</ele>
        <time>2019-07-05T07:54:00Z</time>
      </trkpt>
      <trkpt lat="69.13658" lon="15.67672">
        <ele>3</ele>
        <time>2019-07-05T07:54:18Z</time>
      </trkpt>
      <trkpt lat="69.13643" lon="15.68492">
        <ele>3</ele>
        <time>2019-07-05T07:54:56Z</time>
      </trkpt>
      <trkpt lat="69.13734" lon="15.72872">
        <ele>3</ele>
        <time>2019-07-05T07:55:10Z</time>
      </trkpt>
      <trkpt lat="69.14066" lon="15.74165">
        <ele>3</ele>
        <time>2019-07-05T07:55:26Z</time>
      </trkpt>
      <trkpt lat="69.14324" lon="15.75559">
        <ele>4</ele>
        <time>2019-07-05T07:55:34Z</time>
      </trkpt>
      <trkpt lat="69.14721" lon="15.76886">
        <ele>4</ele>
        <time>2019-07-05T07:55:54Z</time>
      </trkpt>
      <trkpt lat="69.15386" lon="15.79336">
        <ele>4</ele>
        <time>2019-07-05T07:56:24Z</time>
      </trkpt>
      <trkpt lat="69.16389" lon="15.81466">
        <ele>3</ele>
        <time>2019-07-05T07:56:33Z</time>
      </trkpt>
      <trkpt lat="69.16523" lon="15.81603">
        <ele>3</ele>
        <time>2019-07-05T07:56:40Z</time>
      </trkpt>
      <trkpt lat="69.16779" lon="15.81782">
        <ele>2</ele>
        <time>2019-07-05T07:56:53Z</time>
      </trkpt>
      <trkpt lat="69.1695" lon="15.81816">
        <ele>1</ele>
        <time>2019-07-05T07:57:02Z</time>
      </trkpt>
      <trkpt lat="69.17673" lon="15.81839">
        <ele>1</ele>
        <time>2019-07-05T07:57:58Z</time>
      </trkpt>
      <trkpt lat="69.17841" lon="15.81869">
        <ele>1</ele>
        <time>2019-07-05T07:58:28Z</time>
      </trkpt>
      <trkpt lat="69.18149" lon="15.82079">
        <ele>1</ele>
        <time>2019-07-05T07:58:43Z</time>
      </trkpt>
      <trkpt lat="69.18374" lon="15.82565">
        <ele>1</ele>
        <time>2019-07-05T07:58:51Z</time>
      </trkpt>
      <trkpt lat="69.18479" lon="15.82735">
        <ele>1</ele>
        <time>2019-07-05T07:58:58Z</time>
      </trkpt>
      <trkpt lat="69.19035" lon="15.83162">
        <ele>6</ele>
        <time>2019-07-05T07:59:05Z</time>
      </trkpt>
      <trkpt lat="69.19134" lon="15.83282">
        <ele>7.8</ele>
        <time>2019-07-05T07:59:52Z</time>
      </trkpt>
      <trkpt lat="69.19507" lon="15.84151">
        <ele>4.5</ele>
        <time>2019-07-05T08:00:08Z</time>
      </trkpt>
      <trkpt lat="69.19569" lon="15.84351">
        <ele>1</ele>
        <time>2019-07-05T08:00:19Z</time>
      </trkpt>
      <trkpt lat="69.19751" lon="15.85253">
        <ele>1</ele>
        <time>2019-07-05T08:00:32Z</time>
      </trkpt>
      <trkpt lat="69.19865" lon="15.85542">
        <ele>1</ele>
        <time>2019-07-05T08:00:52Z</time>
      </trkpt>
      <trkpt lat="69.19941" lon="15.85665">
        <ele>1</ele>
        <time>2019-07-05T08:00:58Z</time>
      </trkpt>
      <trkpt lat="69.20401" lon="15.86268">
        <ele>1</ele>
        <time>2019-07-05T08:01:06Z</time>
      </trkpt>
      <trkpt lat="69.20451" lon="15.86272">
        <ele>2</ele>
        <time>2019-07-05T08:01:20Z</time>
      </trkpt>
      <trkpt lat="69.2071" lon="15.86175">
        <ele>4</ele>
        <time>2019-07-05T08:01:34Z</time>
      </trkpt>
      <trkpt lat="69.20814" lon="15.86248">
        <ele>5</ele>
        <time>2019-07-05T08:02:06Z</time>
      </trkpt>
      <trkpt lat="69.20951" lon="15.86397">
        <ele>6</ele>
        <time>2019-07-05T08:02:10Z</time>
      </trkpt>
      <trkpt lat="69.21055" lon="15.86553">
        <ele>7</ele>
        <time>2019-07-05T08:02:15Z</time>
      </trkpt>
      <trkpt lat="69.21154" lon="15.86782">
        <ele>8</ele>
        <time>2019-07-05T08:02:19Z</time>
      </trkpt>
      <trkpt lat="69.21194" lon="15.86975">
        <ele>14</ele>
        <time>2019-07-05T08:02:22Z</time>
      </trkpt>
      <trkpt lat="69.21443" lon="15.90074">
        <ele>19</ele>
        <time>2019-07-05T08:02:29Z</time>
      </trkpt>
      <trkpt lat="69.21728" lon="15.91371">
        <ele>24</ele>
        <time>2019-07-05T08:02:35Z</time>
      </trkpt>
      <trkpt lat="69.21871" lon="15.9178">
        <ele>30</ele>
        <time>2019-07-05T08:02:41Z</time>
      </trkpt>
      <trkpt lat="69.2284" lon="15.93856">
        <ele>35</ele>
        <time>2019-07-05T08:02:55Z</time>
      </trkpt>
      <trkpt lat="69.22921" lon="15.93987">
        <ele>38</ele>
        <time>2019-07-05T08:03:13Z</time>
      </trkpt>
      <trkpt lat="69.23419" lon="15.94532">
        <ele>37</ele>
        <time>2019-07-05T08:03:30Z</time>
      </trkpt>
      <trkpt lat="69.23463" lon="15.94614">
        <ele>37</ele>
        <time>2019-07-05T08:03:40Z</time>
      </trkpt>
      <trkpt lat="69.23854" lon="15.95637">
        <ele>36</ele>
        <time>2019-07-05T08:03:51Z</time>
      </trkpt>
      <trkpt lat="69.24043" lon="15.96004">
        <ele>36</ele>
        <time>2019-07-05T08:03:58Z</time>
      </trkpt>
      <trkpt lat="69.24202" lon="15.96411">
        <ele>35</ele>
        <time>2019-07-05T08:04:02Z</time>
      </trkpt>
      <trkpt lat="69.24355" lon="15.97029">
        <ele>35</ele>
        <time>2019-07-05T08:04:24Z</time>
      </trkpt>
      <trkpt lat="69.24423" lon="15.97091">
        <ele>33</ele>
        <time>2019-07-05T08:04:34Z</time>
      </trkpt>
      <trkpt lat="69.24593" lon="15.97018">
        <ele>32</ele>
        <time>2019-07-05T08:04:51Z</time>
      </trkpt>
      <trkpt lat="69.24844" lon="15.9686">
        <ele>30</ele>
        <time>2019-07-05T08:05:08Z</time>
      </trkpt>
      <trkpt lat="69.25266" lon="15.96216">
        <ele>29</ele>
        <time>2019-07-05T08:05:22Z</time>
      </trkpt>
      <trkpt lat="69.25449" lon="15.9579">
        <ele>27</ele>
        <time>2019-07-05T08:06:24Z</time>
      </trkpt>
      <trkpt lat="69.25506" lon="15.95743">
        <ele>27</ele>
        <time>2019-07-05T08:06:34Z</time>
      </trkpt>
      <trkpt lat="69.25557" lon="15.95724">
        <ele>30</ele>
        <time>2019-07-05T08:06:51Z</time>
      </trkpt>
      <trkpt lat="69.25617" lon="15.95758">
        <ele>33</ele>
        <time>2019-07-05T08:06:57Z</time>
      </trkpt>
      <trkpt lat="69.25632" lon="15.96118">
        <ele>36</ele>
        <time>2019-07-05T08:07:06Z</time>
      </trkpt>
      <trkpt lat="69.25692" lon="15.96393">
        <ele>38</ele>
        <time>2019-07-05T08:07:44Z</time>
      </trkpt>
      <trkpt lat="69.25744" lon="15.96515">
        <ele>41</ele>
        <time>2019-07-05T08:08:00Z</time>
      </trkpt>
      <trkpt lat="69.25771" lon="15.9655">
        <ele>40</ele>
        <time>2019-07-05T08:08:07Z</time>
      </trkpt>
      <trkpt lat="69.25887" lon="15.96497">
        <ele>39</ele>
        <time>2019-07-05T08:08:23Z</time>
      </trkpt>
      <trkpt lat="69.25964" lon="15.96538">
        <ele>38</ele>
        <time>2019-07-05T08:08:39Z</time>
      </trkpt>
      <trkpt lat="69.26073" lon="15.9655">
        <ele>37</ele>
        <time>2019-07-05T08:09:03Z</time>
      </trkpt>
      <trkpt lat="69.26148" lon="15.96462">
        <ele>36</ele>
        <time>2019-07-05T08:09:10Z</time>
      </trkpt>
      <trkpt lat="69.26278" lon="15.96006">
        <ele>35</ele>
        <time>2019-07-05T08:09:20Z</time>
      </trkpt>
      <trkpt lat="69.26393" lon="15.95821">
        <ele>35</ele>
        <time>2019-07-05T08:09:31Z</time>
      </trkpt>
      <trkpt lat="69.2648" lon="15.9576">
        <ele>35</ele>
        <time>2019-07-05T08:09:51Z</time>
      </trkpt>
      <trkpt lat="69.26554" lon="15.95757">
        <ele>35</ele>
        <time>2019-07-05T08:10:19Z</time>
      </trkpt>
      <trkpt lat="69.26641" lon="15.95887">
        <ele>35</ele>
        <time>2019-07-05T08:10:34Z</time>
      </trkpt>
      <trkpt lat="69.26874" lon="15.96121">
        <ele>35</ele>
        <time>2019-07-05T08:10:39Z</time>
      </trkpt>
      <trkpt lat="69.26924" lon="15.96097">
        <ele>35</ele>
        <time>2019-07-05T08:11:01Z</time>
      </trkpt>
      <trkpt lat="69.27094" lon="15.95689">
        <ele>29</ele>
        <time>2019-07-05T08:11:08Z</time>
      </trkpt>
      <trkpt lat="69.27184" lon="15.95602">
        <ele>23</ele>
        <time>2019-07-05T08:11:39Z</time>
      </trkpt>
      <trkpt lat="69.27299" lon="15.96409">
        <ele>17</ele>
        <time>2019-07-05T08:11:42Z</time>
      </trkpt>
      <trkpt lat="69.27436" lon="15.96768">
        <ele>10</ele>
        <time>2019-07-05T08:11:48Z</time>
      </trkpt>
      <trkpt lat="69.27564" lon="15.96942">
        <ele>4</ele>
        <time>2019-07-05T08:11:55Z</time>
      </trkpt>
      <trkpt lat="69.27645" lon="15.97181">
        <ele>1</ele>
        <time>2019-07-05T08:12:02Z</time>
      </trkpt>
      <trkpt lat="69.27753" lon="15.96889">
        <ele>1</ele>
        <time>2019-07-05T08:12:15Z</time>
      </trkpt>
      <trkpt lat="69.27658" lon="15.972">
        <ele>2</ele>
        <time>2019-07-05T08:12:23Z</time>
      </trkpt>
      <trkpt lat="69.2825" lon="15.9899">
        <ele>2</ele>
        <time>2019-07-05T08:12:38Z</time>
      </trkpt>
      <trkpt lat="69.2834" lon="15.99084">
        <ele>3</ele>
        <time>2019-07-05T08:12:43Z</time>
      </trkpt>
      <trkpt lat="69.28368" lon="15.99077">
        <ele>3</ele>
        <time>2019-07-05T08:12:48Z</time>
      </trkpt>
      <trkpt lat="69.28642" lon="15.98886">
        <ele>3</ele>
        <time>2019-07-05T08:13:15Z</time>
      </trkpt>
      <trkpt lat="69.29082" lon="15.99208">
        <ele>3</ele>
        <time>2019-07-05T08:13:25Z</time>
      </trkpt>
      <trkpt lat="69.2935" lon="15.99474">
        <ele>4</ele>
        <time>2019-07-05T08:13:35Z</time>
      </trkpt>
      <trkpt lat="69.29412" lon="15.99484">
        <ele>4</ele>
        <time>2019-07-05T08:13:48Z</time>
      </trkpt>
      <trkpt lat="69.29532" lon="15.99435">
        <ele>4</ele>
        <time>2019-07-05T08:13:57Z</time>
      </trkpt>
      <trkpt lat="69.29704" lon="15.99306">
        <ele>4</ele>
        <time>2019-07-05T08:14:15Z</time>
      </trkpt>
      <trkpt lat="69.29679" lon="15.99335">
        <ele>4</ele>
        <time>2019-07-05T08:14:25Z</time>
      </trkpt>
      <trkpt lat="69.29759" lon="15.99364">
        <ele>9</ele>
        <time>2019-07-05T08:14:45Z</time>
      </trkpt>
      <trkpt lat="69.29833" lon="15.99439">
        <ele>14</ele>
        <time>2019-07-05T08:14:57Z</time>
      </trkpt>
      <trkpt lat="69.29863" lon="15.99512">
        <ele>18</ele>
        <time>2019-07-05T08:15:16Z</time>
      </trkpt>
      <trkpt lat="69.29899" lon="15.9971">
        <ele>23</ele>
        <time>2019-07-05T08:15:54Z</time>
      </trkpt>
      <trkpt lat="69.29826" lon="16.00153">
        <ele>28</ele>
        <time>2019-07-05T08:16:11Z</time>
      </trkpt>
      <trkpt lat="69.29777" lon="16.00248">
        <ele>29</ele>
        <time>2019-07-05T08:16:24Z</time>
      </trkpt>
      <trkpt lat="69.29649" lon="16.0036">
        <ele>30</ele>
        <time>2019-07-05T08:16:41Z</time>
      </trkpt>
      <trkpt lat="69.29589" lon="16.00537">
        <ele>31</ele>
        <time>2019-07-05T08:16:56Z</time>
      </trkpt>
      <trkpt lat="69.29516" lon="16.01073">
        <ele>32</ele>
        <time>2019-07-05T08:17:29Z</time>
      </trkpt>
      <trkpt lat="69.29313" lon="16.01746">
        <ele>33</ele>
        <time>2019-07-05T08:17:40Z</time>
      </trkpt>
      <trkpt lat="69.29283" lon="16.01948">
        <ele>33</ele>
        <time>2019-07-05T08:17:55Z</time>
      </trkpt>
      <trkpt lat="69.29303" lon="16.02394">
        <ele>30</ele>
        <time>2019-07-05T08:18:12Z</time>
      </trkpt>
      <trkpt lat="69.29361" lon="16.02745">
        <ele>28</ele>
        <time>2019-07-05T08:18:27Z</time>
      </trkpt>
      <trkpt lat="69.2943" lon="16.03015">
        <ele>25</ele>
        <time>2019-07-05T08:19:01Z</time>
      </trkpt>
      <trkpt lat="69.29603" lon="16.03367">
        <ele>22</ele>
        <time>2019-07-05T08:19:13Z</time>
      </trkpt>
      <trkpt lat="69.29705" lon="16.03709">
        <ele>19</ele>
        <time>2019-07-05T08:19:23Z</time>
      </trkpt>
      <trkpt lat="69.29787" lon="16.04588">
        <ele>18</ele>
        <time>2019-07-05T08:19:38Z</time>
      </trkpt>
      <trkpt lat="69.29775" lon="16.04975">
        <ele>16</ele>
        <time>2019-07-05T08:19:47Z</time>
      </trkpt>
      <trkpt lat="69.29906" lon="16.05089">
        <ele>15</ele>
        <time>2019-07-05T08:20:16Z</time>
      </trkpt>
      <trkpt lat="69.30047" lon="16.05464">
        <ele>13</ele>
        <time>2019-07-05T08:20:30Z</time>
      </trkpt>
      <trkpt lat="69.30134" lon="16.05894">
        <ele>12</ele>
        <time>2019-07-05T08:20:45Z</time>
      </trkpt>
      <trkpt lat="69.30308" lon="16.06435">
        <ele>10</ele>
        <time>2019-07-05T08:20:50Z</time>
      </trkpt>
      <trkpt lat="69.30433" lon="16.07575">
        <ele>10</ele>
        <time>2019-07-05T08:21:05Z</time>
      </trkpt>
      <trkpt lat="69.30652" lon="16.08044">
        <ele>9</ele>
        <time>2019-07-05T08:21:15Z</time>
      </trkpt>
      <trkpt lat="69.30945" lon="16.08927">
        <ele>8</ele>
        <time>2019-07-05T08:21:27Z</time>
      </trkpt>
      <trkpt lat="69.31092" lon="16.09915">
        <ele>7</ele>
        <time>2019-07-05T08:21:58Z</time>
      </trkpt>
      <trkpt lat="69.31134" lon="16.11035">
        <ele>7</ele>
        <time>2019-07-05T08:22:07Z</time>
      </trkpt>
      <trkpt lat="69.31202" lon="16.11741">
        <ele>6</ele>
        <time>2019-07-05T08:22:13Z</time>
      </trkpt>
      <trkpt lat="69.31234" lon="16.11854">
        <ele>6</ele>
        <time>2019-07-05T08:22:26Z</time>
      </trkpt>
      <trkpt lat="69.31285" lon="16.11899">
        <ele>5</ele>
        <time>2019-07-05T08:22:34Z</time>
      </trkpt>
      <trkpt lat="69.31424" lon="16.11952">
        <ele>4</ele>
        <time>2019-07-05T08:22:39Z</time>
      </trkpt>
      <trkpt lat="69.31468" lon="16.11999">
        <ele>3</ele>
        <time>2019-07-05T08:22:48Z</time>
      </trkpt>
      <trkpt lat="69.31525" lon="16.11998">
        <ele>2</ele>
        <time>2019-07-05T08:23:00Z</time>
      </trkpt>
      <trkpt lat="69.31744" lon="16.12071">
        <ele>1</ele>
        <time>2019-07-05T08:23:32Z</time>
      </trkpt>
      <trkpt lat="69.32109" lon="16.12424">
        <ele>1</ele>
        <time>2019-07-05T08:23:47Z</time>
      </trkpt>
      <trkpt lat="69.32172" lon="16.12511">
        <ele>1</ele>
        <time>2019-07-05T08:24:03Z</time>
      </trkpt>
      <trkpt lat="69.32173" lon="16.12493">
        <ele>1</ele>
        <time>2019-07-05T08:24:13Z</time>
      </trkpt>
      <trkpt lat="69.32051" lon="16.12393">
        <ele>1</ele>
        <time>2019-07-05T08:24:20Z</time>
      </trkpt>
      <trkpt lat="69.32029" lon="16.12343">
        <ele>1</ele>
        <time>2019-07-05T08:24:38Z</time>
      </trkpt>
      <trkpt lat="69.3205" lon="16.12379">
        <ele>1</ele>
        <time>2019-07-05T08:24:53Z</time>
      </trkpt>
      <trkpt lat="69.32047" lon="16.12529">
        <ele>1</ele>
        <time>2019-07-05T08:24:59Z</time>
      </trkpt>
      <trkpt lat="69.32095" lon="16.1254">
        <ele>1</ele>
        <time>2019-07-05T08:25:07Z</time>
      </trkpt>
      <trkpt lat="69.3205" lon="16.12514">
        <ele>4.1</ele>
        <time>2019-07-05T08:25:19Z</time>
      </trkpt>
      <trkpt lat="69.32048" lon="16.12829">
        <ele>3.9</ele>
        <time>2019-07-05T08:25:42Z</time>
      </trkpt>
      <trkpt lat="69.32153" lon="16.12916">
        <ele>3</ele>
        <time>2019-07-05T08:25:54Z</time>
      </trkpt>
      <trkpt lat="69.3224" lon="16.13245">
        <ele>3</ele>
        <time>2019-07-05T08:25:58Z</time>
      </trkpt>
      <trkpt lat="69.32298" lon="16.13297">
        <ele>2.1</ele>
        <time>2019-07-05T08:26:08Z</time>
      </trkpt>
      <trkpt lat="69.3239" lon="16.13284">
        <ele>2</ele>
        <time>2019-07-05T08:26:17Z</time>
      </trkpt>
      <trkpt lat="69.324" lon="16.13362">
        <ele>2</ele>
        <time>2019-07-05T08:27:14Z</time>
      </trkpt>
      <trkpt lat="69.32425" lon="16.13386">
        <ele>1.4</ele>
        <time>2019-07-05T08:27:21Z</time>
      </trkpt>
      <trkpt lat="69.32417" lon="16.13284">
        <ele>2</ele>
        <time>2019-07-05T08:27:27Z</time>
      </trkpt>
      <trkpt lat="69.32568" lon="16.13154">
        <ele>3</ele>
        <time>2019-07-05T08:27:35Z</time>
      </trkpt>
      <trkpt lat="69.32652" lon="16.13234">
        <ele>2.7</ele>
        <time>2019-07-05T08:27:43Z</time>
      </trkpt>
      <trkpt lat="69.32671" lon="16.13373">
        <ele>1.6</ele>
        <time>2019-07-05T08:28:01Z</time>
      </trkpt>
      <trkpt lat="69.32677" lon="16.1324">
        <ele>2.3</ele>
        <time>2019-07-05T08:28:17Z</time>
      </trkpt>
      <trkpt lat="69.3261" lon="16.13142">
        <ele>2.1</ele>
        <time>2019-07-05T08:28:23Z</time>
      </trkpt>
      <trkpt lat="69.32515" lon="16.13177">
        <ele>3</ele>
        <time>2019-07-05T08:28:40Z</time>
      </trkpt>
      <trkpt lat="69.32432" lon="16.13268">
        <ele>2.2</ele>
        <time>2019-07-05T08:29:02Z</time>
      </trkpt>
      <trkpt lat="69.32328" lon="16.13278">
        <ele>2</ele>
        <time>2019-07-05T08:29:39Z</time>
      </trkpt>
      <trkpt lat="69.32238" lon="16.13224">
        <ele>3</ele>
        <time>2019-07-05T08:29:49Z</time>
      </trkpt>
      <trkpt lat="69.32181" lon="16.12938">
        <ele>2.6</ele>
        <time>2019-07-05T08:29:59Z</time>
      </trkpt>
      <trkpt lat="69.32227" lon="16.12484">
        <ele>3.6</ele>
        <time>2019-07-05T08:30:08Z</time>
      </trkpt>
      <trkpt lat="69.32168" lon="16.12509">
        <ele>1</ele>
        <time>2019-07-05T08:30:28Z</time>
      </trkpt>
      <trkpt lat="69.32118" lon="16.12445">
        <ele>1</ele>
        <time>2019-07-05T08:31:06Z</time>
      </trkpt>
      <trkpt lat="69.32103" lon="16.12832">
        <ele>5</ele>
        <time>2019-07-05T08:31:15Z</time>
      </trkpt>
      <trkpt lat="69.32186" lon="16.12979">
        <ele>2.1</ele>
        <time>2019-07-05T08:31:24Z</time>
      </trkpt>
      <trkpt lat="69.32255" lon="16.13276">
        <ele>3</ele>
        <time>2019-07-05T08:31:33Z</time>
      </trkpt>
      <trkpt lat="69.32285" lon="16.13292">
        <ele>2.4</ele>
        <time>2019-07-05T08:31:44Z</time>
      </trkpt>
      <trkpt lat="69.32408" lon="16.13271">
        <ele>1.8</ele>
        <time>2019-07-05T08:31:57Z</time>
      </trkpt>
      <trkpt lat="69.32566" lon="16.13149">
        <ele>3</ele>
        <time>2019-07-05T08:32:06Z</time>
      </trkpt>
      <trkpt lat="69.32669" lon="16.13264">
        <ele>2.9</ele>
        <time>2019-07-05T08:32:23Z</time>
      </trkpt>
      <trkpt lat="69.3268" lon="16.13491">
        <time>2019-07-05T08:32:37Z</time>
      </trkpt>
      <trkpt lat="69.32687" lon="16.13469">
        <time>2019-07-05T08:32:43Z</time>
      </trkpt>
      <trkpt lat="69.32676" lon="16.13371">
        <ele>1.6</ele>
        <time>2019-07-05T08:33:14Z</time>
      </trkpt>
      <trkpt lat="69.32683" lon="16.1372">
        <time>2019-07-05T08:33:22Z</time>
      </trkpt>
      <trkpt lat="69.32666" lon="16.13716">
        <time>2019-07-05T08:33:27Z</time>
      </trkpt>
      <trkpt lat="69.32663" lon="16.13763">
        <time>2019-07-05T08:33:47Z</time>
      </trkpt>
      <trkpt lat="69.32701" lon="16.13962">
        <time>2019-07-05T08:34:01Z</time>
      </trkpt>
      <trkpt lat="69.32706" lon="16.14139">
        <time>2019-07-05T08:34:31Z</time>
      </trkpt>
      <trkpt lat="69.32458" lon="16.15763">
        <time>2019-07-05T08:34:38Z</time>
      </trkpt>
      <trkpt lat="69.32425" lon="16.16252">
        <time>2019-07-05T08:34:51Z</time>
      </trkpt>
      <trkpt lat="69.3243" lon="16.16562">
        <time>2019-07-05T08:35:02Z</time>
      </trkpt>
      <trkpt lat="69.32566" lon="16.19778">
        <time>2019-07-05T08:35:08Z</time>
      </trkpt>
      <trkpt lat="69.33156" lon="16.38986">
        <time>2019-07-05T08:35:51Z</time>
      </trkpt>
      <trkpt lat="69.33322" lon="16.4566">
        <time>2019-07-05T08:35:59Z</time>
      </trkpt>
      <trkpt lat="69.3348" lon="16.54047">
        <time>2019-07-05T08:36:07Z</time>
      </trkpt>
      <trkpt lat="69.3378" lon="16.62816">
        <time>2019-07-05T08:36:15Z</time>
      </trkpt>
      <trkpt lat="69.34108" lon="16.71301">
        <time>2019-07-05T08:36:30Z</time>
      </trkpt>
      <trkpt lat="69.34465" lon="16.78791">
        <time>2019-07-05T08:36:53Z</time>
      </trkpt>
      <trkpt lat="69.34876" lon="16.85327">
        <time>2019-07-05T08:37:00Z</time>
      </trkpt>
      <trkpt lat="69.35311" lon="16.93131">
        <time>2019-07-05T08:37:09Z</time>
      </trkpt>
      <trkpt lat="69.35656" lon="16.98546">
        <time>2019-07-05T08:37:26Z</time>
      </trkpt>
      <trkpt lat="69.35706" lon="16.99059">
        <time>2019-07-05T08:37:40Z</time>
      </trkpt>
      <trkpt lat="69.35784" lon="16.99503">
        <time>2019-07-05T08:38:05Z</time>
      </trkpt>
      <trkpt lat="69.36428" lon="17.02331">
        <time>2019-07-05T08:38:18Z</time>
      </trkpt>
      <trkpt lat="69.36519" lon="17.02769">
        <time>2019-07-05T08:38:33Z</time>
      </trkpt>
      <trkpt lat="69.36589" lon="17.03276">
        <time>2019-07-05T08:38:50Z</time>
      </trkpt>
      <trkpt lat="69.36576" lon="17.04018">
        <time>2019-07-05T08:39:01Z</time>
      </trkpt>
      <trkpt lat="69.36522" lon="17.04482">
        <time>2019-07-05T08:39:28Z</time>
      </trkpt>
      <trkpt lat="69.36367" lon="17.05447">
        <ele>1</ele>
        <time>2019-07-05T08:39:41Z</time>
      </trkpt>
      <trkpt lat="69.36342" lon="17.05438">
        <ele>2</ele>
        <time>2019-07-05T08:39:53Z</time>
      </trkpt>
      <trkpt lat="69.36364" lon="17.05351">
        <ele>1</ele>
        <time>2019-07-05T08:40:09Z</time>
      </trkpt>
      <trkpt lat="69.36343" lon="17.05155">
        <ele>1</ele>
        <time>2019-07-05T08:40:34Z</time>
      </trkpt>
      <trkpt lat="69.36352" lon="17.05282">
        <ele>1</ele>
        <time>2019-07-05T08:41:11Z</time>
      </trkpt>
      <trkpt lat="69.36324" lon="17.0521">
        <ele>1</ele>
        <time>2019-07-05T08:41:23Z</time>
      </trkpt>
      <trkpt lat="69.36308" lon="17.05234">
        <ele>7</ele>
        <time>2019-07-05T08:41:29Z</time>
      </trkpt>
      <trkpt lat="69.36207" lon="17.06278">
        <ele>12</ele>
        <time>2019-07-05T08:41:34Z</time>
      </trkpt>
      <trkpt lat="69.36103" lon="17.0705">
        <ele>18</ele>
        <time>2019-07-05T08:41:46Z</time>
      </trkpt>
      <trkpt lat="69.36061" lon="17.07679">
        <ele>23</ele>
        <time>2019-07-05T08:42:17Z</time>
      </trkpt>
      <trkpt lat="69.3579" lon="17.08742">
        <ele>28</ele>
        <time>2019-07-05T08:42:31Z</time>
      </trkpt>
      <trkpt lat="69.35689" lon="17.0954">
        <ele>33</ele>
        <time>2019-07-05T08:42:45Z</time>
      </trkpt>
      <trkpt lat="69.35661" lon="17.10547">
        <ele>38</ele>
        <time>2019-07-05T08:42:56Z</time>
      </trkpt>
      <trkpt lat="69.35546" lon="17.12326">
        <ele>43</ele>
        <time>2019-07-05T08:43:09Z</time>
      </trkpt>
      <trkpt lat="69.36009" lon="17.12776">
        <ele>48</ele>
        <time>2019-07-05T08:43:32Z</time>
      </trkpt>
      <trkpt lat="69.36892" lon="17.13126">
        <ele>53</ele>
        <time>2019-07-05T08:43:48Z</time>
      </trkpt>
      <trkpt lat="69.37048" lon="17.13013">
        <ele>56</ele>
        <time>2019-07-05T08:43:58Z</time>
      </trkpt>
      <trkpt lat="69.38192" lon="17.11743">
        <ele>48</ele>
        <time>2019-07-05T08:44:15Z</time>
      </trkpt>
      <trkpt lat="69.38327" lon="17.11654">
        <ele>40</ele>
        <time>2019-07-05T08:44:25Z</time>
      </trkpt>
      <trkpt lat="69.38395" lon="17.11663">
        <ele>31</ele>
        <time>2019-07-05T08:44:41Z</time>
      </trkpt>
      <trkpt lat="69.385" lon="17.11763">
        <ele>23</ele>
        <time>2019-07-05T08:44:55Z</time>
      </trkpt>
      <trkpt lat="69.39023" lon="17.12644">
        <ele>15</ele>
        <time>2019-07-05T08:45:12Z</time>
      </trkpt>
      <trkpt lat="69.39364" lon="17.12899">
        <ele>11</ele>
        <time>2019-07-05T08:45:25Z</time>
      </trkpt>
      <trkpt lat="69.39677" lon="17.12992">
        <ele>13</ele>
        <time>2019-07-05T08:45:33Z</time>
      </trkpt>
      <trkpt lat="69.40257" lon="17.12963">
        <ele>14</ele>
        <time>2019-07-05T08:46:01Z</time>
      </trkpt>
      <trkpt lat="69.40337" lon="17.12985">
        <ele>15</ele>
        <time>2019-07-05T08:46:16Z</time>
      </trkpt>
      <trkpt lat="69.40649" lon="17.13619">
        <ele>17</ele>
        <time>2019-07-05T08:46:33Z</time>
      </trkpt>
      <trkpt lat="69.40771" lon="17.14167">
        <ele>18</ele>
        <time>2019-07-05T08:46:48Z</time>
      </trkpt>
      <trkpt lat="69.4089" lon="17.14445">
        <ele>19</ele>
        <time>2019-07-05T08:47:15Z</time>
      </trkpt>
      <trkpt lat="69.4101" lon="17.14929">
        <ele>19</ele>
        <time>2019-07-05T08:47:33Z</time>
      </trkpt>
      <trkpt lat="69.41078" lon="17.1503">
        <ele>20</ele>
        <time>2019-07-05T08:47:47Z</time>
      </trkpt>
      <trkpt lat="69.41187" lon="17.15024">
        <ele>20</ele>
        <time>2019-07-05T08:48:06Z</time>
      </trkpt>
      <trkpt lat="69.41161" lon="17.14988">
        <ele>21</ele>
        <time>2019-07-05T08:48:27Z</time>
      </trkpt>
      <trkpt lat="69.4118" lon="17.14882">
        <ele>21</ele>
        <time>2019-07-05T08:48:39Z</time>
      </trkpt>
      <trkpt lat="69.41171" lon="17.15028">
        <ele>21</ele>
        <time>2019-07-05T08:49:18Z</time>
      </trkpt>
      <trkpt lat="69.4132" lon="17.15483">
        <ele>25</ele>
        <time>2019-07-05T08:49:35Z</time>
      </trkpt>
      <trkpt lat="69.41256" lon="17.16107">
        <ele>29</ele>
        <time>2019-07-05T08:49:52Z</time>
      </trkpt>
      <trkpt lat="69.41323" lon="17.16296">
        <ele>33</ele>
        <time>2019-07-05T08:50:10Z</time>
      </trkpt>
      <trkpt lat="69.41342" lon="17.16739">
        <ele>38</ele>
        <time>2019-07-05T08:50:27Z</time>
      </trkpt>
      <trkpt lat="69.41361" lon="17.16786">
        <ele>42</ele>
        <time>2019-07-05T08:50:45Z</time>
      </trkpt>
      <trkpt lat="69.41459" lon="17.16745">
        <ele>38</ele>
        <time>2019-07-05T08:50:51Z</time>
      </trkpt>
      <trkpt lat="69.41497" lon="17.16872">
        <ele>35</ele>
        <time>2019-07-05T08:50:57Z</time>
      </trkpt>
      <trkpt lat="69.41454" lon="17.17591">
        <ele>32</ele>
        <time>2019-07-05T08:51:02Z</time>
      </trkpt>
      <trkpt lat="69.41349" lon="17.17905">
        <ele>29</ele>
        <time>2019-07-05T08:51:09Z</time>
      </trkpt>
      <trkpt lat="69.41234" lon="17.18032">
        <ele>26</ele>
        <time>2019-07-05T08:51:26Z</time>
      </trkpt>
      <trkpt lat="69.41083" lon="17.18362">
        <ele>23</ele>
        <time>2019-07-05T08:55:12Z</time>
      </trkpt>
      <trkpt lat="69.41028" lon="17.18614">
        <ele>23</ele>
        <time>2019-07-05T08:55:14Z</time>
      </trkpt>
      <trkpt lat="69.41019" lon="17.18807">
        <ele>23</ele>
        <time>2019-07-05T08:55:27Z</time>
      </trkpt>
      <trkpt lat="69.41021" lon="17.19005">
        <ele>23</ele>
        <time>2019-07-05T08:55:36Z</time>
      </trkpt>
      <trkpt lat="69.411" lon="17.19285">
        <ele>22</ele>
        <time>2019-07-05T08:56:02Z</time>
      </trkpt>
      <trkpt lat="69.41046" lon="17.19636">
        <ele>22</ele>
        <time>2019-07-05T08:56:17Z</time>
      </trkpt>
      <trkpt lat="69.41055" lon="17.19838">
        <ele>22</ele>
        <time>2019-07-05T08:56:32Z</time>
      </trkpt>
      <trkpt lat="69.41114" lon="17.1999">
        <ele>22</ele>
        <time>2019-07-05T08:56:41Z</time>
      </trkpt>
      <trkpt lat="69.41139" lon="17.20292">
        <ele>23</ele>
        <time>2019-07-05T08:57:07Z</time>
      </trkpt>
      <trkpt lat="69.41178" lon="17.20459">
        <ele>23</ele>
        <time>2019-07-05T08:57:29Z</time>
      </trkpt>
      <trkpt lat="69.41274" lon="17.20674">
        <ele>23</ele>
        <time>2019-07-05T08:57:31Z</time>
      </trkpt>
      <trkpt lat="69.41332" lon="17.20752">
        <ele>23</ele>
        <time>2019-07-05T08:57:43Z</time>
      </trkpt>
      <trkpt lat="69.41382" lon="17.20908">
        <ele>24</ele>
        <time>2019-07-05T08:57:50Z</time>
      </trkpt>
      <trkpt lat="69.41514" lon="17.21636">
        <ele>24</ele>
        <time>2019-07-05T08:57:58Z</time>
      </trkpt>
      <trkpt lat="69.41502" lon="17.21817">
        <ele>24</ele>
        <time>2019-07-05T08:58:27Z</time>
      </trkpt>
      <trkpt lat="69.41431" lon="17.22182">
        <ele>25</ele>
        <time>2019-07-05T08:58:32Z</time>
      </trkpt>
      <trkpt lat="69.41294" lon="17.22698">
        <ele>25</ele>
        <time>2019-07-05T08:58:38Z</time>
      </trkpt>
      <trkpt lat="69.41275" lon="17.22908">
        <ele>25</ele>
        <time>2019-07-05T08:58:46Z</time>
      </trkpt>
      <trkpt lat="69.41333" lon="17.23783">
        <ele>25</ele>
        <time>2019-07-05T08:58:55Z</time>
      </trkpt>
      <trkpt lat="69.41156" lon="17.24757">
        <ele>25</ele>
        <time>2019-07-05T08:59:22Z</time>
      </trkpt>
      <trkpt lat="69.41279" lon="17.25583">
        <ele>24</ele>
        <time>2019-07-05T08:59:41Z</time>
      </trkpt>
      <trkpt lat="69.41272" lon="17.25893">
        <ele>24</ele>
        <time>2019-07-05T08:59:58Z</time>
      </trkpt>
      <trkpt lat="69.41258" lon="17.25976">
        <ele>23</ele>
        <time>2019-07-05T09:00:07Z</time>
      </trkpt>
      <trkpt lat="69.41144" lon="17.26243">
        <ele>23</ele>
        <time>2019-07-05T09:00:15Z</time>
      </trkpt>
      <trkpt lat="69.40961" lon="17.26569">
        <ele>23</ele>
        <time>2019-07-05T09:00:32Z</time>
      </trkpt>
      <trkpt lat="69.40823" lon="17.26913">
        <ele>20</ele>
        <time>2019-07-05T09:00:54Z</time>
      </trkpt>
      <trkpt lat="69.40561" lon="17.27361">
        <ele>17</ele>
        <time>2019-07-05T09:01:09Z</time>
      </trkpt>
      <trkpt lat="69.40388" lon="17.27853">
        <ele>15</ele>
        <time>2019-07-05T09:01:34Z</time>
      </trkpt>
      <trkpt lat="69.40162" lon="17.28234">
        <ele>12</ele>
        <time>2019-07-05T09:01:51Z</time>
      </trkpt>
      <trkpt lat="69.40165" lon="17.2843">
        <ele>9</ele>
        <time>2019-07-05T09:02:15Z</time>
      </trkpt>
      <trkpt lat="69.40186" lon="17.28485">
        <ele>8</ele>
        <time>2019-07-05T09:02:23Z</time>
      </trkpt>
      <trkpt lat="69.40207" lon="17.28505">
        <ele>6</ele>
        <time>2019-07-05T09:02:37Z</time>
      </trkpt>
      <trkpt lat="69.40301" lon="17.28499">
        <ele>5</ele>
        <time>2019-07-05T09:02:48Z</time>
      </trkpt>
      <trkpt lat="69.40383" lon="17.28601">
        <ele>3</ele>
        <time>2019-07-05T09:02:53Z</time>
      </trkpt>
      <trkpt lat="69.40398" lon="17.28751">
        <ele>2</ele>
        <time>2019-07-05T09:03:16Z</time>
      </trkpt>
      <trkpt lat="69.40331" lon="17.2916">
        <ele>1</ele>
        <time>2019-07-05T09:03:20Z</time>
      </trkpt>
      <trkpt lat="69.40325" lon="17.29566">
        <ele>3</ele>
        <time>2019-07-05T09:03:23Z</time>
      </trkpt>
      <trkpt lat="69.40255" lon="17.29819">
        <ele>5</ele>
        <time>2019-07-05T09:03:27Z</time>
      </trkpt>
      <trkpt lat="69.40163" lon="17.3054">
        <ele>7</ele>
        <time>2019-07-05T09:03:30Z</time>
      </trkpt>
      <trkpt lat="69.40122" lon="17.31188">
        <ele>9</ele>
        <time>2019-07-05T09:03:38Z</time>
      </trkpt>
      <trkpt lat="69.39724" lon="17.32821">
        <ele>11</ele>
        <time>2019-07-05T09:03:41Z</time>
      </trkpt>
      <trkpt lat="69.39586" lon="17.33604">
        <ele>12</ele>
        <time>2019-07-05T09:03:52Z</time>
      </trkpt>
      <trkpt lat="69.39486" lon="17.34755">
        <ele>12</ele>
        <time>2019-07-05T09:03:59Z</time>
      </trkpt>
      <trkpt lat="69.39503" lon="17.35696">
        <ele>12</ele>
        <time>2019-07-05T09:04:11Z</time>
      </trkpt>
      <trkpt lat="69.39472" lon="17.36265">
        <ele>12</ele>
        <time>2019-07-05T09:04:30Z</time>
      </trkpt>
      <trkpt lat="69.39357" lon="17.37006">
        <ele>11</ele>
        <time>2019-07-05T09:04:38Z</time>
      </trkpt>
      <trkpt lat="69.39257" lon="17.3732">
        <ele>11</ele>
        <time>2019-07-05T09:04:54Z</time>
      </trkpt>
      <trkpt lat="69.39186" lon="17.37424">
        <ele>11</ele>
        <time>2019-07-05T09:05:00Z</time>
      </trkpt>
      <trkpt lat="69.39139" lon="17.37556">
        <ele>12</ele>
        <time>2019-07-05T09:05:07Z</time>
      </trkpt>
      <trkpt lat="69.39108" lon="17.37853">
        <ele>12</ele>
        <time>2019-07-05T09:05:23Z</time>
      </trkpt>
      <trkpt lat="69.3902" lon="17.38298">
        <ele>13</ele>
        <time>2019-07-05T09:05:32Z</time>
      </trkpt>
      <trkpt lat="69.39032" lon="17.39294">
        <ele>13</ele>
        <time>2019-07-05T09:05:51Z</time>
      </trkpt>
      <trkpt lat="69.38935" lon="17.39735">
        <ele>14</ele>
        <time>2019-07-05T09:06:01Z</time>
      </trkpt>
      <trkpt lat="69.38932" lon="17.39897">
        <ele>14</ele>
        <time>2019-07-05T09:06:09Z</time>
      </trkpt>
      <trkpt lat="69.39009" lon="17.39731">
        <ele>32</ele>
        <time>2019-07-05T09:06:43Z</time>
      </trkpt>
      <trkpt lat="69.39065" lon="17.39715">
        <ele>49</ele>
        <time>2019-07-05T09:07:04Z</time>
      </trkpt>
      <trkpt lat="69.39127" lon="17.39811">
        <ele>67</ele>
        <time>2019-07-05T09:07:09Z</time>
      </trkpt>
      <trkpt lat="69.39153" lon="17.40003">
        <ele>85</ele>
        <time>2019-07-05T09:08:48Z</time>
      </trkpt>
      <trkpt lat="69.39105" lon="17.40506">
        <ele>103</ele>
        <time>2019-07-05T09:08:57Z</time>
      </trkpt>
      <trkpt lat="69.39089" lon="17.41779">
        <ele>104</ele>
        <time>2019-07-05T09:09:21Z</time>
      </trkpt>
      <trkpt lat="69.39129" lon="17.43136">
        <ele>140</ele>
        <time>2019-07-05T09:09:26Z</time>
      </trkpt>
      <trkpt lat="69.39241" lon="17.44257">
        <ele>177</ele>
        <time>2019-07-05T09:09:34Z</time>
      </trkpt>
      <trkpt lat="69.39577" lon="17.46498">
        <ele>213</ele>
        <time>2019-07-05T09:09:40Z</time>
      </trkpt>
      <trkpt lat="69.39593" lon="17.46979">
        <ele>249</ele>
        <time>2019-07-05T09:09:56Z</time>
      </trkpt>
      <trkpt lat="69.39503" lon="17.47629">
        <ele>282</ele>
        <time>2019-07-05T09:10:21Z</time>
      </trkpt>
      <trkpt lat="69.39508" lon="17.47903">
        <ele>268</ele>
        <time>2019-07-05T09:10:39Z</time>
      </trkpt>
      <trkpt lat="69.39698" lon="17.48708">
        <ele>254</ele>
        <time>2019-07-05T09:10:50Z</time>
      </trkpt>
      <trkpt lat="69.3974" lon="17.49181">
        <ele>240</ele>
        <time>2019-07-05T09:14:45Z</time>
      </trkpt>
      <trkpt lat="69.39788" lon="17.49361">
        <ele>226</ele>
        <time>2019-07-05T09:14:51Z</time>
      </trkpt>
      <trkpt lat="69.41211" lon="17.5181">
        <ele>212</ele>
        <time>2019-07-05T09:15:17Z</time>
      </trkpt>
      <trkpt lat="69.41279" lon="17.51614">
        <ele>202</ele>
        <time>2019-07-05T09:15:39Z</time>
      </trkpt>
      <trkpt lat="69.41387" lon="17.51464">
        <ele>195</ele>
        <time>2019-07-05T09:15:50Z</time>
      </trkpt>
      <trkpt lat="69.41686" lon="17.51312">
        <ele>189</ele>
        <time>2019-07-05T09:15:59Z</time>
      </trkpt>
      <trkpt lat="69.41713" lon="17.51232">
        <ele>183</ele>
        <time>2019-07-05T09:16:02Z</time>
      </trkpt>
      <trkpt lat="69.41737" lon="17.50851">
        <ele>177</ele>
        <time>2019-07-05T09:16:09Z</time>
      </trkpt>
      <trkpt lat="69.41759" lon="17.5079">
        <ele>170</ele>
        <time>2019-07-05T09:16:25Z</time>
      </trkpt>
      <trkpt lat="69.41839" lon="17.50754">
        <ele>167</ele>
        <time>2019-07-05T09:16:36Z</time>
      </trkpt>
      <trkpt lat="69.41999" lon="17.50618">
        <ele>153</ele>
        <time>2019-07-05T09:16:51Z</time>
      </trkpt>
      <trkpt lat="69.42062" lon="17.50609">
        <ele>139</ele>
        <time>2019-07-05T09:17:22Z</time>
      </trkpt>
      <trkpt lat="69.42176" lon="17.50495">
        <ele>125</ele>
        <time>2019-07-05T09:17:49Z</time>
      </trkpt>
      <trkpt lat="69.42266" lon="17.50499">
        <ele>111</ele>
        <time>2019-07-05T09:17:59Z</time>
      </trkpt>
      <trkpt lat="69.42301" lon="17.50454">
        <ele>97</ele>
        <time>2019-07-05T09:18:17Z</time>
      </trkpt>
      <trkpt lat="69.42309" lon="17.50424">
        <ele>91</ele>
        <time>2019-07-05T09:18:32Z</time>
      </trkpt>
      <trkpt lat="69.42272" lon="17.50354">
        <ele>90</ele>
        <time>2019-07-05T09:18:40Z</time>
      </trkpt>
      <trkpt lat="69.42203" lon="17.50315">
        <ele>88</ele>
        <time>2019-07-05T09:19:12Z</time>
      </trkpt>
      <trkpt lat="69.4213" lon="17.50231">
        <ele>87</ele>
        <time>2019-07-05T09:19:28Z</time>
      </trkpt>
      <trkpt lat="69.42079" lon="17.50075">
        <ele>85</ele>
        <time>2019-07-05T09:19:36Z</time>
      </trkpt>
      <trkpt lat="69.42096" lon="17.4998">
        <ele>84</ele>
        <time>2019-07-05T09:19:42Z</time>
      </trkpt>
      <trkpt lat="69.42263" lon="17.50203">
        <ele>83</ele>
        <time>2019-07-05T09:19:48Z</time>
      </trkpt>
      <trkpt lat="69.42513" lon="17.50244">
        <ele>70</ele>
        <time>2019-07-05T09:20:02Z</time>
      </trkpt>
      <trkpt lat="69.42586" lon="17.50207">
        <ele>57</ele>
        <time>2019-07-05T09:20:20Z</time>
      </trkpt>
      <trkpt lat="69.42642" lon="17.50141">
        <ele>43</ele>
        <time>2019-07-05T09:20:36Z</time>
      </trkpt>
      <trkpt lat="69.42974" lon="17.49472">
        <ele>30</ele>
        <time>2019-07-05T09:20:46Z</time>
      </trkpt>
      <trkpt lat="69.43164" lon="17.49232">
        <ele>16</ele>
        <time>2019-07-05T09:20:56Z</time>
      </trkpt>
      <trkpt lat="69.43415" lon="17.48458">
        <ele>16</ele>
        <time>2019-07-05T09:21:07Z</time>
      </trkpt>
      <trkpt lat="69.43579" lon="17.47562">
        <ele>15</ele>
        <time>2019-07-05T09:21:16Z</time>
      </trkpt>
      <trkpt lat="69.43591" lon="17.47528">
        <ele>15</ele>
        <time>2019-07-05T09:21:24Z</time>
      </trkpt>
      <trkpt lat="69.437" lon="17.47451">
        <ele>14</ele>
        <time>2019-07-05T09:21:53Z</time>
      </trkpt>
      <trkpt lat="69.43695" lon="17.47476">
        <ele>13</ele>
        <time>2019-07-05T09:22:07Z</time>
      </trkpt>
      <trkpt lat="69.43909" lon="17.46937">
        <ele>13</ele>
        <time>2019-07-05T09:22:43Z</time>
      </trkpt>
      <trkpt lat="69.44056" lon="17.46168">
        <ele>13</ele>
        <time>2019-07-05T09:22:54Z</time>
      </trkpt>
      <trkpt lat="69.44172" lon="17.45277">
        <ele>13</ele>
        <time>2019-07-05T09:23:06Z</time>
      </trkpt>
      <trkpt lat="69.44194" lon="17.44826">
        <ele>13</ele>
        <time>2019-07-05T09:23:15Z</time>
      </trkpt>
      <trkpt lat="69.44236" lon="17.43641">
        <ele>13</ele>
        <time>2019-07-05T09:23:18Z</time>
      </trkpt>
      <trkpt lat="69.44195" lon="17.4254">
        <ele>13</ele>
        <time>2019-07-05T09:23:26Z</time>
      </trkpt>
      <trkpt lat="69.44067" lon="17.41549">
        <ele>13</ele>
        <time>2019-07-05T09:23:29Z</time>
      </trkpt>
      <trkpt lat="69.43726" lon="17.40002">
        <ele>20</ele>
        <time>2019-07-05T09:23:33Z</time>
      </trkpt>
      <trkpt lat="69.43546" lon="17.39307">
        <ele>27</ele>
        <time>2019-07-05T09:23:37Z</time>
      </trkpt>
      <trkpt lat="69.43513" lon="17.38254">
        <ele>34</ele>
        <time>2019-07-05T09:23:40Z</time>
      </trkpt>
      <trkpt lat="69.43693" lon="17.36468">
        <ele>42</ele>
        <time>2019-07-05T09:24:06Z</time>
      </trkpt>
      <trkpt lat="69.4388" lon="17.35762">
        <ele>49</ele>
        <time>2019-07-05T09:24:21Z</time>
      </trkpt>
      <trkpt lat="69.44075" lon="17.35149">
        <ele>52</ele>
        <time>2019-07-05T09:24:29Z</time>
      </trkpt>
      <trkpt lat="69.44143" lon="17.34629">
        <ele>48</ele>
        <time>2019-07-05T09:24:36Z</time>
      </trkpt>
      <trkpt lat="69.44156" lon="17.34149">
        <ele>44</ele>
        <time>2019-07-05T09:24:42Z</time>
      </trkpt>
      <trkpt lat="69.44194" lon="17.34435">
        <ele>39</ele>
        <time>2019-07-05T09:25:07Z</time>
      </trkpt>
      <trkpt lat="69.44211" lon="17.35045">
        <ele>35</ele>
        <time>2019-07-05T09:25:18Z</time>
      </trkpt>
      <trkpt lat="69.45325" lon="17.34624">
        <ele>31</ele>
        <time>2019-07-05T09:25:30Z</time>
      </trkpt>
      <trkpt lat="69.45589" lon="17.34798">
        <ele>29</ele>
        <time>2019-07-05T09:25:40Z</time>
      </trkpt>
      <trkpt lat="69.45775" lon="17.35138">
        <ele>30</ele>
        <time>2019-07-05T09:25:53Z</time>
      </trkpt>
      <trkpt lat="69.46052" lon="17.35342">
        <ele>31</ele>
        <time>2019-07-05T09:26:09Z</time>
      </trkpt>
      <trkpt lat="69.46168" lon="17.35316">
        <ele>31</ele>
        <time>2019-07-05T09:26:26Z</time>
      </trkpt>
      <trkpt lat="69.46225" lon="17.35237">
        <ele>32</ele>
        <time>2019-07-05T09:26:43Z</time>
      </trkpt>
      <trkpt lat="69.46437" lon="17.34636">
        <ele>33</ele>
        <time>2019-07-05T09:27:09Z</time>
      </trkpt>
      <trkpt lat="69.46684" lon="17.343">
        <ele>33</ele>
        <time>2019-07-05T09:27:24Z</time>
      </trkpt>
      <trkpt lat="69.46845" lon="17.33968">
        <ele>29</ele>
        <time>2019-07-05T09:27:49Z</time>
      </trkpt>
      <trkpt lat="69.47104" lon="17.33526">
        <ele>25</ele>
        <time>2019-07-05T09:28:04Z</time>
      </trkpt>
      <trkpt lat="69.47187" lon="17.33437">
        <ele>21</ele>
        <time>2019-07-05T09:28:13Z</time>
      </trkpt>
      <trkpt lat="69.47578" lon="17.33163">
        <ele>18</ele>
        <time>2019-07-05T09:28:26Z</time>
      </trkpt>
      <trkpt lat="69.47668" lon="17.33121">
        <ele>14</ele>
        <time>2019-07-05T09:28:48Z</time>
      </trkpt>
      <trkpt lat="69.48056" lon="17.3313">
        <ele>14</ele>
        <time>2019-07-05T09:29:26Z</time>
      </trkpt>
      <trkpt lat="69.48289" lon="17.33248">
        <ele>15</ele>
        <time>2019-07-05T09:29:46Z</time>
      </trkpt>
      <trkpt lat="69.48635" lon="17.33343">
        <ele>17</ele>
        <time>2019-07-05T09:29:52Z</time>
      </trkpt>
      <trkpt lat="69.48796" lon="17.3324">
        <ele>18</ele>
        <time>2019-07-05T09:30:05Z</time>
      </trkpt>
      <trkpt lat="69.48706" lon="17.33295">
        <ele>20</ele>
        <time>2019-07-05T09:30:22Z</time>
      </trkpt>
      <trkpt lat="69.48708" lon="17.33316">
        <ele>21</ele>
        <time>2019-07-05T09:30:50Z</time>
      </trkpt>
      <trkpt lat="69.48885" lon="17.33406">
        <ele>17</ele>
        <time>2019-07-05T09:31:02Z</time>
      </trkpt>
      <trkpt lat="69.48936" lon="17.3355">
        <ele>13</ele>
        <time>2019-07-05T09:31:20Z</time>
      </trkpt>
      <trkpt lat="69.48918" lon="17.3404">
        <ele>10</ele>
        <time>2019-07-05T09:31:31Z</time>
      </trkpt>
      <trkpt lat="69.48627" lon="17.35326">
        <ele>6</ele>
        <time>2019-07-05T09:31:35Z</time>
      </trkpt>
      <trkpt lat="69.48522" lon="17.36095">
        <ele>2</ele>
        <time>2019-07-05T09:32:04Z</time>
      </trkpt>
      <trkpt lat="69.48383" lon="17.36645">
        <ele>7.2</ele>
        <time>2019-07-05T09:32:21Z</time>
      </trkpt>
      <trkpt lat="69.4824" lon="17.36959">
        <ele>2</ele>
        <time>2019-07-05T09:32:28Z</time>
      </trkpt>
      <trkpt lat="69.48138" lon="17.37264">
        <ele>4</ele>
        <time>2019-07-05T09:35:34Z</time>
      </trkpt>
      <trkpt lat="69.48087" lon="17.37636">
        <ele>6</ele>
        <time>2019-07-05T09:35:38Z</time>
      </trkpt>
      <trkpt lat="69.47935" lon="17.3814">
        <ele>9</ele>
        <time>2019-07-05T09:40:54Z</time>
      </trkpt>
      <trkpt lat="69.47847" lon="17.39129">
        <ele>11</ele>
        <time>2019-07-05T09:41:01Z</time>
      </trkpt>
      <trkpt lat="69.47876" lon="17.39321">
        <ele>12</ele>
        <time>2019-07-05T09:41:15Z</time>
      </trkpt>
      <trkpt lat="69.48106" lon="17.40214">
        <ele>15</ele>
        <time>2019-07-05T09:41:23Z</time>
      </trkpt>
      <trkpt lat="69.48121" lon="17.4066">
        <ele>18</ele>
        <time>2019-07-05T09:41:34Z</time>
      </trkpt>
      <trkpt lat="69.47909" lon="17.42223">
        <ele>20</ele>
        <time>2019-07-05T09:41:56Z</time>
      </trkpt>
      <trkpt lat="69.47705" lon="17.42666">
        <ele>23</ele>
        <time>2019-07-05T09:42:07Z</time>
      </trkpt>
      <trkpt lat="69.47547" lon="17.42873">
        <ele>26</ele>
        <time>2019-07-05T09:42:26Z</time>
      </trkpt>
      <trkpt lat="69.47505" lon="17.43043">
        <ele>27</ele>
        <time>2019-07-05T09:42:31Z</time>
      </trkpt>
      <trkpt lat="69.47498" lon="17.43213">
        <ele>31</ele>
        <time>2019-07-05T09:42:45Z</time>
      </trkpt>
      <trkpt lat="69.48392" lon="17.48417">
        <ele>35</ele>
        <time>2019-07-05T09:43:29Z</time>
      </trkpt>
      <trkpt lat="69.4846" lon="17.48605">
        <ele>39</ele>
        <time>2019-07-05T09:43:37Z</time>
      </trkpt>
      <trkpt lat="69.48562" lon="17.48688">
        <ele>43</ele>
        <time>2019-07-05T09:43:50Z</time>
      </trkpt>
      <trkpt lat="69.48485" lon="17.48625">
        <ele>47</ele>
        <time>2019-07-05T09:44:03Z</time>
      </trkpt>
      <trkpt lat="69.48401" lon="17.48508">
        <ele>47</ele>
        <time>2019-07-05T09:44:20Z</time>
      </trkpt>
      <trkpt lat="69.48525" lon="17.4867">
        <ele>38</ele>
        <time>2019-07-05T09:45:03Z</time>
      </trkpt>
      <trkpt lat="69.48541" lon="17.48775">
        <ele>29</ele>
        <time>2019-07-05T09:45:30Z</time>
      </trkpt>
      <trkpt lat="69.48526" lon="17.48842">
        <ele>19</ele>
        <time>2019-07-05T09:45:40Z</time>
      </trkpt>
      <trkpt lat="69.48568" lon="17.48678">
        <ele>10</ele>
        <time>2019-07-05T09:45:59Z</time>
      </trkpt>
      <trkpt lat="69.4875" lon="17.48675">
        <ele>1</ele>
        <time>2019-07-05T09:46:17Z</time>
      </trkpt>
      <trkpt lat="69.49089" lon="17.48029">
        <ele>2</ele>
        <time>2019-07-05T09:46:36Z</time>
      </trkpt>
      <trkpt lat="69.49234" lon="17.47895">
        <ele>2</ele>
        <time>2019-07-05T09:46:45Z</time>
      </trkpt>
      <trkpt lat="69.49309" lon="17.47972">
        <ele>3</ele>
        <time>2019-07-05T09:46:54Z</time>
      </trkpt>
      <trkpt lat="69.49552" lon="17.48471">
        <ele>3</ele>
        <time>2019-07-05T09:47:02Z</time>
      </trkpt>
      <trkpt lat="69.49609" lon="17.48637">
        <ele>4</ele>
        <time>2019-07-05T09:47:16Z</time>
      </trkpt>
      <trkpt lat="69.49306" lon="17.47963">
        <ele>4</ele>
        <time>2019-07-05T09:47:39Z</time>
      </trkpt>
      <trkpt lat="69.49247" lon="17.47896">
        <ele>4</ele>
        <time>2019-07-05T09:47:50Z</time>
      </trkpt>
      <trkpt lat="69.49199" lon="17.47906">
        <ele>4</ele>
        <time>2019-07-05T09:47:59Z</time>
      </trkpt>
      <trkpt lat="69.49034" lon="17.48098">
        <ele>3</ele>
        <time>2019-07-05T09:48:18Z</time>
      </trkpt>
      <trkpt lat="69.48774" lon="17.48649">
        <ele>3</ele>
        <time>2019-07-05T09:48:38Z</time>
      </trkpt>
      <trkpt lat="69.4874" lon="17.48676">
        <ele>3</ele>
        <time>2019-07-05T09:49:11Z</time>
      </trkpt>
      <trkpt lat="69.48687" lon="17.48658">
        <ele>2</ele>
        <time>2019-07-05T09:49:26Z</time>
      </trkpt>
      <trkpt lat="69.48548" lon="17.48667">
        <ele>3</ele>
        <time>2019-07-05T09:49:34Z</time>
      </trkpt>
      <trkpt lat="69.4852" lon="17.49052">
        <ele>4</ele>
        <time>2019-07-05T09:49:52Z</time>
      </trkpt>
      <trkpt lat="69.4856" lon="17.49201">
        <ele>5</ele>
        <time>2019-07-05T09:50:00Z</time>
      </trkpt>
      <trkpt lat="69.49156" lon="17.50012">
        <ele>6</ele>
        <time>2019-07-05T09:50:43Z</time>
      </trkpt>
      <trkpt lat="69.49488" lon="17.50299">
        <ele>7</ele>
        <time>2019-07-05T09:51:03Z</time>
      </trkpt>
      <trkpt lat="69.49616" lon="17.50316">
        <ele>7</ele>
        <time>2019-07-05T09:51:15Z</time>
      </trkpt>
      <trkpt lat="69.49651" lon="17.50361">
        <ele>16</ele>
        <time>2019-07-05T09:51:24Z</time>
      </trkpt>
      <trkpt lat="69.49862" lon="17.51005">
        <ele>25</ele>
        <time>2019-07-05T09:51:34Z</time>
      </trkpt>
      <trkpt lat="69.49903" lon="17.51261">
        <ele>33</ele>
        <time>2019-07-05T09:51:52Z</time>
      </trkpt>
      <trkpt lat="69.49965" lon="17.5228">
        <ele>42</ele>
        <time>2019-07-05T09:52:05Z</time>
      </trkpt>
      <trkpt lat="69.49963" lon="17.52259">
        <ele>51</ele>
        <time>2019-07-05T09:52:15Z</time>
      </trkpt>
      <trkpt lat="69.49846" lon="17.52691">
        <ele>53</ele>
        <time>2019-07-05T09:52:29Z</time>
      </trkpt>
      <trkpt lat="69.49359" lon="17.53916">
        <ele>44</ele>
        <time>2019-07-05T09:52:44Z</time>
      </trkpt>
      <trkpt lat="69.49267" lon="17.54417">
        <ele>35</ele>
        <time>2019-07-05T09:52:59Z</time>
      </trkpt>
      <trkpt lat="69.48933" lon="17.55361">
        <ele>26</ele>
        <time>2019-07-05T09:53:10Z</time>
      </trkpt>
      <trkpt lat="69.48847" lon="17.55488">
        <ele>17</ele>
        <time>2019-07-05T09:53:25Z</time>
      </trkpt>
      <trkpt lat="69.48706" lon="17.55619">
        <ele>8</ele>
        <time>2019-07-05T09:53:40Z</time>
      </trkpt>
      <trkpt lat="69.48311" lon="17.55552">
        <ele>7</ele>
        <time>2019-07-05T09:53:53Z</time>
      </trkpt>
      <trkpt lat="69.48156" lon="17.55373">
        <ele>9</ele>
        <time>2019-07-05T09:54:13Z</time>
      </trkpt>
      <trkpt lat="69.48047" lon="17.55325">
        <ele>11</ele>
        <time>2019-07-05T09:54:24Z</time>
      </trkpt>
      <trkpt lat="69.47946" lon="17.55334">
        <ele>13</ele>
        <time>2019-07-05T09:54:31Z</time>
      </trkpt>
      <trkpt lat="69.47822" lon="17.55265">
        <ele>15</ele>
        <time>2019-07-05T09:54:45Z</time>
      </trkpt>
      <trkpt lat="69.4757" lon="17.54964">
        <ele>17</ele>
        <time>2019-07-05T09:54:56Z</time>
      </trkpt>
      <trkpt lat="69.47506" lon="17.54915">
        <ele>21</ele>
        <time>2019-07-05T09:55:06Z</time>
      </trkpt>
      <trkpt lat="69.47476" lon="17.54922">
        <ele>24</ele>
        <time>2019-07-05T09:55:14Z</time>
      </trkpt>
      <trkpt lat="69.47272" lon="17.55392">
        <ele>27</ele>
        <time>2019-07-05T09:55:21Z</time>
      </trkpt>
      <trkpt lat="69.47162" lon="17.56175">
        <ele>30</ele>
        <time>2019-07-05T09:55:35Z</time>
      </trkpt>
      <trkpt lat="69.47054" lon="17.56478">
        <ele>34</ele>
        <time>2019-07-05T09:55:53Z</time>
      </trkpt>
      <trkpt lat="69.46982" lon="17.56626">
        <ele>36</ele>
        <time>2019-07-05T09:56:25Z</time>
      </trkpt>
      <trkpt lat="69.46932" lon="17.56678">
        <ele>34</ele>
        <time>2019-07-05T09:56:39Z</time>
      </trkpt>
      <trkpt lat="69.46659" lon="17.57309">
        <ele>32</ele>
        <time>2019-07-05T09:56:53Z</time>
      </trkpt>
      <trkpt lat="69.46294" lon="17.57689">
        <ele>30</ele>
        <time>2019-07-05T09:57:05Z</time>
      </trkpt>
      <trkpt lat="69.46229" lon="17.57821">
        <ele>28</ele>
        <time>2019-07-05T09:57:11Z</time>
      </trkpt>
      <trkpt lat="69.45948" lon="17.58884">
        <ele>26</ele>
        <time>2019-07-05T09:57:34Z</time>
      </trkpt>
      <trkpt lat="69.4591" lon="17.59408">
        <ele>25</ele>
        <time>2019-07-05T09:57:40Z</time>
      </trkpt>
      <trkpt lat="69.458" lon="17.59669">
        <ele>36</ele>
        <time>2019-07-05T09:57:50Z</time>
      </trkpt>
      <trkpt lat="69.45769" lon="17.5981">
        <ele>46</ele>
        <time>2019-07-05T09:57:54Z</time>
      </trkpt>
      <trkpt lat="69.45785" lon="17.59995">
        <ele>56</ele>
        <time>2019-07-05T09:58:58Z</time>
      </trkpt>
      <trkpt lat="69.46154" lon="17.60734">
        <ele>67</ele>
        <time>2019-07-05T09:59:30Z</time>
      </trkpt>
      <trkpt lat="69.46214" lon="17.61315">
        <ele>77</ele>
        <time>2019-07-05T09:59:45Z</time>
      </trkpt>
      <trkpt lat="69.46184" lon="17.62158">
        <ele>82</ele>
        <time>2019-07-05T09:59:59Z</time>
      </trkpt>
      <trkpt lat="69.4621" lon="17.62615">
        <ele>72</ele>
        <time>2019-07-05T10:00:16Z</time>
      </trkpt>
      <trkpt lat="69.46544" lon="17.64584">
        <ele>63</ele>
        <time>2019-07-05T10:00:34Z</time>
      </trkpt>
      <trkpt lat="69.46599" lon="17.64741">
        <ele>54</ele>
        <time>2019-07-05T10:01:03Z</time>
      </trkpt>
      <trkpt lat="69.46631" lon="17.65082">
        <ele>45</ele>
        <time>2019-07-05T10:01:24Z</time>
      </trkpt>
      <trkpt lat="69.46709" lon="17.65517">
        <ele>36</ele>
        <time>2019-07-05T10:01:39Z</time>
      </trkpt>
      <trkpt lat="69.46725" lon="17.65929">
        <ele>34</ele>
        <time>2019-07-05T10:01:51Z</time>
      </trkpt>
      <trkpt lat="69.46595" lon="17.67097">
        <ele>50</ele>
        <time>2019-07-05T10:02:00Z</time>
      </trkpt>
      <trkpt lat="69.46605" lon="17.67737">
        <ele>66</ele>
        <time>2019-07-05T10:02:24Z</time>
      </trkpt>
      <trkpt lat="69.46577" lon="17.6864">
        <ele>81</ele>
        <time>2019-07-05T10:02:35Z</time>
      </trkpt>
      <trkpt lat="69.46633" lon="17.69252">
        <ele>97</ele>
        <time>2019-07-05T10:02:41Z</time>
      </trkpt>
      <trkpt lat="69.46692" lon="17.69451">
        <ele>113</ele>
        <time>2019-07-05T10:02:50Z</time>
      </trkpt>
      <trkpt lat="69.46765" lon="17.69576">
        <ele>114</ele>
        <time>2019-07-05T10:03:05Z</time>
      </trkpt>
      <trkpt lat="69.46815" lon="17.69612">
        <ele>114</ele>
        <time>2019-07-05T10:03:28Z</time>
      </trkpt>
      <trkpt lat="69.47003" lon="17.69552">
        <ele>113</ele>
        <time>2019-07-05T10:03:42Z</time>
      </trkpt>
      <trkpt lat="69.47134" lon="17.69554">
        <ele>113</ele>
        <time>2019-07-05T10:03:48Z</time>
      </trkpt>
      <trkpt lat="69.47241" lon="17.69416">
        <ele>113</ele>
        <time>2019-07-05T10:03:54Z</time>
      </trkpt>
      <trkpt lat="69.4728" lon="17.69437">
        <ele>112</ele>
        <time>2019-07-05T10:04:06Z</time>
      </trkpt>
      <trkpt lat="69.47294" lon="17.69754">
        <ele>113</ele>
        <time>2019-07-05T10:04:40Z</time>
      </trkpt>
      <trkpt lat="69.47381" lon="17.70241">
        <ele>114</ele>
        <time>2019-07-05T10:04:53Z</time>
      </trkpt>
      <trkpt lat="69.47411" lon="17.7067">
        <ele>115</ele>
        <time>2019-07-05T10:05:10Z</time>
      </trkpt>
      <trkpt lat="69.47436" lon="17.71225">
        <ele>116</ele>
        <time>2019-07-05T10:05:32Z</time>
      </trkpt>
      <trkpt lat="69.47412" lon="17.7222">
        <ele>117</ele>
        <time>2019-07-05T10:05:50Z</time>
      </trkpt>
      <trkpt lat="69.4759" lon="17.73628">
        <ele>118</ele>
        <time>2019-07-05T10:06:20Z</time>
      </trkpt>
      <trkpt lat="69.47594" lon="17.74289">
        <ele>116</ele>
        <time>2019-07-05T10:06:37Z</time>
      </trkpt>
      <trkpt lat="69.4757" lon="17.74644">
        <ele>113</ele>
        <time>2019-07-05T10:06:45Z</time>
      </trkpt>
      <trkpt lat="69.47478" lon="17.75175">
        <ele>111</ele>
        <time>2019-07-05T10:07:04Z</time>
      </trkpt>
      <trkpt lat="69.474" lon="17.7548">
        <ele>108</ele>
        <time>2019-07-05T10:07:31Z</time>
      </trkpt>
      <trkpt lat="69.47175" lon="17.76005">
        <ele>106</ele>
        <time>2019-07-05T10:07:44Z</time>
      </trkpt>
      <trkpt lat="69.47004" lon="17.76609">
        <ele>104</ele>
        <time>2019-07-05T10:07:56Z</time>
      </trkpt>
      <trkpt lat="69.46857" lon="17.76734">
        <ele>96</ele>
        <time>2019-07-05T10:08:06Z</time>
      </trkpt>
      <trkpt lat="69.46735" lon="17.76921">
        <ele>87</ele>
        <time>2019-07-05T10:08:22Z</time>
      </trkpt>
      <trkpt lat="69.46709" lon="17.77026">
        <ele>79</ele>
        <time>2019-07-05T10:08:39Z</time>
      </trkpt>
      <trkpt lat="69.46718" lon="17.77961">
        <ele>70</ele>
        <time>2019-07-05T10:09:02Z</time>
      </trkpt>
      <trkpt lat="69.46652" lon="17.78433">
        <ele>62</ele>
        <time>2019-07-05T10:09:11Z</time>
      </trkpt>
      <trkpt lat="69.46568" lon="17.78821">
        <ele>59</ele>
        <time>2019-07-05T10:09:22Z</time>
      </trkpt>
      <trkpt lat="69.46555" lon="17.79181">
        <ele>50</ele>
        <time>2019-07-05T10:09:29Z</time>
      </trkpt>
      <trkpt lat="69.46439" lon="17.80073">
        <ele>41</ele>
        <time>2019-07-05T10:09:39Z</time>
      </trkpt>
      <trkpt lat="69.46385" lon="17.81281">
        <ele>32</ele>
        <time>2019-07-05T10:10:10Z</time>
      </trkpt>
      <trkpt lat="69.46351" lon="17.81523">
        <ele>23</ele>
        <time>2019-07-05T10:10:18Z</time>
      </trkpt>
      <trkpt lat="69.46304" lon="17.81679">
        <ele>14</ele>
        <time>2019-07-05T10:10:23Z</time>
      </trkpt>
      <trkpt lat="69.46257" lon="17.81741">
        <ele>12</ele>
        <time>2019-07-05T10:10:31Z</time>
      </trkpt>
      <trkpt lat="69.46117" lon="17.81829">
        <ele>13</ele>
        <time>2019-07-05T10:10:41Z</time>
      </trkpt>
      <trkpt lat="69.46034" lon="17.81822">
        <ele>15</ele>
        <time>2019-07-05T10:10:54Z</time>
      </trkpt>
      <trkpt lat="69.45863" lon="17.81527">
        <ele>17</ele>
        <time>2019-07-05T10:11:02Z</time>
      </trkpt>
      <trkpt lat="69.45755" lon="17.81455">
        <ele>18</ele>
        <time>2019-07-05T10:11:11Z</time>
      </trkpt>
      <trkpt lat="69.45457" lon="17.81821">
        <ele>20</ele>
        <time>2019-07-05T10:11:33Z</time>
      </trkpt>
      <trkpt lat="69.45404" lon="17.81997">
        <ele>20</ele>
        <time>2019-07-05T10:11:46Z</time>
      </trkpt>
      <trkpt lat="69.45402" lon="17.8247">
        <ele>17</ele>
        <time>2019-07-05T10:11:58Z</time>
      </trkpt>
      <trkpt lat="69.45369" lon="17.82723">
        <ele>14</ele>
        <time>2019-07-05T10:12:12Z</time>
      </trkpt>
      <trkpt lat="69.45096" lon="17.83912">
        <ele>11</ele>
        <time>2019-07-05T10:12:17Z</time>
      </trkpt>
      <trkpt lat="69.44967" lon="17.84234">
        <ele>8</ele>
        <time>2019-07-05T10:12:26Z</time>
      </trkpt>
      <trkpt lat="69.44721" lon="17.84601">
        <ele>5</ele>
        <time>2019-07-05T10:12:29Z</time>
      </trkpt>
      <trkpt lat="69.44639" lon="17.84883">
        <ele>5</ele>
        <time>2019-07-05T10:12:47Z</time>
      </trkpt>
      <trkpt lat="69.44627" lon="17.85124">
        <ele>5</ele>
        <time>2019-07-05T10:13:04Z</time>
      </trkpt>
      <trkpt lat="69.44646" lon="17.85331">
        <ele>5</ele>
        <time>2019-07-05T10:13:15Z</time>
      </trkpt>
      <trkpt lat="69.44821" lon="17.86027">
        <ele>5</ele>
        <time>2019-07-05T10:13:23Z</time>
      </trkpt>
      <trkpt lat="69.44815" lon="17.86226">
        <ele>5</ele>
        <time>2019-07-05T10:13:40Z</time>
      </trkpt>
      <trkpt lat="69.44712" lon="17.86822">
        <ele>5</ele>
        <time>2019-07-05T10:13:58Z</time>
      </trkpt>
      <trkpt lat="69.44744" lon="17.87249">
        <ele>5</ele>
        <time>2019-07-05T10:14:11Z</time>
      </trkpt>
      <trkpt lat="69.44861" lon="17.87614">
        <ele>5</ele>
        <time>2019-07-05T10:14:22Z</time>
      </trkpt>
      <trkpt lat="69.44911" lon="17.88175">
        <ele>5</ele>
        <time>2019-07-05T10:14:27Z</time>
      </trkpt>
      <trkpt lat="69.4497" lon="17.88306">
        <ele>5</ele>
        <time>2019-07-05T10:14:37Z</time>
      </trkpt>
      <trkpt lat="69.44937" lon="17.88354">
        <ele>5</ele>
        <time>2019-07-05T10:14:48Z</time>
      </trkpt>
      <trkpt lat="69.44937" lon="17.88411">
        <ele>4</ele>
        <time>2019-07-05T10:14:53Z</time>
      </trkpt>
      <trkpt lat="69.44968" lon="17.88288">
        <ele>4</ele>
        <time>2019-07-05T10:15:12Z</time>
      </trkpt>
      <trkpt lat="69.44918" lon="17.88208">
        <ele>3</ele>
        <time>2019-07-05T10:15:28Z</time>
      </trkpt>
      <trkpt lat="69.4487" lon="17.8763">
        <ele>3</ele>
        <time>2019-07-05T10:15:34Z</time>
      </trkpt>
      <trkpt lat="69.44742" lon="17.87203">
        <ele>2</ele>
        <time>2019-07-05T10:15:47Z</time>
      </trkpt>
      <trkpt lat="69.44722" lon="17.87017">
        <ele>2</ele>
        <time>2019-07-05T10:15:56Z</time>
      </trkpt>
      <trkpt lat="69.44741" lon="17.86632">
        <ele>2</ele>
        <time>2019-07-05T10:16:04Z</time>
      </trkpt>
      <trkpt lat="69.44826" lon="17.86032">
        <ele>2</ele>
        <time>2019-07-05T10:17:22Z</time>
      </trkpt>
      <trkpt lat="69.44666" lon="17.85383">
        <ele>2</ele>
        <time>2019-07-05T10:17:29Z</time>
      </trkpt>
      <trkpt lat="69.44637" lon="17.85186">
        <ele>3</ele>
        <time>2019-07-05T10:18:12Z</time>
      </trkpt>
      <trkpt lat="69.44646" lon="17.84861">
        <ele>3</ele>
        <time>2019-07-05T10:19:07Z</time>
      </trkpt>
      <trkpt lat="69.44664" lon="17.84761">
        <ele>3</ele>
        <time>2019-07-05T10:19:12Z</time>
      </trkpt>
      <trkpt lat="69.44774" lon="17.84527">
        <ele>3</ele>
        <time>2019-07-05T10:19:18Z</time>
      </trkpt>
      <trkpt lat="69.44999" lon="17.84189">
        <ele>5</ele>
        <time>2019-07-05T10:19:34Z</time>
      </trkpt>
      <trkpt lat="69.45089" lon="17.83961">
        <ele>7</ele>
        <time>2019-07-05T10:20:14Z</time>
      </trkpt>
      <trkpt lat="69.45399" lon="17.82572">
        <ele>9</ele>
        <time>2019-07-05T10:20:25Z</time>
      </trkpt>
      <trkpt lat="69.4542" lon="17.81915">
        <ele>11</ele>
        <time>2019-07-05T10:20:41Z</time>
      </trkpt>
      <trkpt lat="69.45468" lon="17.81811">
        <ele>12</ele>
        <time>2019-07-05T10:20:50Z</time>
      </trkpt>
      <trkpt lat="69.45703" lon="17.81522">
        <ele>12</ele>
        <time>2019-07-05T10:21:03Z</time>
      </trkpt>
      <trkpt lat="69.45799" lon="17.81461">
        <ele>16</ele>
        <time>2019-07-05T10:21:35Z</time>
      </trkpt>
      <trkpt lat="69.46049" lon="17.8184">
        <ele>19</ele>
        <time>2019-07-05T10:21:56Z</time>
      </trkpt>
      <trkpt lat="69.46191" lon="17.81814">
        <ele>22</ele>
        <time>2019-07-05T10:22:03Z</time>
      </trkpt>
      <trkpt lat="69.46256" lon="17.82046">
        <ele>25</ele>
        <time>2019-07-05T10:22:07Z</time>
      </trkpt>
      <trkpt lat="69.46121" lon="17.83088">
        <ele>28</ele>
        <time>2019-07-05T10:22:12Z</time>
      </trkpt>
      <trkpt lat="69.46136" lon="17.83546">
        <ele>24</ele>
        <time>2019-07-05T10:22:23Z</time>
      </trkpt>
      <trkpt lat="69.46355" lon="17.84436">
        <ele>20</ele>
        <time>2019-07-05T10:22:40Z</time>
      </trkpt>
      <trkpt lat="69.46521" lon="17.85006">
        <ele>16</ele>
        <time>2019-07-05T10:23:12Z</time>
      </trkpt>
      <trkpt lat="69.46595" lon="17.85226">
        <ele>12</ele>
        <time>2019-07-05T10:23:31Z</time>
      </trkpt>
      <trkpt lat="69.46697" lon="17.85385">
        <ele>8</ele>
        <time>2019-07-05T10:23:39Z</time>
      </trkpt>
      <trkpt lat="69.46894" lon="17.85585">
        <ele>6</ele>
        <time>2019-07-05T10:23:54Z</time>
      </trkpt>
      <trkpt lat="69.47031" lon="17.85593">
        <ele>6</ele>
        <time>2019-07-05T10:24:03Z</time>
      </trkpt>
      <trkpt lat="69.47225" lon="17.85501">
        <ele>6</ele>
        <time>2019-07-05T10:24:20Z</time>
      </trkpt>
      <trkpt lat="69.47312" lon="17.85453">
        <ele>7</ele>
        <time>2019-07-05T10:24:36Z</time>
      </trkpt>
      <trkpt lat="69.47506" lon="17.85257">
        <ele>7</ele>
        <time>2019-07-05T10:24:58Z</time>
      </trkpt>
      <trkpt lat="69.47845" lon="17.84847">
        <ele>7</ele>
        <time>2019-07-05T10:25:34Z</time>
      </trkpt>
      <trkpt lat="69.47935" lon="17.84793">
        <ele>7</ele>
        <time>2019-07-05T10:25:57Z</time>
      </trkpt>
      <trkpt lat="69.48054" lon="17.84672">
        <ele>8</ele>
        <time>2019-07-05T10:26:14Z</time>
      </trkpt>
      <trkpt lat="69.48507" lon="17.84427">
        <ele>8</ele>
        <time>2019-07-05T10:26:32Z</time>
      </trkpt>
      <trkpt lat="69.48539" lon="17.84446">
        <ele>9</ele>
        <time>2019-07-05T10:26:48Z</time>
      </trkpt>
      <trkpt lat="69.48814" lon="17.8493">
        <ele>9</ele>
        <time>2019-07-05T10:27:20Z</time>
      </trkpt>
      <trkpt lat="69.4894" lon="17.84954">
        <ele>10</ele>
        <time>2019-07-05T10:27:35Z</time>
      </trkpt>
      <trkpt lat="69.49201" lon="17.85222">
        <ele>10</ele>
        <time>2019-07-05T10:27:54Z</time>
      </trkpt>
      <trkpt lat="69.49633" lon="17.85861">
        <ele>9</ele>
        <time>2019-07-05T10:28:14Z</time>
      </trkpt>
      <trkpt lat="69.49724" lon="17.86038">
        <ele>9</ele>
        <time>2019-07-05T10:28:24Z</time>
      </trkpt>
      <trkpt lat="69.49814" lon="17.86427">
        <ele>8</ele>
        <time>2019-07-05T10:28:59Z</time>
      </trkpt>
      <trkpt lat="69.50042" lon="17.87033">
        <ele>8</ele>
        <time>2019-07-05T10:29:24Z</time>
      </trkpt>
      <trkpt lat="69.50117" lon="17.8793">
        <ele>7</ele>
        <time>2019-07-05T10:29:33Z</time>
      </trkpt>
      <trkpt lat="69.50144" lon="17.88599">
        <ele>7</ele>
        <time>2019-07-05T10:29:47Z</time>
      </trkpt>
      <trkpt lat="69.50246" lon="17.89142">
        <ele>7</ele>
        <time>2019-07-05T10:30:02Z</time>
      </trkpt>
      <trkpt lat="69.5035" lon="17.89401">
        <ele>7</ele>
        <time>2019-07-05T10:30:31Z</time>
      </trkpt>
      <trkpt lat="69.50507" lon="17.90159">
        <ele>8</ele>
        <time>2019-07-05T10:30:51Z</time>
      </trkpt>
      <trkpt lat="69.50545" lon="17.90206">
        <ele>8</ele>
        <time>2019-07-05T10:31:12Z</time>
      </trkpt>
      <trkpt lat="69.50799" lon="17.903">
        <ele>8</ele>
        <time>2019-07-05T10:31:36Z</time>
      </trkpt>
      <trkpt lat="69.50872" lon="17.90167">
        <ele>7</ele>
        <time>2019-07-05T10:31:49Z</time>
      </trkpt>
      <trkpt lat="69.50822" lon="17.90264">
        <ele>5</ele>
        <time>2019-07-05T10:32:04Z</time>
      </trkpt>
      <trkpt lat="69.50758" lon="17.903">
        <ele>4</ele>
        <time>2019-07-05T10:45:55Z</time>
      </trkpt>
      <trkpt lat="69.5074" lon="17.90357">
        <ele>2</ele>
        <time>2019-07-05T10:46:04Z</time>
      </trkpt>
      <trkpt lat="69.50669" lon="17.91113">
        <ele>1</ele>
        <time>2019-07-05T10:46:10Z</time>
      </trkpt>
      <trkpt lat="69.50923" lon="17.91604">
        <time>2019-07-05T10:46:22Z</time>
      </trkpt>
      <trkpt lat="69.51451" lon="17.92412">
        <time>2019-07-05T10:46:52Z</time>
      </trkpt>
      <trkpt lat="69.51612" lon="17.92587">
        <time>2019-07-05T10:46:59Z</time>
      </trkpt>
      <trkpt lat="69.52511" lon="17.93286">
        <time>2019-07-05T10:47:11Z</time>
      </trkpt>
      <trkpt lat="69.52884" lon="17.93616">
        <time>2019-07-05T10:47:15Z</time>
      </trkpt>
      <trkpt lat="69.53785" lon="17.94338">
        <time>2019-07-05T10:48:02Z</time>
      </trkpt>
      <trkpt lat="69.54057" lon="17.94525">
        <time>2019-07-05T10:48:45Z</time>
      </trkpt>
      <trkpt lat="69.55428" lon="17.95605">
        <time>2019-07-05T10:49:00Z</time>
      </trkpt>
      <trkpt lat="69.5636" lon="17.96272">
        <time>2019-07-05T10:49:15Z</time>
      </trkpt>
      <trkpt lat="69.58351" lon="17.98134">
        <time>2019-07-05T10:49:33Z</time>
      </trkpt>
      <trkpt lat="69.58611" lon="17.98425">
        <time>2019-07-05T10:49:40Z</time>
      </trkpt>
      <trkpt lat="69.59764" lon="17.9989">
        <time>2019-07-05T10:49:55Z</time>
      </trkpt>
      <trkpt lat="69.60448" lon="18.0049">
        <time>2019-07-05T10:50:00Z</time>
      </trkpt>
      <trkpt lat="69.60525" lon="18.00635">
        <time>2019-07-05T10:50:21Z</time>
      </trkpt>
      <trkpt lat="69.6059" lon="18.00848">
        <time>2019-07-05T10:50:25Z</time>
      </trkpt>
      <trkpt lat="69.60926" lon="18.02151">
        <time>2019-07-05T10:50:36Z</time>
      </trkpt>
      <trkpt lat="69.60956" lon="18.02377">
        <time>2019-07-05T10:51:21Z</time>
      </trkpt>
      <trkpt lat="69.6094" lon="18.02698">
        <time>2019-07-05T10:51:34Z</time>
      </trkpt>
      <trkpt lat="69.60845" lon="18.03105">
        <time>2019-07-05T10:51:42Z</time>
      </trkpt>
      <trkpt lat="69.60789" lon="18.03223">
        <time>2019-07-05T10:52:06Z</time>
      </trkpt>
      <trkpt lat="69.60769" lon="18.03056">
        <ele>1</ele>
        <time>2019-07-05T10:52:15Z</time>
      </trkpt>
      <trkpt lat="69.60736" lon="18.03051">
        <ele>2</ele>
        <time>2019-07-05T10:52:38Z</time>
      </trkpt>
      <trkpt lat="69.60628" lon="18.03136">
        <ele>2</ele>
        <time>2019-07-05T10:52:46Z</time>
      </trkpt>
      <trkpt lat="69.60485" lon="18.03047">
        <ele>3</ele>
        <time>2019-07-05T10:52:57Z</time>
      </trkpt>
      <trkpt lat="69.60442" lon="18.03059">
        <ele>3</ele>
        <time>2019-07-05T10:53:08Z</time>
      </trkpt>
      <trkpt lat="69.60397" lon="18.03142">
        <ele>3</ele>
        <time>2019-07-05T10:53:16Z</time>
      </trkpt>
      <trkpt lat="69.60334" lon="18.04205">
        <ele>4</ele>
        <time>2019-07-05T10:53:48Z</time>
      </trkpt>
      <trkpt lat="69.60268" lon="18.0447">
        <ele>5</ele>
        <time>2019-07-05T10:53:55Z</time>
      </trkpt>
      <trkpt lat="69.60143" lon="18.0474">
        <ele>5</ele>
        <time>2019-07-05T10:54:07Z</time>
      </trkpt>
      <trkpt lat="69.60021" lon="18.04236">
        <ele>6</ele>
        <time>2019-07-05T10:54:17Z</time>
      </trkpt>
      <trkpt lat="69.59998" lon="18.04277">
        <ele>5</ele>
        <time>2019-07-05T10:54:28Z</time>
      </trkpt>
      <trkpt lat="69.60019" lon="18.04267">
        <ele>5</ele>
        <time>2019-07-05T10:54:48Z</time>
      </trkpt>
      <trkpt lat="69.60063" lon="18.04367">
        <ele>4</ele>
        <time>2019-07-05T10:54:53Z</time>
      </trkpt>
      <trkpt lat="69.60179" lon="18.0495">
        <ele>3</ele>
        <time>2019-07-05T10:55:00Z</time>
      </trkpt>
      <trkpt lat="69.60243" lon="18.05144">
        <ele>3</ele>
        <time>2019-07-05T10:55:13Z</time>
      </trkpt>
      <trkpt lat="69.60389" lon="18.05443">
        <ele>2</ele>
        <time>2019-07-05T10:55:20Z</time>
      </trkpt>
      <trkpt lat="69.60576" lon="18.06004">
        <ele>5</ele>
        <time>2019-07-05T10:55:41Z</time>
      </trkpt>
      <trkpt lat="69.60681" lon="18.06172">
        <ele>7</ele>
        <time>2019-07-05T10:55:51Z</time>
      </trkpt>
      <trkpt lat="69.60727" lon="18.06379">
        <ele>10</ele>
        <time>2019-07-05T10:56:09Z</time>
      </trkpt>
      <trkpt lat="69.60795" lon="18.06981">
        <ele>13</ele>
        <time>2019-07-05T10:56:17Z</time>
      </trkpt>
      <trkpt lat="69.60975" lon="18.07363">
        <ele>16</ele>
        <time>2019-07-05T10:56:23Z</time>
      </trkpt>
      <trkpt lat="69.60931" lon="18.07692">
        <ele>17</ele>
        <time>2019-07-05T10:56:42Z</time>
      </trkpt>
      <trkpt lat="69.60938" lon="18.08233">
        <ele>18</ele>
        <time>2019-07-05T10:56:53Z</time>
      </trkpt>
      <trkpt lat="69.60979" lon="18.08834">
        <ele>19</ele>
        <time>2019-07-05T10:56:57Z</time>
      </trkpt>
      <trkpt lat="69.61079" lon="18.09466">
        <ele>20</ele>
        <time>2019-07-05T10:56:59Z</time>
      </trkpt>
      <trkpt lat="69.61196" lon="18.09671">
        <ele>21</ele>
        <time>2019-07-05T10:57:04Z</time>
      </trkpt>
      <trkpt lat="69.61385" lon="18.09826">
        <ele>22</ele>
        <time>2019-07-05T10:57:27Z</time>
      </trkpt>
      <trkpt lat="69.61514" lon="18.10081">
        <ele>23</ele>
        <time>2019-07-05T10:57:39Z</time>
      </trkpt>
      <trkpt lat="69.61749" lon="18.10362">
        <ele>23</ele>
        <time>2019-07-05T10:57:58Z</time>
      </trkpt>
      <trkpt lat="69.61858" lon="18.10644">
        <ele>23</ele>
        <time>2019-07-05T10:58:14Z</time>
      </trkpt>
      <trkpt lat="69.62059" lon="18.11537">
        <ele>23</ele>
        <time>2019-07-05T10:58:25Z</time>
      </trkpt>
      <trkpt lat="69.62236" lon="18.12984">
        <ele>23</ele>
        <time>2019-07-05T10:58:46Z</time>
      </trkpt>
      <trkpt lat="69.62477" lon="18.13728">
        <ele>23</ele>
        <time>2019-07-05T10:58:54Z</time>
      </trkpt>
      <trkpt lat="69.62592" lon="18.14308">
        <ele>23</ele>
        <time>2019-07-05T10:59:08Z</time>
      </trkpt>
      <trkpt lat="69.62841" lon="18.14967">
        <ele>20</ele>
        <time>2019-07-05T10:59:22Z</time>
      </trkpt>
      <trkpt lat="69.62964" lon="18.1557">
        <ele>17</ele>
        <time>2019-07-05T10:59:26Z</time>
      </trkpt>
      <trkpt lat="69.62982" lon="18.15763">
        <ele>13</ele>
        <time>2019-07-05T11:00:23Z</time>
      </trkpt>
      <trkpt lat="69.62864" lon="18.17435">
        <ele>10</ele>
        <time>2019-07-05T11:00:48Z</time>
      </trkpt>
      <trkpt lat="69.62408" lon="18.18846">
        <ele>7</ele>
        <time>2019-07-05T11:01:04Z</time>
      </trkpt>
      <trkpt lat="69.62333" lon="18.19214">
        <ele>6</ele>
        <time>2019-07-05T11:01:15Z</time>
      </trkpt>
      <trkpt lat="69.62249" lon="18.19977">
        <ele>6</ele>
        <time>2019-07-05T11:01:32Z</time>
      </trkpt>
      <trkpt lat="69.62218" lon="18.20117">
        <ele>5</ele>
        <time>2019-07-05T11:02:06Z</time>
      </trkpt>
      <trkpt lat="69.62089" lon="18.20402">
        <ele>4</ele>
        <time>2019-07-05T11:02:18Z</time>
      </trkpt>
      <trkpt lat="69.62016" lon="18.20749">
        <ele>3</ele>
        <time>2019-07-05T11:02:55Z</time>
      </trkpt>
      <trkpt lat="69.62035" lon="18.21236">
        <ele>3</ele>
        <time>2019-07-05T11:03:07Z</time>
      </trkpt>
      <trkpt lat="69.62109" lon="18.21607">
        <ele>6</ele>
        <time>2019-07-05T11:03:15Z</time>
      </trkpt>
      <trkpt lat="69.62246" lon="18.21995">
        <ele>9</ele>
        <time>2019-07-05T11:03:35Z</time>
      </trkpt>
      <trkpt lat="69.6248" lon="18.22311">
        <ele>12</ele>
        <time>2019-07-05T11:03:42Z</time>
      </trkpt>
      <trkpt lat="69.62518" lon="18.22501">
        <ele>15</ele>
        <time>2019-07-05T11:03:52Z</time>
      </trkpt>
      <trkpt lat="69.62491" lon="18.22766">
        <ele>18</ele>
        <time>2019-07-05T11:03:56Z</time>
      </trkpt>
      <trkpt lat="69.6238" lon="18.23068">
        <ele>20</ele>
        <time>2019-07-05T11:25:00Z</time>
      </trkpt>
      <trkpt lat="69.62294" lon="18.23426">
        <ele>25</ele>
        <time>2019-07-05T11:27:51Z</time>
      </trkpt>
      <trkpt lat="69.62135" lon="18.23824">
        <ele>29</ele>
        <time>2019-07-05T11:28:02Z</time>
      </trkpt>
      <trkpt lat="69.62078" lon="18.24094">
        <ele>33</ele>
        <time>2019-07-05T11:28:21Z</time>
      </trkpt>
      <trkpt lat="69.61922" lon="18.24377">
        <ele>37</ele>
        <time>2019-07-05T11:28:30Z</time>
      </trkpt>
      <trkpt lat="69.61851" lon="18.24598">
        <ele>41</ele>
        <time>2019-07-05T11:28:44Z</time>
      </trkpt>
      <trkpt lat="69.61841" lon="18.25622">
        <ele>43</ele>
        <time>2019-07-05T11:29:12Z</time>
      </trkpt>
      <trkpt lat="69.61759" lon="18.26378">
        <ele>38</ele>
        <time>2019-07-05T11:29:28Z</time>
      </trkpt>
      <trkpt lat="69.61493" lon="18.26585">
        <ele>33</ele>
        <time>2019-07-05T11:29:39Z</time>
      </trkpt>
      <trkpt lat="69.61345" lon="18.26572">
        <ele>27</ele>
        <time>2019-07-05T11:29:46Z</time>
      </trkpt>
      <trkpt lat="69.61215" lon="18.26597">
        <ele>22</ele>
        <time>2019-07-05T11:29:59Z</time>
      </trkpt>
      <trkpt lat="69.60967" lon="18.267">
        <ele>17</ele>
        <time>2019-07-05T11:30:18Z</time>
      </trkpt>
      <trkpt lat="69.60849" lon="18.26809">
        <ele>15</ele>
        <time>2019-07-05T11:30:37Z</time>
      </trkpt>
      <trkpt lat="69.6078" lon="18.27034">
        <ele>12</ele>
        <time>2019-07-05T11:30:52Z</time>
      </trkpt>
      <trkpt lat="69.60739" lon="18.27497">
        <ele>10</ele>
        <time>2019-07-05T11:31:09Z</time>
      </trkpt>
      <trkpt lat="69.60682" lon="18.27747">
        <ele>8</ele>
        <time>2019-07-05T11:31:16Z</time>
      </trkpt>
      <trkpt lat="69.60627" lon="18.27824">
        <ele>5</ele>
        <time>2019-07-05T11:31:45Z</time>
      </trkpt>
      <trkpt lat="69.60515" lon="18.2812">
        <ele>3</ele>
        <time>2019-07-05T11:31:55Z</time>
      </trkpt>
      <trkpt lat="69.60179" lon="18.28643">
        <ele>2</ele>
        <time>2019-07-05T11:32:00Z</time>
      </trkpt>
      <trkpt lat="69.59884" lon="18.28611">
        <ele>4</ele>
        <time>2019-07-05T11:32:09Z</time>
      </trkpt>
      <trkpt lat="69.59803" lon="18.28637">
        <ele>5</ele>
        <time>2019-07-05T11:32:20Z</time>
      </trkpt>
      <trkpt lat="69.59751" lon="18.28623">
        <ele>6</ele>
        <time>2019-07-05T11:32:41Z</time>
      </trkpt>
      <trkpt lat="69.59671" lon="18.28522">
        <ele>7</ele>
        <time>2019-07-05T11:32:43Z</time>
      </trkpt>
      <trkpt lat="69.59511" lon="18.28483">
        <ele>9</ele>
        <time>2019-07-05T11:32:56Z</time>
      </trkpt>
      <trkpt lat="69.59134" lon="18.28215">
        <ele>9</ele>
        <time>2019-07-05T11:33:14Z</time>
      </trkpt>
      <trkpt lat="69.58918" lon="18.28013">
        <ele>8</ele>
        <time>2019-07-05T11:33:27Z</time>
      </trkpt>
      <trkpt lat="69.58549" lon="18.27786">
        <ele>7</ele>
        <time>2019-07-05T11:33:49Z</time>
      </trkpt>
      <trkpt lat="69.58336" lon="18.27555">
        <ele>7</ele>
        <time>2019-07-05T11:33:56Z</time>
      </trkpt>
      <trkpt lat="69.58267" lon="18.27521">
        <ele>6</ele>
        <time>2019-07-05T11:34:16Z</time>
      </trkpt>
      <trkpt lat="69.58155" lon="18.27675">
        <ele>6</ele>
        <time>2019-07-05T11:34:27Z</time>
      </trkpt>
      <trkpt lat="69.58138" lon="18.27793">
        <ele>6</ele>
        <time>2019-07-05T11:34:36Z</time>
      </trkpt>
      <trkpt lat="69.5822" lon="18.28066">
        <ele>6</ele>
        <time>2019-07-05T11:35:05Z</time>
      </trkpt>
      <trkpt lat="69.58511" lon="18.28301">
        <ele>6</ele>
        <time>2019-07-05T11:35:10Z</time>
      </trkpt>
      <trkpt lat="69.58771" lon="18.28626">
        <ele>6</ele>
        <time>2019-07-05T11:35:16Z</time>
      </trkpt>
      <trkpt lat="69.58956" lon="18.28804">
        <ele>6</ele>
        <time>2019-07-05T11:35:22Z</time>
      </trkpt>
      <trkpt lat="69.59293" lon="18.29251">
        <ele>6</ele>
        <time>2019-07-05T11:35:29Z</time>
      </trkpt>
      <trkpt lat="69.59699" lon="18.29663">
        <ele>8</ele>
        <time>2019-07-05T11:35:36Z</time>
      </trkpt>
      <trkpt lat="69.59894" lon="18.2998">
        <ele>10</ele>
        <time>2019-07-05T11:35:39Z</time>
      </trkpt>
      <trkpt lat="69.60192" lon="18.30149">
        <ele>13</ele>
        <time>2019-07-05T11:35:45Z</time>
      </trkpt>
      <trkpt lat="69.6032" lon="18.30284">
        <ele>15</ele>
        <time>2019-07-05T11:35:48Z</time>
      </trkpt>
      <trkpt lat="69.60502" lon="18.3035">
        <ele>17</ele>
        <time>2019-07-05T11:35:52Z</time>
      </trkpt>
      <trkpt lat="69.60743" lon="18.30675">
        <ele>18</ele>
        <time>2019-07-05T11:36:08Z</time>
      </trkpt>
      <trkpt lat="69.60811" lon="18.30813">
        <ele>18</ele>
        <time>2019-07-05T11:36:56Z</time>
      </trkpt>
      <trkpt lat="69.60862" lon="18.31033">
        <ele>18</ele>
        <time>2019-07-05T11:37:01Z</time>
      </trkpt>
      <trkpt lat="69.60947" lon="18.3168">
        <ele>17</ele>
        <time>2019-07-05T11:37:10Z</time>
      </trkpt>
      <trkpt lat="69.61022" lon="18.32422">
        <ele>17</ele>
        <time>2019-07-05T11:37:14Z</time>
      </trkpt>
      <trkpt lat="69.61242" lon="18.33478">
        <ele>17</ele>
        <time>2019-07-05T11:37:30Z</time>
      </trkpt>
      <trkpt lat="69.61435" lon="18.34078">
        <ele>17</ele>
        <time>2019-07-05T11:37:38Z</time>
      </trkpt>
      <trkpt lat="69.61535" lon="18.3455">
        <ele>18</ele>
        <time>2019-07-05T11:37:53Z</time>
      </trkpt>
      <trkpt lat="69.6181" lon="18.35256">
        <ele>19</ele>
        <time>2019-07-05T11:37:59Z</time>
      </trkpt>
      <trkpt lat="69.62021" lon="18.35918">
        <ele>20</ele>
        <time>2019-07-05T11:38:09Z</time>
      </trkpt>
      <trkpt lat="69.62266" lon="18.37016">
        <ele>21</ele>
        <time>2019-07-05T11:38:43Z</time>
      </trkpt>
      <trkpt lat="69.62809" lon="18.3855">
        <ele>22</ele>
        <time>2019-07-05T11:39:02Z</time>
      </trkpt>
      <trkpt lat="69.6307" lon="18.39687">
        <ele>22</ele>
        <time>2019-07-05T11:39:15Z</time>
      </trkpt>
      <trkpt lat="69.63199" lon="18.39973">
        <ele>23</ele>
        <time>2019-07-05T11:39:24Z</time>
      </trkpt>
      <trkpt lat="69.63601" lon="18.40493">
        <ele>25</ele>
        <time>2019-07-05T11:39:34Z</time>
      </trkpt>
      <trkpt lat="69.63748" lon="18.41004">
        <ele>26</ele>
        <time>2019-07-05T11:39:58Z</time>
      </trkpt>
      <trkpt lat="69.63846" lon="18.41148">
        <ele>27</ele>
        <time>2019-07-05T11:40:25Z</time>
      </trkpt>
      <trkpt lat="69.64037" lon="18.41353">
        <ele>28</ele>
        <time>2019-07-05T11:40:45Z</time>
      </trkpt>
      <trkpt lat="69.64082" lon="18.41468">
        <ele>28</ele>
        <time>2019-07-05T11:40:59Z</time>
      </trkpt>
      <trkpt lat="69.63997" lon="18.42885">
        <ele>44</ele>
        <time>2019-07-05T11:41:12Z</time>
      </trkpt>
      <trkpt lat="69.63876" lon="18.43338">
        <ele>59</ele>
        <time>2019-07-05T11:41:44Z</time>
      </trkpt>
      <trkpt lat="69.63696" lon="18.43875">
        <ele>75</ele>
        <time>2019-07-05T11:42:02Z</time>
      </trkpt>
      <trkpt lat="69.63659" lon="18.44095">
        <ele>90</ele>
        <time>2019-07-05T11:42:22Z</time>
      </trkpt>
      <trkpt lat="69.63622" lon="18.44662">
        <ele>103</ele>
        <time>2019-07-05T11:42:32Z</time>
      </trkpt>
      <trkpt lat="69.64005" lon="18.46402">
        <ele>113</ele>
        <time>2019-07-05T11:42:46Z</time>
      </trkpt>
      <trkpt lat="69.64564" lon="18.47232">
        <ele>123</ele>
        <time>2019-07-05T11:43:06Z</time>
      </trkpt>
      <trkpt lat="69.64621" lon="18.47559">
        <ele>132</ele>
        <time>2019-07-05T11:43:15Z</time>
      </trkpt>
      <trkpt lat="69.64942" lon="18.4853">
        <ele>142</ele>
        <time>2019-07-05T11:43:30Z</time>
      </trkpt>
      <trkpt lat="69.64959" lon="18.49354">
        <ele>152</ele>
        <time>2019-07-05T11:43:41Z</time>
      </trkpt>
      <trkpt lat="69.65072" lon="18.51168">
        <ele>158</ele>
        <time>2019-07-05T11:43:51Z</time>
      </trkpt>
      <trkpt lat="69.65056" lon="18.52001">
        <ele>151</ele>
        <time>2019-07-05T11:44:17Z</time>
      </trkpt>
      <trkpt lat="69.65216" lon="18.54058">
        <ele>143</ele>
        <time>2019-07-05T11:44:32Z</time>
      </trkpt>
      <trkpt lat="69.65338" lon="18.54485">
        <ele>136</ele>
        <time>2019-07-05T11:44:50Z</time>
      </trkpt>
      <trkpt lat="69.66099" lon="18.56465">
        <ele>128</ele>
        <time>2019-07-05T11:44:58Z</time>
      </trkpt>
      <trkpt lat="69.66321" lon="18.57254">
        <ele>121</ele>
        <time>2019-07-05T11:45:12Z</time>
      </trkpt>
      <trkpt lat="69.67246" lon="18.62864">
        <ele>117</ele>
        <time>2019-07-05T11:45:37Z</time>
      </trkpt>
      <trkpt lat="69.67351" lon="18.63135">
        <ele>97</ele>
        <time>2019-07-05T11:45:51Z</time>
      </trkpt>
      <trkpt lat="69.67555" lon="18.63444">
        <ele>76</ele>
        <time>2019-07-05T11:46:03Z</time>
      </trkpt>
      <trkpt lat="69.67681" lon="18.63559">
        <ele>56</ele>
        <time>2019-07-05T11:46:12Z</time>
      </trkpt>
      <trkpt lat="69.67842" lon="18.63832">
        <ele>36</ele>
        <time>2019-07-05T11:46:27Z</time>
      </trkpt>
      <trkpt lat="69.68185" lon="18.64807">
        <ele>15</ele>
        <time>2019-07-05T11:46:34Z</time>
      </trkpt>
      <trkpt lat="69.68482" lon="18.65211">
        <ele>9</ele>
        <time>2019-07-05T11:46:46Z</time>
      </trkpt>
      <trkpt lat="69.68546" lon="18.65344">
        <ele>12</ele>
        <time>2019-07-05T11:46:56Z</time>
      </trkpt>
      <trkpt lat="69.68484" lon="18.65646">
        <ele>16</ele>
        <time>2019-07-05T11:47:02Z</time>
      </trkpt>
      <trkpt lat="69.68456" lon="18.66186">
        <ele>19</ele>
        <time>2019-07-05T11:47:12Z</time>
      </trkpt>
      <trkpt lat="69.68478" lon="18.66475">
        <ele>22</ele>
        <time>2019-07-05T11:47:27Z</time>
      </trkpt>
      <trkpt lat="69.68582" lon="18.66977">
        <ele>26</ele>
        <time>2019-07-05T11:47:37Z</time>
      </trkpt>
      <trkpt lat="69.68593" lon="18.67602">
        <ele>26</ele>
        <time>2019-07-05T11:47:42Z</time>
      </trkpt>
      <trkpt lat="69.68541" lon="18.6844">
        <ele>27</ele>
        <time>2019-07-05T11:48:00Z</time>
      </trkpt>
      <trkpt lat="69.68442" lon="18.69211">
        <ele>29</ele>
        <time>2019-07-05T11:48:09Z</time>
      </trkpt>
      <trkpt lat="69.68474" lon="18.6978">
        <ele>30</ele>
        <time>2019-07-05T11:48:28Z</time>
      </trkpt>
      <trkpt lat="69.68446" lon="18.70491">
        <ele>31</ele>
        <time>2019-07-05T11:48:39Z</time>
      </trkpt>
      <trkpt lat="69.68254" lon="18.71343">
        <ele>33</ele>
        <time>2019-07-05T11:48:49Z</time>
      </trkpt>
      <trkpt lat="69.68222" lon="18.71596">
        <ele>32</ele>
        <time>2019-07-05T11:48:57Z</time>
      </trkpt>
      <trkpt lat="69.68204" lon="18.72059">
        <ele>32</ele>
        <time>2019-07-05T11:49:10Z</time>
      </trkpt>
      <trkpt lat="69.68225" lon="18.72865">
        <ele>31</ele>
        <time>2019-07-05T11:49:24Z</time>
      </trkpt>
      <trkpt lat="69.68243" lon="18.72931">
        <ele>31</ele>
        <time>2019-07-05T11:49:34Z</time>
      </trkpt>
      <trkpt lat="69.68245" lon="18.72897">
        <ele>30</ele>
        <time>2019-07-05T11:49:43Z</time>
      </trkpt>
      <trkpt lat="69.68218" lon="18.73845">
        <ele>30</ele>
        <time>2019-07-05T11:49:49Z</time>
      </trkpt>
      <trkpt lat="69.68092" lon="18.74515">
        <ele>28</ele>
        <time>2019-07-05T11:49:59Z</time>
      </trkpt>
      <trkpt lat="69.68013" lon="18.74644">
        <ele>26</ele>
        <time>2019-07-05T11:50:23Z</time>
      </trkpt>
      <trkpt lat="69.67786" lon="18.74702">
        <ele>24</ele>
        <time>2019-07-05T11:50:30Z</time>
      </trkpt>
      <trkpt lat="69.67734" lon="18.74766">
        <ele>23</ele>
        <time>2019-07-05T11:50:38Z</time>
      </trkpt>
      <trkpt lat="69.67717" lon="18.74906">
        <ele>21</ele>
        <time>2019-07-05T11:50:46Z</time>
      </trkpt>
      <trkpt lat="69.67635" lon="18.75063">
        <ele>20</ele>
        <time>2019-07-05T11:50:58Z</time>
      </trkpt>
      <trkpt lat="69.67534" lon="18.75362">
        <ele>18</ele>
        <time>2019-07-05T11:51:30Z</time>
      </trkpt>
      <trkpt lat="69.67441" lon="18.75781">
        <ele>15</ele>
        <time>2019-07-05T11:51:41Z</time>
      </trkpt>
      <trkpt lat="69.6743" lon="18.75945">
        <ele>13</ele>
        <time>2019-07-05T11:51:52Z</time>
      </trkpt>
      <trkpt lat="69.67502" lon="18.76598">
        <ele>11</ele>
        <time>2019-07-05T11:51:56Z</time>
      </trkpt>
      <trkpt lat="69.67557" lon="18.7678">
        <ele>8</ele>
        <time>2019-07-05T11:51:58Z</time>
      </trkpt>
      <trkpt lat="69.67881" lon="18.77513">
        <ele>7</ele>
        <time>2019-07-05T11:52:05Z</time>
      </trkpt>
      <trkpt lat="69.68148" lon="18.78376">
        <ele>7</ele>
        <time>2019-07-05T11:52:09Z</time>
      </trkpt>
      <trkpt lat="69.68353" lon="18.79602">
        <ele>7</ele>
        <time>2019-07-05T11:52:13Z</time>
      </trkpt>
      <trkpt lat="69.68384" lon="18.79942">
        <ele>6</ele>
        <time>2019-07-05T11:52:17Z</time>
      </trkpt>
      <trkpt lat="69.68373" lon="18.80696">
        <ele>6</ele>
        <time>2019-07-05T11:52:19Z</time>
      </trkpt>
      <trkpt lat="69.68441" lon="18.83289">
        <ele>6</ele>
        <time>2019-07-05T11:52:24Z</time>
      </trkpt>
      <trkpt lat="69.68567" lon="18.84649">
        <ele>6</ele>
        <time>2019-07-05T11:52:28Z</time>
      </trkpt>
      <trkpt lat="69.69582" lon="18.88137">
        <ele>5</ele>
        <time>2019-07-05T11:52:33Z</time>
      </trkpt>
      <trkpt lat="69.6963" lon="18.88393">
        <ele>3</ele>
        <time>2019-07-05T11:52:41Z</time>
      </trkpt>
      <trkpt lat="69.69579" lon="18.8857">
        <ele>2</ele>
        <time>2019-07-05T11:52:48Z</time>
      </trkpt>
      <trkpt lat="69.69474" lon="18.89182">
        <ele>1</ele>
        <time>2019-07-05T11:53:10Z</time>
      </trkpt>
      <trkpt lat="69.69369" lon="18.89567">
        <time>2019-07-05T11:53:18Z</time>
      </trkpt>
      <trkpt lat="69.68981" lon="18.90581">
        <time>2019-07-05T11:53:27Z</time>
      </trkpt>
      <trkpt lat="69.68865" lon="18.90801">
        <ele>2.1</ele>
        <time>2019-07-05T11:53:37Z</time>
      </trkpt>
      <trkpt lat="69.68701" lon="18.90915">
        <ele>1</ele>
        <time>2019-07-05T11:53:47Z</time>
      </trkpt>
      <trkpt lat="69.68576" lon="18.90874">
        <ele>2</ele>
        <time>2019-07-05T11:54:09Z</time>
      </trkpt>
      <trkpt lat="69.68483" lon="18.90764">
        <ele>2</ele>
        <time>2019-07-05T11:54:18Z</time>
      </trkpt>
      <trkpt lat="69.68364" lon="18.90561">
        <ele>3</ele>
        <time>2019-07-05T11:54:28Z</time>
      </trkpt>
      <trkpt lat="69.68285" lon="18.90336">
        <ele>2</ele>
        <time>2019-07-05T11:54:42Z</time>
      </trkpt>
      <trkpt lat="69.68228" lon="18.90243">
        <ele>2</ele>
        <time>2019-07-05T11:54:47Z</time>
      </trkpt>
      <trkpt lat="69.68036" lon="18.90115">
        <ele>2</ele>
        <time>2019-07-05T11:55:17Z</time>
      </trkpt>
      <trkpt lat="69.6796" lon="18.90103">
        <ele>1</ele>
        <time>2019-07-05T11:55:32Z</time>
      </trkpt>
      <trkpt lat="69.67915" lon="18.90141">
        <ele>1</ele>
        <time>2019-07-05T11:55:41Z</time>
      </trkpt>
      <trkpt lat="69.67862" lon="18.9026">
        <ele>1</ele>
        <time>2019-07-05T11:55:48Z</time>
      </trkpt>
      <trkpt lat="69.67753" lon="18.90355">
        <ele>1</ele>
        <time>2019-07-05T11:55:53Z</time>
      </trkpt>
      <trkpt lat="69.67545" lon="18.90676">
        <ele>1</ele>
        <time>2019-07-05T11:56:14Z</time>
      </trkpt>
      <trkpt lat="69.67465" lon="18.90739">
        <ele>3.7</ele>
        <time>2019-07-05T11:56:22Z</time>
      </trkpt>
      <trkpt lat="69.67349" lon="18.90758">
        <ele>3</ele>
        <time>2019-07-05T11:56:35Z</time>
      </trkpt>
      <trkpt lat="69.67293" lon="18.90824">
        <ele>3</ele>
        <time>2019-07-05T11:56:47Z</time>
      </trkpt>
      <trkpt lat="69.67224" lon="18.91035">
        <ele>7.2</ele>
        <time>2019-07-05T11:57:04Z</time>
      </trkpt>
      <trkpt lat="69.672" lon="18.91302">
        <ele>2</ele>
        <time>2019-07-05T11:57:37Z</time>
      </trkpt>
      <trkpt lat="69.6723" lon="18.91823">
        <ele>4</ele>
        <time>2019-07-05T11:57:48Z</time>
      </trkpt>
      <trkpt lat="69.67118" lon="18.91906">
        <ele>6</ele>
        <time>2019-07-05T11:57:56Z</time>
      </trkpt>
      <trkpt lat="69.67025" lon="18.92065">
        <ele>7</ele>
        <time>2019-07-05T11:58:05Z</time>
      </trkpt>
      <trkpt lat="69.66991" lon="18.92174">
        <ele>9</ele>
        <time>2019-07-05T11:58:16Z</time>
      </trkpt>
      <trkpt lat="69.66958" lon="18.92103">
        <ele>10</ele>
        <time>2019-07-05T11:58:47Z</time>
      </trkpt>
      <trkpt lat="69.66936" lon="18.91849">
        <ele>8</ele>
        <time>2019-07-05T11:59:04Z</time>
      </trkpt>
      <trkpt lat="69.66898" lon="18.91717">
        <ele>7</ele>
        <time>2019-07-05T11:59:14Z</time>
      </trkpt>
      <trkpt lat="69.66786" lon="18.91499">
        <ele>5</ele>
        <time>2019-07-05T11:59:21Z</time>
      </trkpt>
      <trkpt lat="69.66752" lon="18.91475">
        <ele>3</ele>
        <time>2019-07-05T11:59:24Z</time>
      </trkpt>
      <trkpt lat="69.66704" lon="18.91321">
        <ele>1</ele>
        <time>2019-07-05T11:59:39Z</time>
      </trkpt>
      <trkpt lat="69.66549" lon="18.91031">
        <ele>1</ele>
        <time>2019-07-05T12:00:08Z</time>
      </trkpt>
      <trkpt lat="69.66449" lon="18.90949">
        <ele>1</ele>
        <time>2019-07-05T12:00:20Z</time>
      </trkpt>
      <trkpt lat="69.6618" lon="18.9081">
        <ele>1</ele>
        <time>2019-07-05T12:00:32Z</time>
      </trkpt>
      <trkpt lat="69.65855" lon="18.90834">
        <ele>1</ele>
        <time>2019-07-05T12:00:43Z</time>
      </trkpt>
      <trkpt lat="69.65796" lon="18.90805">
        <ele>1</ele>
        <time>2019-07-05T12:01:18Z</time>
      </trkpt>
      <trkpt lat="69.65529" lon="18.90418">
        <ele>1</ele>
        <time>2019-07-05T12:01:31Z</time>
      </trkpt>
      <trkpt lat="69.65172" lon="18.90299">
        <ele>1</ele>
        <time>2019-07-05T12:01:45Z</time>
      </trkpt>
      <trkpt lat="69.64939" lon="18.89927">
        <ele>1</ele>
        <time>2019-07-05T12:02:02Z</time>
      </trkpt>
      <trkpt lat="69.64883" lon="18.89888">
        <ele>1</ele>
        <time>2019-07-05T12:02:21Z</time>
      </trkpt>
      <trkpt lat="69.64421" lon="18.90102">
        <ele>1</ele>
        <time>2019-07-05T12:03:05Z</time>
      </trkpt>
      <trkpt lat="69.64056" lon="18.90091">
        <ele>1</ele>
        <time>2019-07-05T12:03:24Z</time>
      </trkpt>
      <trkpt lat="69.63857" lon="18.90246">
        <ele>1</ele>
        <time>2019-07-05T12:03:41Z</time>
      </trkpt>
      <trkpt lat="69.63764" lon="18.90275">
        <ele>1</ele>
        <time>2019-07-05T12:04:02Z</time>
      </trkpt>
      <trkpt lat="69.63442" lon="18.90685">
        <ele>2</ele>
        <time>2019-07-05T12:04:17Z</time>
      </trkpt>
      <trkpt lat="69.63314" lon="18.91044">
        <ele>2</ele>
        <time>2019-07-05T12:05:39Z</time>
      </trkpt>
      <trkpt lat="69.63124" lon="18.91247">
        <ele>2</ele>
        <time>2019-07-05T12:05:57Z</time>
      </trkpt>
      <trkpt lat="69.63088" lon="18.91315">
        <ele>3</ele>
        <time>2019-07-05T12:06:05Z</time>
      </trkpt>
      <trkpt lat="69.62991" lon="18.91623">
        <ele>3</ele>
        <time>2019-07-05T12:06:12Z</time>
      </trkpt>
      <trkpt lat="69.62983" lon="18.91768">
        <ele>3</ele>
        <time>2019-07-05T12:06:23Z</time>
      </trkpt>
      <trkpt lat="69.63156" lon="18.92197">
        <ele>4</ele>
        <time>2019-07-05T12:06:42Z</time>
      </trkpt>
      <trkpt lat="69.63136" lon="18.92301">
        <ele>4</ele>
        <time>2019-07-05T12:07:01Z</time>
      </trkpt>
      <trkpt lat="69.63152" lon="18.92264">
        <ele>5</ele>
        <time>2019-07-05T12:07:08Z</time>
      </trkpt>
      <trkpt lat="69.63052" lon="18.92454">
        <ele>5</ele>
        <time>2019-07-05T12:07:28Z</time>
      </trkpt>
      <trkpt lat="69.63138" lon="18.9221">
        <ele>5</ele>
        <time>2019-07-05T12:07:36Z</time>
      </trkpt>
      <trkpt lat="69.6316" lon="18.92201">
        <ele>9</ele>
        <time>2019-07-05T12:08:29Z</time>
      </trkpt>
      <trkpt lat="69.63301" lon="18.92538">
        <ele>13</ele>
        <time>2019-07-05T12:08:41Z</time>
      </trkpt>
      <trkpt lat="69.63408" lon="18.92656">
        <ele>17</ele>
        <time>2019-07-05T12:08:47Z</time>
      </trkpt>
      <trkpt lat="69.635" lon="18.92511">
        <ele>21</ele>
        <time>2019-07-05T12:08:51Z</time>
      </trkpt>
      <trkpt lat="69.63612" lon="18.92598">
        <ele>25</ele>
        <time>2019-07-05T12:08:55Z</time>
      </trkpt>
      <trkpt lat="69.63693" lon="18.92621">
        <ele>26</ele>
        <time>2019-07-05T12:09:14Z</time>
      </trkpt>
      <trkpt lat="69.6354" lon="18.92914">
        <ele>23</ele>
        <time>2019-07-05T12:09:29Z</time>
      </trkpt>
      <trkpt lat="69.63589" lon="18.93016">
        <ele>19</ele>
        <time>2019-07-05T12:09:41Z</time>
      </trkpt>
      <trkpt lat="69.63659" lon="18.93292">
        <ele>15</ele>
        <time>2019-07-05T12:10:09Z</time>
      </trkpt>
      <trkpt lat="69.63941" lon="18.93717">
        <ele>12</ele>
        <time>2019-07-05T12:10:19Z</time>
      </trkpt>
      <trkpt lat="69.64147" lon="18.94111">
        <ele>8</ele>
        <time>2019-07-05T12:10:40Z</time>
      </trkpt>
      <trkpt lat="69.64234" lon="18.9421">
        <ele>8</ele>
        <time>2019-07-05T12:10:52Z</time>
      </trkpt>
      <trkpt lat="69.64553" lon="18.95016">
        <ele>7</ele>
        <time>2019-07-05T12:11:02Z</time>
      </trkpt>
      <trkpt lat="69.64689" lon="18.95283">
        <ele>6</ele>
        <time>2019-07-05T12:11:24Z</time>
      </trkpt>
      <trkpt lat="69.65047" lon="18.95692">
        <ele>6</ele>
        <time>2019-07-05T12:11:33Z</time>
      </trkpt>
      <trkpt lat="69.65091" lon="18.95708">
        <ele>5</ele>
        <time>2019-07-05T12:12:01Z</time>
      </trkpt>
      <trkpt lat="69.6525" lon="18.95908">
        <ele>4</ele>
        <time>2019-07-05T12:12:11Z</time>
      </trkpt>
      <trkpt lat="69.65184" lon="18.96145">
        <ele>4</ele>
        <time>2019-07-05T12:12:20Z</time>
      </trkpt>
      <trkpt lat="69.6514" lon="18.96073">
        <ele>5</ele>
        <time>2019-07-05T12:12:28Z</time>
      </trkpt>
      <trkpt lat="69.65144" lon="18.95904">
        <ele>5</ele>
        <time>2019-07-05T12:12:35Z</time>
      </trkpt>
      <trkpt lat="69.65154" lon="18.95965">
        <ele>6</ele>
        <time>2019-07-05T12:13:02Z</time>
      </trkpt>
      <trkpt lat="69.65235" lon="18.9601">
        <ele>6</ele>
        <time>2019-07-05T12:13:25Z</time>
      </trkpt>
      <trkpt lat="69.65395" lon="18.96327">
        <ele>6</ele>
        <time>2019-07-05T12:13:47Z</time>
      </trkpt>
      <trkpt lat="69.65365" lon="18.96534">
        <ele>6</ele>
        <time>2019-07-05T12:14:11Z</time>
      </trkpt>
      <trkpt lat="69.65432" lon="18.9665">
        <ele>6</ele>
        <time>2019-07-05T12:14:26Z</time>
      </trkpt>
      <trkpt lat="69.65463" lon="18.96455">
        <ele>6</ele>
        <time>2019-07-05T12:14:49Z</time>
      </trkpt>
      <trkpt lat="69.65453" lon="18.96427">
        <ele>6</ele>
        <time>2019-07-05T12:14:59Z</time>
      </trkpt>
      <trkpt lat="69.6501" lon="18.98362">
        <ele>6</ele>
        <time>2019-07-05T12:15:17Z</time>
      </trkpt>
      <trkpt lat="69.64952" lon="18.98517">
        <ele>5</ele>
        <time>2019-07-05T12:15:28Z</time>
      </trkpt>
      <trkpt lat="69.6487" lon="18.98629">
        <ele>11</ele>
        <time>2019-07-05T12:15:37Z</time>
      </trkpt>
      <trkpt lat="69.64833" lon="18.98773">
        <ele>16</ele>
        <time>2019-07-05T12:16:04Z</time>
      </trkpt>
      <trkpt lat="69.64759" lon="18.98888">
        <ele>21</ele>
        <time>2019-07-05T12:19:03Z</time>
      </trkpt>
      <trkpt lat="69.64754" lon="18.99186">
        <ele>26</ele>
        <time>2019-07-05T12:19:07Z</time>
      </trkpt>
      <trkpt lat="69.64817" lon="18.99963">
        <ele>31</ele>
        <time>2019-07-05T12:19:13Z</time>
      </trkpt>
      <trkpt lat="69.64558" lon="19.00535">
        <ele>33</ele>
        <time>2019-07-05T12:19:24Z</time>
      </trkpt>
      <trkpt lat="69.64839" lon="18.99952">
        <ele>28</ele>
        <time>2019-07-05T12:19:50Z</time>
      </trkpt>
      <trkpt lat="69.64885" lon="19.00394">
        <ele>23</ele>
        <time>2019-07-05T12:19:57Z</time>
      </trkpt>
      <trkpt lat="69.64935" lon="19.00336">
        <ele>17</ele>
        <time>2019-07-05T12:20:02Z</time>
      </trkpt>
      <trkpt lat="69.64911" lon="19.00388">
        <ele>12</ele>
        <time>2019-07-05T12:20:14Z</time>
      </trkpt>
      <trkpt lat="69.64909" lon="19.00681">
        <ele>6</ele>
        <time>2019-07-05T12:20:26Z</time>
      </trkpt>
      <trkpt lat="69.64947" lon="19.00765">
        <ele>5</ele>
        <time>2019-07-05T12:20:35Z</time>
      </trkpt>
      <trkpt lat="69.65034" lon="19.00854">
        <ele>5</ele>
        <time>2019-07-05T12:20:50Z</time>
      </trkpt>
      <trkpt lat="69.64899" lon="19.00656">
        <ele>6</ele>
        <time>2019-07-05T12:20:57Z</time>
      </trkpt>
      <trkpt lat="69.64872" lon="19.00999">
        <ele>7</ele>
        <time>2019-07-05T12:21:14Z</time>
      </trkpt>
      <trkpt lat="69.64792" lon="19.01124">
        <ele>8</ele>
        <time>2019-07-05T12:21:32Z</time>
      </trkpt>
      <trkpt lat="69.64768" lon="19.01228">
        <ele>9</ele>
        <time>2019-07-05T12:21:56Z</time>
      </trkpt>
      <trkpt lat="69.64759" lon="19.01402">
        <ele>9</ele>
        <time>2019-07-05T12:22:20Z</time>
      </trkpt>
      <trkpt lat="69.64773" lon="19.01498">
        <ele>10</ele>
        <time>2019-07-05T12:22:29Z</time>
      </trkpt>
      <trkpt lat="69.64812" lon="19.01561">
        <ele>12</ele>
        <time>2019-07-05T12:22:33Z</time>
      </trkpt>
      <trkpt lat="69.64806" lon="19.01769">
        <ele>13</ele>
        <time>2019-07-05T12:22:38Z</time>
      </trkpt>
      <trkpt lat="69.64815" lon="19.01752">
        <ele>16</ele>
        <time>2019-07-05T12:22:56Z</time>
      </trkpt>
    </trkseg>
  </trk>
</gpx>